[[{"header":{"parameterUnit":"m.s-1","parameterCategory":1,"la1":31.0,"la2":29.5877,"lo1":-88.7671,"lo2":-86.6584,"dy":0.0162,"dx":0.0185,"nx":115,"ny":88,"refTime":"2026-03-31T00:00:00:Z","depth":0,"parameterNumber":2,"parameterNumberName":"U-component_of_WINDS"},"data":[0.0,0.0,0.0,0.0,0.0,0.0,0.0,0.0,0.0,0.0,0.0,0.0,0.0,0.0,0.0,0.0,0.0,0.0,0.0,0.0,0.0,0.0,0.0,0.0,0.0,0.0,0.0,0.0,0.0,0.0,0.0,0.0,0.0,0.0,0.0,0.0,0.0,0.0,0.0,0.0,0.0,-2.5857,-2.4663,-2.349,-2.2803,-2.2564,-2.2841,0.0,0.0,0.0,0.0,0.0,0.0,0.0,0.0,0.0,0.0,0.0,0.0,0.0,0.0,0.0,0.0,0.0,0.0,0.0,0.0,0.0,0.0,0.0,0.0,0.0,0.0,0.0,0.0,0.0,0.0,0.0,0.0,0.0,0.0,0.0,0.0,0.0,0.0,0.0,0.0,0.0,0.0,0.0,0.0,0.0,0.0,0.0,0.0,0.0,0.0,0.0,0.0,0.0,0.0,0.0,0.0,0.0,0.0,0.0,0.0,0.0,0.0,0.0,0.0,0.0,0.0,0.0,0.0,0.0,0.0,0.0,0.0,0.0,0.0,0.0,0.0,0.0,0.0,0.0,0.0,0.0,0.0,0.0,0.0,0.0,0.0,0.0,0.0,0.0,0.0,0.0,0.0,0.0,0.0,0.0,0.0,0.0,0.0,0.0,0.0,0.0,0.0,0.0,0.0,0.0,0.0,0.0,0.0,0.0,0.0,-2.5528,-2.4349,-2.389,-2.3339,-2.2699,0.0,0.0,0.0,0.0,0.0,0.0,0.0,0.0,0.0,0.0,0.0,0.0,0.0,0.0,0.0,0.0,0.0,0.0,0.0,0.0,0.0,0.0,0.0,0.0,0.0,0.0,0.0,0.0,0.0,0.0,0.0,0.0,0.0,0.0,0.0,0.0,0.0,0.0,0.0,0.0,0.0,0.0,0.0,0.0,0.0,0.0,0.0,0.0,0.0,0.0,0.0,0.0,0.0,0.0,0.0,0.0,0.0,0.0,0.0,0.0,0.0,0.0,0.0,0.0,0.0,0.0,0.0,0.0,0.0,0.0,0.0,0.0,0.0,0.0,0.0,0.0,0.0,0.0,0.0,0.0,0.0,0.0,0.0,0.0,0.0,0.0,0.0,0.0,0.0,0.0,0.0,0.0,0.0,0.0,0.0,0.0,0.0,0.0,0.0,0.0,0.0,0.0,0.0,0.0,0.0,0.0,0.0,0.0,0.0,0.0,-2.66,-2.5385,-2.374,-2.2811,-2.2708,0.0,0.0,0.0,0.0,0.0,0.0,0.0,0.0,0.0,0.0,0.0,0.0,0.0,0.0,0.0,0.0,0.0,0.0,0.0,0.0,0.0,0.0,0.0,0.0,0.0,0.0,0.0,0.0,0.0,0.0,0.0,0.0,0.0,0.0,0.0,0.0,0.0,0.0,0.0,0.0,0.0,0.0,0.0,0.0,0.0,0.0,0.0,0.0,0.0,0.0,0.0,0.0,0.0,0.0,0.0,0.0,0.0,0.0,0.0,0.0,0.0,0.0,0.0,0.0,0.0,0.0,0.0,0.0,0.0,0.0,0.0,0.0,0.0,0.0,0.0,0.0,0.0,0.0,0.0,0.0,0.0,0.0,0.0,0.0,0.0,0.0,0.0,0.0,0.0,0.0,0.0,0.0,0.0,0.0,0.0,0.0,0.0,0.0,0.0,0.0,0.0,0.0,0.0,0.0,0.0,0.0,0.0,0.0,0.0,0.0,-2.7594,-2.6357,-2.4644,-2.3545,-2.3164,-2.2222,0.0,0.0,0.0,0.0,0.0,0.0,0.0,0.0,0.0,0.0,0.0,0.0,0.0,0.0,0.0,0.0,0.0,0.0,0.0,0.0,0.0,0.0,0.0,0.0,0.0,0.0,0.0,0.0,0.0,0.0,0.0,0.0,0.0,0.0,0.0,0.0,0.0,0.0,0.0,0.0,0.0,0.0,0.0,0.0,0.0,0.0,0.0,0.0,0.0,0.0,0.0,0.0,0.0,0.0,0.0,0.0,0.0,0.0,0.0,0.0,0.0,0.0,0.0,0.0,0.0,0.0,0.0,0.0,0.0,0.0,0.0,0.0,0.0,0.0,0.0,0.0,0.0,0.0,0.0,0.0,0.0,0.0,0.0,0.0,0.0,0.0,0.0,0.0,0.0,0.0,0.0,0.0,0.0,0.0,0.0,0.0,0.0,0.0,0.0,0.0,0.0,0.0,0.0,0.0,0.0,0.0,0.0,0.0,0.0,-2.8401,-2.7107,-2.5987,-2.4834,-2.3534,-2.2786,0.0,0.0,0.0,0.0,0.0,0.0,0.0,0.0,0.0,0.0,0.0,0.0,0.0,0.0,0.0,0.0,0.0,0.0,0.0,0.0,0.0,0.0,0.0,0.0,0.0,0.0,0.0,0.0,0.0,0.0,0.0,0.0,0.0,0.0,0.0,0.0,0.0,0.0,0.0,0.0,0.0,0.0,0.0,0.0,0.0,0.0,0.0,0.0,0.0,0.0,0.0,0.0,0.0,0.0,0.0,0.0,0.0,0.0,0.0,0.0,0.0,0.0,0.0,0.0,0.0,0.0,0.0,0.0,0.0,0.0,0.0,0.0,0.0,0.0,0.0,0.0,0.0,0.0,0.0,0.0,0.0,0.0,0.0,0.0,0.0,0.0,0.0,0.0,0.0,0.0,0.0,0.0,0.0,0.0,0.0,0.0,0.0,0.0,0.0,0.0,0.0,0.0,0.0,0.0,0.0,0.0,0.0,0.0,0.0,-2.8548,-2.7463,-2.6672,-2.5207,-2.3121,-2.2925,0.0,0.0,0.0,0.0,0.0,0.0,0.0,0.0,0.0,0.0,0.0,0.0,0.0,0.0,0.0,0.0,0.0,0.0,0.0,0.0,0.0,0.0,0.0,0.0,0.0,0.0,0.0,0.0,0.0,0.0,0.0,0.0,0.0,0.0,0.0,0.0,0.0,0.0,0.0,0.0,0.0,0.0,0.0,0.0,0.0,0.0,0.0,0.0,0.0,0.0,0.0,0.0,0.0,0.0,0.0,0.0,0.0,0.0,0.0,0.0,0.0,0.0,0.0,0.0,0.0,0.0,0.0,0.0,0.0,0.0,0.0,0.0,0.0,0.0,0.0,0.0,0.0,0.0,0.0,0.0,0.0,0.0,0.0,0.0,0.0,0.0,0.0,0.0,0.0,0.0,0.0,0.0,0.0,0.0,0.0,0.0,0.0,0.0,0.0,0.0,0.0,0.0,0.0,0.0,0.0,0.0,0.0,0.0,0.0,-2.9243,-2.8153,-2.7186,-2.5768,-2.3946,-2.2951,0.0,0.0,0.0,0.0,0.0,0.0,0.0,0.0,0.0,0.0,0.0,0.0,0.0,0.0,0.0,0.0,0.0,0.0,0.0,0.0,0.0,0.0,0.0,0.0,0.0,0.0,0.0,0.0,0.0,0.0,0.0,0.0,0.0,0.0,0.0,0.0,0.0,0.0,0.0,0.0,0.0,0.0,0.0,0.0,0.0,0.0,0.0,0.0,0.0,0.0,0.0,0.0,0.0,0.0,0.0,0.0,0.0,0.0,0.0,0.0,0.0,0.0,0.0,0.0,0.0,0.0,0.0,0.0,0.0,0.0,0.0,0.0,0.0,0.0,0.0,0.0,0.0,0.0,0.0,0.0,0.0,0.0,0.0,0.0,0.0,0.0,0.0,0.0,0.0,0.0,0.0,0.0,0.0,0.0,0.0,0.0,0.0,0.0,0.0,0.0,0.0,0.0,0.0,0.0,0.0,0.0,0.0,0.0,-3.0369,-2.987,-2.8798,-2.7616,-2.6317,-2.4899,-2.32,0.0,0.0,0.0,0.0,0.0,0.0,0.0,0.0,0.0,0.0,0.0,0.0,0.0,0.0,0.0,0.0,0.0,0.0,0.0,0.0,0.0,0.0,0.0,0.0,0.0,0.0,0.0,0.0,0.0,0.0,0.0,0.0,0.0,0.0,0.0,0.0,0.0,0.0,0.0,0.0,0.0,0.0,0.0,0.0,0.0,0.0,0.0,0.0,0.0,0.0,0.0,0.0,0.0,0.0,0.0,0.0,0.0,0.0,0.0,0.0,0.0,0.0,0.0,0.0,0.0,0.0,0.0,0.0,0.0,0.0,0.0,0.0,0.0,0.0,0.0,0.0,0.0,0.0,0.0,0.0,0.0,0.0,0.0,0.0,0.0,0.0,0.0,0.0,0.0,0.0,0.0,0.0,0.0,0.0,0.0,0.0,0.0,0.0,0.0,0.0,0.0,0.0,0.0,0.0,0.0,0.0,0.0,-3.026,-3.0316,-2.9851,-2.8829,-2.8075,-2.6733,-2.481,-2.4015,0.0,0.0,0.0,0.0,0.0,0.0,0.0,0.0,0.0,0.0,0.0,0.0,0.0,0.0,0.0,0.0,0.0,0.0,0.0,0.0,0.0,0.0,0.0,0.0,0.0,0.0,0.0,0.0,0.0,0.0,0.0,0.0,0.0,0.0,0.0,0.0,0.0,0.0,0.0,0.0,0.0,0.0,0.0,0.0,0.0,0.0,0.0,0.0,0.0,0.0,0.0,0.0,0.0,0.0,0.0,0.0,0.0,0.0,0.0,0.0,0.0,0.0,0.0,0.0,0.0,0.0,0.0,0.0,0.0,0.0,0.0,0.0,0.0,0.0,0.0,0.0,0.0,0.0,0.0,0.0,0.0,0.0,0.0,0.0,0.0,0.0,0.0,0.0,0.0,0.0,0.0,0.0,0.0,0.0,0.0,0.0,0.0,0.0,0.0,0.0,0.0,0.0,0.0,0.0,0.0,0.0,-2.9729,-3.0109,-3.0183,-2.9958,-2.9353,-2.7957,-2.6544,-2.517,-2.3727,0.0,0.0,0.0,0.0,0.0,0.0,0.0,0.0,0.0,0.0,0.0,0.0,0.0,0.0,0.0,0.0,0.0,0.0,0.0,0.0,0.0,0.0,0.0,0.0,0.0,0.0,0.0,0.0,0.0,0.0,0.0,0.0,0.0,0.0,0.0,0.0,0.0,0.0,0.0,0.0,0.0,0.0,0.0,0.0,0.0,0.0,0.0,0.0,0.0,0.0,0.0,0.0,0.0,0.0,0.0,0.0,0.0,0.0,0.0,0.0,0.0,0.0,0.0,0.0,0.0,0.0,0.0,0.0,0.0,0.0,0.0,0.0,0.0,0.0,0.0,0.0,0.0,0.0,0.0,0.0,0.0,0.0,0.0,0.0,0.0,0.0,0.0,0.0,0.0,0.0,0.0,0.0,0.0,0.0,0.0,0.0,0.0,0.0,0.0,0.0,0.0,0.0,0.0,0.0,0.0,0.0,-2.9701,-3.0434,-3.0293,-3.0264,-3.0295,-2.8449,-2.6747,-2.545,0.0,0.0,0.0,0.0,0.0,0.0,0.0,0.0,0.0,0.0,0.0,0.0,0.0,0.0,0.0,0.0,0.0,0.0,0.0,0.0,0.0,0.0,0.0,0.0,0.0,0.0,0.0,0.0,0.0,0.0,0.0,0.0,0.0,0.0,0.0,0.0,0.0,0.0,0.0,0.0,0.0,0.0,0.0,0.0,0.0,0.0,0.0,0.0,0.0,0.0,0.0,0.0,0.0,0.0,0.0,0.0,0.0,0.0,0.0,0.0,0.0,0.0,0.0,0.0,0.0,0.0,0.0,0.0,0.0,0.0,0.0,0.0,0.0,0.0,0.0,0.0,0.0,0.0,0.0,0.0,0.0,0.0,0.0,0.0,0.0,0.0,0.0,0.0,0.0,0.0,0.0,0.0,0.0,0.0,0.0,0.0,0.0,0.0,0.0,0.0,0.0,0.0,0.0,0.0,0.0,0.0,0.0,-3.0074,-3.1849,-3.0807,-3.0807,-3.2194,-3.0379,-2.8119,-2.5469,0.0,0.0,0.0,0.0,0.0,0.0,0.0,0.0,0.0,0.0,0.0,0.0,0.0,0.0,0.0,0.0,0.0,0.0,0.0,0.0,0.0,0.0,0.0,0.0,0.0,0.0,0.0,0.0,0.0,0.0,0.0,0.0,0.0,0.0,0.0,0.0,0.0,0.0,0.0,0.0,0.0,0.0,0.0,0.0,0.0,0.0,0.0,0.0,0.0,0.0,0.0,0.0,0.0,0.0,0.0,0.0,0.0,0.0,0.0,0.0,0.0,0.0,0.0,0.0,0.0,0.0,0.0,0.0,0.0,0.0,0.0,0.0,0.0,0.0,0.0,0.0,0.0,0.0,0.0,0.0,0.0,0.0,0.0,0.0,0.0,0.0,0.0,0.0,0.0,0.0,0.0,0.0,0.0,0.0,0.0,0.0,0.0,0.0,0.0,0.0,0.0,0.0,0.0,0.0,0.0,0.0,-2.8578,-2.9482,-3.0555,-3.1208,-3.1653,-3.1735,-2.9088,-2.6799,-2.4914,0.0,0.0,0.0,0.0,0.0,0.0,0.0,0.0,0.0,0.0,0.0,0.0,0.0,0.0,0.0,0.0,0.0,0.0,0.0,0.0,0.0,0.0,0.0,0.0,0.0,0.0,0.0,0.0,0.0,0.0,0.0,0.0,0.0,0.0,0.0,0.0,0.0,0.0,0.0,0.0,0.0,0.0,0.0,0.0,0.0,0.0,0.0,0.0,0.0,0.0,0.0,0.0,0.0,0.0,0.0,0.0,0.0,0.0,0.0,0.0,0.0,0.0,0.0,0.0,0.0,0.0,0.0,0.0,0.0,0.0,0.0,0.0,0.0,0.0,0.0,0.0,0.0,0.0,0.0,0.0,0.0,0.0,0.0,0.0,0.0,0.0,0.0,0.0,0.0,0.0,0.0,0.0,0.0,0.0,0.0,0.0,0.0,0.0,0.0,0.0,0.0,0.0,0.0,0.0,0.0,-2.7695,-2.8311,-2.9338,-3.075,-3.1669,-3.1681,-3.0688,-2.8672,-2.6368,-2.3783,0.0,0.0,0.0,0.0,0.0,0.0,0.0,0.0,0.0,0.0,0.0,0.0,0.0,0.0,0.0,0.0,0.0,0.0,0.0,0.0,0.0,0.0,0.0,0.0,0.0,0.0,0.0,0.0,0.0,0.0,0.0,0.0,0.0,0.0,0.0,0.0,0.0,0.0,0.0,0.0,0.0,0.0,0.0,0.0,0.0,0.0,0.0,0.0,0.0,0.0,0.0,0.0,0.0,0.0,0.0,0.0,0.0,0.0,0.0,0.0,0.0,0.0,0.0,0.0,0.0,0.0,0.0,0.0,0.0,0.0,0.0,0.0,0.0,0.0,0.0,0.0,0.0,0.0,0.0,0.0,0.0,0.0,0.0,0.0,0.0,0.0,0.0,0.0,0.0,0.0,0.0,0.0,0.0,0.0,0.0,0.0,0.0,0.0,0.0,0.0,0.0,0.0,0.0,0.0,0.0,0.0,-2.7946,-3.0198,-3.3908,-3.2062,-3.0505,-2.9666,-3.0255,-2.7793,-2.2034,0.0,0.0,0.0,0.0,0.0,0.0,0.0,0.0,0.0,0.0,0.0,0.0,0.0,0.0,0.0,0.0,0.0,0.0,0.0,0.0,0.0,0.0,0.0,0.0,0.0,0.0,0.0,0.0,0.0,0.0,0.0,0.0,0.0,0.0,0.0,0.0,0.0,0.0,0.0,0.0,0.0,0.0,0.0,0.0,0.0,0.0,0.0,0.0,0.0,0.0,0.0,0.0,0.0,0.0,0.0,0.0,0.0,0.0,0.0,0.0,0.0,0.0,0.0,0.0,0.0,0.0,0.0,0.0,0.0,0.0,0.0,0.0,0.0,0.0,0.0,0.0,0.0,0.0,0.0,0.0,0.0,0.0,0.0,0.0,0.0,0.0,0.0,0.0,0.0,0.0,0.0,0.0,0.0,0.0,0.0,0.0,0.0,0.0,0.0,0.0,0.0,0.0,0.0,0.0,0.0,0.0,-2.7704,-2.8998,-3.0627,-3.0183,-3.0938,-3.2836,-2.8186,-2.4968,-2.3849,0.0,0.0,0.0,0.0,0.0,0.0,0.0,0.0,0.0,0.0,0.0,0.0,0.0,0.0,0.0,0.0,0.0,0.0,0.0,0.0,0.0,0.0,0.0,0.0,0.0,0.0,0.0,0.0,0.0,0.0,0.0,0.0,0.0,0.0,0.0,0.0,0.0,0.0,0.0,0.0,0.0,0.0,0.0,0.0,0.0,0.0,0.0,0.0,0.0,0.0,0.0,0.0,0.0,0.0,0.0,0.0,0.0,0.0,0.0,0.0,0.0,0.0,0.0,0.0,0.0,0.0,0.0,0.0,0.0,0.0,0.0,0.0,0.0,0.0,0.0,0.0,0.0,0.0,0.0,0.0,0.0,0.0,0.0,0.0,0.0,0.0,0.0,0.0,0.0,0.0,0.0,0.0,0.0,0.0,0.0,0.0,0.0,0.0,0.0,0.0,0.0,0.0,0.0,0.0,0.0,0.0,-2.7437,-2.8488,-2.9678,-3.0345,-3.1164,-3.1736,-2.6627,-2.3015,0.0,0.0,0.0,0.0,0.0,0.0,0.0,0.0,0.0,0.0,0.0,0.0,0.0,0.0,0.0,0.0,0.0,0.0,0.0,0.0,0.0,0.0,0.0,0.0,0.0,0.0,0.0,0.0,0.0,0.0,0.0,0.0,0.0,0.0,0.0,0.0,0.0,0.0,0.0,0.0,0.0,0.0,0.0,0.0,0.0,0.0,0.0,0.0,0.0,0.0,0.0,0.0,0.0,0.0,0.0,0.0,0.0,0.0,0.0,0.0,0.0,0.0,0.0,0.0,0.0,0.0,0.0,0.0,0.0,0.0,0.0,0.0,0.0,0.0,0.0,0.0,0.0,0.0,0.0,0.0,0.0,0.0,0.0,0.0,0.0,0.0,0.0,0.0,0.0,0.0,0.0,0.0,0.0,0.0,0.0,0.0,0.0,0.0,0.0,0.0,0.0,0.0,0.0,0.0,0.0,0.0,0.0,-2.7231,-2.8986,-3.1672,-3.2845,-3.0998,-2.5819,-2.5827,-2.2216,0.0,0.0,0.0,0.0,0.0,0.0,0.0,0.0,0.0,0.0,0.0,0.0,0.0,0.0,0.0,0.0,0.0,0.0,0.0,0.0,0.0,0.0,0.0,0.0,0.0,0.0,0.0,0.0,0.0,0.0,0.0,0.0,0.0,0.0,0.0,0.0,0.0,0.0,0.0,0.0,0.0,0.0,0.0,0.0,0.0,0.0,0.0,0.0,0.0,0.0,0.0,0.0,0.0,0.0,0.0,0.0,0.0,0.0,0.0,0.0,0.0,0.0,0.0,0.0,0.0,0.0,0.0,0.0,0.0,0.0,0.0,0.0,0.0,0.0,0.0,0.0,0.0,0.0,0.0,0.0,0.0,0.0,0.0,0.0,0.0,0.0,0.0,0.0,0.0,0.0,0.0,0.0,0.0,0.0,0.0,0.0,0.0,0.0,0.0,0.0,0.0,0.0,0.0,0.0,0.0,0.0,0.0,-3.0662,-3.1673,-3.1649,-3.1303,-3.082,-2.9991,-2.344,-1.9646,-1.9135,0.0,0.0,0.0,0.0,0.0,0.0,0.0,0.0,0.0,0.0,0.0,0.0,0.0,0.0,0.0,0.0,0.0,0.0,0.0,0.0,0.0,0.0,0.0,0.0,0.0,0.0,0.0,0.0,0.0,0.0,0.0,0.0,0.0,0.0,0.0,0.0,0.0,0.0,0.0,0.0,0.0,0.0,0.0,0.0,0.0,0.0,0.0,0.0,0.0,0.0,0.0,0.0,0.0,0.0,0.0,0.0,0.0,0.0,0.0,0.0,0.0,0.0,0.0,0.0,0.0,0.0,0.0,0.0,0.0,0.0,0.0,0.0,0.0,0.0,0.0,0.0,0.0,0.0,0.0,0.0,0.0,0.0,0.0,0.0,0.0,0.0,0.0,0.0,0.0,0.0,0.0,0.0,0.0,0.0,0.0,0.0,0.0,0.0,0.0,0.0,0.0,0.0,0.0,0.0,0.0,0.0,-3.2943,-3.4071,-3.3569,-3.2724,-3.1555,-3.0004,-2.2668,-1.8573,-1.8146,0.0,0.0,0.0,0.0,0.0,0.0,0.0,0.0,0.0,0.0,0.0,0.0,0.0,0.0,0.0,0.0,0.0,0.0,0.0,0.0,0.0,0.0,0.0,0.0,0.0,0.0,0.0,0.0,0.0,0.0,0.0,0.0,0.0,0.0,0.0,0.0,0.0,0.0,0.0,0.0,0.0,0.0,0.0,0.0,0.0,0.0,0.0,0.0,0.0,0.0,0.0,0.0,0.0,0.0,0.0,0.0,0.0,0.0,0.0,0.0,0.0,0.0,0.0,0.0,0.0,0.0,0.0,0.0,0.0,0.0,0.0,0.0,0.0,0.0,0.0,0.0,0.0,0.0,0.0,0.0,0.0,0.0,0.0,0.0,0.0,0.0,0.0,0.0,0.0,0.0,0.0,0.0,0.0,0.0,0.0,0.0,0.0,0.0,0.0,0.0,0.0,0.0,0.0,0.0,0.0,0.0,0.0,-3.6244,-3.7056,-3.6535,-3.3093,-2.6682,-2.3271,-1.8776,-1.2969,0.0,0.0,0.0,0.0,0.0,0.0,0.0,0.0,0.0,0.0,0.0,0.0,0.0,0.0,0.0,0.0,0.0,0.0,0.0,0.0,0.0,0.0,0.0,0.0,0.0,0.0,0.0,0.0,0.0,0.0,0.0,0.0,0.0,0.0,0.0,0.0,0.0,0.0,0.0,0.0,0.0,0.0,0.0,0.0,0.0,0.0,0.0,0.0,0.0,0.0,0.0,0.0,0.0,0.0,0.0,0.0,0.0,0.0,0.0,0.0,0.0,0.0,0.0,0.0,0.0,0.0,0.0,0.0,0.0,0.0,0.0,0.0,0.0,0.0,0.0,0.0,0.0,0.0,0.0,0.0,0.0,0.0,0.0,0.0,0.0,0.0,0.0,0.0,0.0,0.0,0.0,0.0,0.0,0.0,0.0,0.0,0.0,0.0,0.0,0.0,0.0,0.0,0.0,0.0,0.0,0.0,-3.4938,-3.7212,-3.8892,-3.7627,-3.4579,-2.9686,-2.2931,-1.8299,-1.6106,0.0,0.0,0.0,0.0,0.0,0.0,0.0,0.0,0.0,0.0,0.0,0.0,0.0,0.0,0.0,0.0,0.0,0.0,0.0,0.0,0.0,0.0,0.0,0.0,0.0,0.0,0.0,0.0,0.0,0.0,0.0,0.0,0.0,0.0,0.0,0.0,0.0,0.0,0.0,0.0,0.0,0.0,0.0,0.0,0.0,0.0,0.0,0.0,0.0,0.0,0.0,0.0,0.0,0.0,0.0,0.0,0.0,0.0,0.0,0.0,0.0,0.0,0.0,0.0,0.0,0.0,0.0,0.0,0.0,0.0,0.0,0.0,0.0,0.0,0.0,0.0,0.0,0.0,0.0,0.0,0.0,0.0,0.0,0.0,0.0,0.0,0.0,0.0,0.0,0.0,0.0,0.0,0.0,0.0,0.0,0.0,0.0,0.0,0.0,0.0,0.0,0.0,0.0,0.0,0.0,0.0,-3.5444,-3.7828,-4.0423,-3.8142,-3.4868,-3.0621,-2.385,-1.8761,-1.5657,0.0,0.0,0.0,0.0,0.0,0.0,0.0,0.0,0.0,0.0,0.0,0.0,0.0,0.0,0.0,0.0,0.0,0.0,0.0,0.0,0.0,0.0,0.0,0.0,0.0,0.0,0.0,0.0,0.0,0.0,0.0,0.0,0.0,0.0,0.0,0.0,0.0,0.0,0.0,0.0,0.0,0.0,0.0,0.0,0.0,0.0,0.0,0.0,-2.9027,0.0,0.0,0.0,0.0,0.0,0.0,0.0,0.0,0.0,0.0,0.0,0.0,0.0,0.0,0.0,0.0,0.0,0.0,0.0,0.0,0.0,0.0,0.0,0.0,0.0,0.0,0.0,0.0,0.0,0.0,0.0,0.0,0.0,0.0,0.0,0.0,0.0,0.0,0.0,0.0,0.0,0.0,0.0,0.0,0.0,0.0,0.0,0.0,0.0,0.0,0.0,0.0,0.0,0.0,0.0,-2.9342,-3.4286,-3.6228,-3.843,-4.1351,-3.8366,-3.4553,-3.0088,-2.524,-1.97,-1.3607,0.0,0.0,0.0,0.0,0.0,0.0,0.0,0.0,0.0,0.0,0.0,0.0,0.0,0.0,0.0,0.0,0.0,0.0,0.0,0.0,0.0,0.0,0.0,0.0,0.0,0.0,0.0,0.0,0.0,0.0,0.0,0.0,0.0,0.0,0.0,0.0,0.0,0.0,0.0,0.0,0.0,0.0,0.0,0.0,0.0,0.0,0.0,-2.928,-2.9312,0.0,0.0,0.0,0.0,0.0,0.0,0.0,0.0,0.0,0.0,0.0,0.0,0.0,0.0,0.0,0.0,0.0,0.0,0.0,0.0,0.0,0.0,0.0,0.0,0.0,0.0,0.0,-2.7775,0.0,-2.81,0.0,0.0,0.0,0.0,0.0,0.0,0.0,0.0,0.0,0.0,0.0,0.0,0.0,0.0,0.0,0.0,0.0,0.0,0.0,0.0,0.0,0.0,0.0,0.0,-2.8283,-3.1614,-3.7489,-3.8943,-4.0043,-4.1095,-3.8706,-3.5082,-3.0256,-2.4663,-1.9482,-1.4873,0.0,0.0,0.0,0.0,0.0,0.0,0.0,0.0,0.0,0.0,0.0,0.0,0.0,0.0,0.0,0.0,0.0,0.0,0.0,0.0,0.0,0.0,0.0,0.0,0.0,0.0,0.0,0.0,0.0,0.0,0.0,0.0,0.0,0.0,0.0,0.0,0.0,0.0,0.0,0.0,0.0,0.0,0.0,0.0,0.0,0.0,0.0,-2.9445,0.0,0.0,0.0,0.0,0.0,0.0,0.0,0.0,0.0,0.0,0.0,0.0,0.0,0.0,0.0,0.0,0.0,0.0,0.0,0.0,0.0,0.0,0.0,0.0,0.0,0.0,0.0,0.0,-2.7354,-2.7569,-2.7504,0.0,0.0,0.0,0.0,0.0,0.0,0.0,0.0,0.0,0.0,0.0,0.0,0.0,0.0,0.0,0.0,0.0,0.0,0.0,0.0,0.0,0.0,0.0,-2.6845,-2.8853,-3.2547,-3.7806,-3.986,-4.1222,-4.2053,-3.9457,-3.5724,-3.0958,-2.5635,-2.0526,-1.5749,0.0,0.0,0.0,0.0,0.0,0.0,0.0,0.0,0.0,0.0,0.0,0.0,0.0,0.0,0.0,0.0,0.0,0.0,0.0,0.0,0.0,0.0,0.0,0.0,0.0,0.0,0.0,0.0,0.0,0.0,0.0,0.0,0.0,0.0,0.0,0.0,0.0,-2.3364,-2.3852,0.0,0.0,0.0,0.0,0.0,0.0,0.0,0.0,-2.8827,-2.8771,0.0,0.0,0.0,0.0,0.0,0.0,0.0,0.0,0.0,0.0,0.0,0.0,0.0,0.0,0.0,0.0,0.0,0.0,0.0,0.0,0.0,0.0,0.0,0.0,0.0,0.0,0.0,-2.6918,-2.6962,-2.7068,0.0,0.0,0.0,0.0,0.0,0.0,0.0,0.0,0.0,0.0,0.0,0.0,0.0,0.0,0.0,0.0,0.0,0.0,0.0,0.0,0.0,0.0,0.0,-2.5848,-2.8874,-3.2813,-3.752,-4.003,-4.191,-4.3164,-4.0235,-3.6491,-3.2029,-2.7021,-2.1908,-1.6722,0.0,0.0,0.0,0.0,0.0,0.0,0.0,0.0,0.0,0.0,0.0,0.0,0.0,0.0,0.0,0.0,0.0,0.0,0.0,0.0,0.0,0.0,0.0,0.0,0.0,0.0,0.0,0.0,0.0,0.0,0.0,0.0,0.0,0.0,0.0,0.0,0.0,-2.3055,-2.3827,-2.4934,-2.5685,0.0,0.0,0.0,0.0,0.0,0.0,0.0,-2.7466,-2.7327,-2.8283,0.0,0.0,0.0,0.0,0.0,0.0,0.0,0.0,0.0,0.0,0.0,0.0,0.0,0.0,0.0,0.0,0.0,0.0,0.0,0.0,0.0,0.0,0.0,0.0,0.0,-2.5714,-2.6162,-2.7165,0.0,0.0,0.0,0.0,0.0,0.0,0.0,0.0,0.0,0.0,0.0,0.0,0.0,0.0,0.0,0.0,0.0,0.0,0.0,0.0,0.0,0.0,0.0,0.0,-2.97,-3.3046,-3.9717,-4.0468,-4.1566,-4.3086,-4.0546,-3.7353,-3.346,-2.7469,-2.236,-1.8429,-1.5522,0.0,0.0,0.0,0.0,0.0,0.0,0.0,0.0,0.0,0.0,0.0,0.0,0.0,0.0,0.0,0.0,0.0,0.0,0.0,0.0,0.0,0.0,0.0,0.0,0.0,0.0,0.0,0.0,0.0,0.0,0.0,0.0,0.0,0.0,0.0,0.0,-2.3646,-2.5156,-2.5666,-2.569,-2.5352,0.0,0.0,0.0,0.0,0.0,-2.7042,-2.7101,-2.6982,-2.6904,-2.6785,0.0,0.0,0.0,0.0,0.0,0.0,0.0,0.0,0.0,0.0,0.0,0.0,0.0,0.0,0.0,0.0,0.0,0.0,0.0,0.0,0.0,0.0,0.0,0.0,-2.5258,-2.5339,-2.5825,-2.5936,-2.6149,0.0,0.0,0.0,0.0,-2.4991,0.0,0.0,0.0,0.0,0.0,0.0,0.0,0.0,0.0,0.0,0.0,0.0,0.0,0.0,0.0,0.0,0.0,-3.0365,-3.3897,-3.8747,-4.1252,-4.2593,-4.2976,-4.0971,-3.7964,-3.4053,-2.8388,-2.3463,-1.9553,0.0,0.0,0.0,0.0,0.0,0.0,0.0,0.0,0.0,0.0,0.0,0.0,0.0,0.0,0.0,0.0,0.0,0.0,0.0,0.0,0.0,0.0,0.0,0.0,0.0,0.0,0.0,0.0,0.0,0.0,0.0,0.0,0.0,0.0,0.0,0.0,0.0,0.0,-2.529,-2.5734,-2.5925,-2.5971,-2.5475,-2.4978,-2.4579,-2.4912,-2.5578,-2.6519,-2.6537,-2.6391,-2.6249,0.0,0.0,0.0,0.0,0.0,0.0,0.0,0.0,0.0,0.0,0.0,0.0,0.0,0.0,0.0,0.0,0.0,0.0,0.0,0.0,0.0,0.0,0.0,0.0,0.0,0.0,-2.4599,-2.458,-2.4962,-2.5245,-2.5384,0.0,0.0,0.0,-2.4933,-2.4746,0.0,0.0,0.0,0.0,0.0,0.0,0.0,0.0,0.0,0.0,0.0,0.0,0.0,0.0,0.0,0.0,-3.0243,-3.4008,-3.7368,-4.1083,-4.3066,-4.3034,-4.1406,-3.866,-3.4736,-2.965,-2.4876,-2.0571,0.0,0.0,0.0,0.0,0.0,0.0,0.0,0.0,0.0,0.0,0.0,0.0,0.0,0.0,0.0,0.0,0.0,0.0,0.0,0.0,0.0,0.0,0.0,0.0,0.0,0.0,0.0,0.0,0.0,0.0,0.0,0.0,0.0,0.0,0.0,0.0,0.0,0.0,0.0,-2.5475,-2.6009,-2.6034,-2.5749,-2.5311,-2.463,-2.4633,-2.5005,-2.5759,-2.5846,-2.575,0.0,0.0,0.0,0.0,0.0,0.0,0.0,0.0,0.0,0.0,0.0,0.0,0.0,0.0,0.0,0.0,0.0,0.0,0.0,0.0,0.0,0.0,-2.6955,-2.5301,0.0,0.0,-2.3948,-2.3992,-2.458,-2.4373,-2.4394,-2.4595,-2.4423,-2.4303,0.0,-2.4443,-2.4222,-2.3739,0.0,0.0,0.0,0.0,0.0,0.0,0.0,0.0,0.0,0.0,0.0,0.0,0.0,0.0,0.0,0.0,-3.1673,-3.6152,-3.8581,-4.093,-4.3198,-4.1744,-3.9377,-3.6285,-3.1348,-2.6439,-2.1704,0.0,0.0,0.0,0.0,0.0,0.0,0.0,0.0,0.0,0.0,0.0,0.0,0.0,0.0,0.0,0.0,0.0,0.0,0.0,0.0,0.0,0.0,0.0,0.0,0.0,-1.4955,0.0,0.0,0.0,0.0,0.0,0.0,0.0,0.0,0.0,0.0,0.0,0.0,0.0,0.0,-2.5782,-2.4012,-2.5123,-2.5542,-2.4049,-2.4447,-2.4747,-2.4198,-2.4898,-2.5148,0.0,0.0,0.0,0.0,0.0,0.0,0.0,0.0,0.0,0.0,0.0,0.0,0.0,0.0,0.0,0.0,0.0,0.0,0.0,0.0,0.0,0.0,-2.6883,-2.5694,-2.4919,-2.4414,-2.383,-2.3589,-2.3567,-2.3467,-2.3458,-2.3551,-2.3725,-2.3829,-2.3907,-2.4032,-2.3945,-2.3762,0.0,0.0,0.0,0.0,0.0,0.0,0.0,0.0,0.0,0.0,0.0,0.0,-2.0166,-2.2282,-2.5673,-2.8905,-3.2326,-3.5981,-3.9103,-4.1274,-4.2412,-4.1462,-3.9461,-3.6506,-3.2103,-2.7567,0.0,0.0,0.0,0.0,0.0,0.0,0.0,0.0,0.0,0.0,0.0,0.0,0.0,0.0,0.0,0.0,0.0,0.0,0.0,0.0,0.0,0.0,0.0,0.0,0.0,-1.5803,-1.5623,-1.5459,0.0,0.0,0.0,0.0,0.0,0.0,0.0,0.0,0.0,0.0,0.0,0.0,0.0,-2.6063,-2.6003,-2.6194,-2.6096,-2.5524,-2.4897,-2.4504,-2.4741,-2.4613,-2.4342,0.0,0.0,0.0,0.0,0.0,0.0,0.0,0.0,0.0,0.0,0.0,0.0,0.0,0.0,0.0,0.0,0.0,0.0,-2.9394,-2.9305,-2.8201,-2.731,-2.659,-2.5753,-2.4815,-2.3801,-2.3561,-2.3004,-2.2335,-2.2559,-2.2549,-2.2439,-2.2834,-2.3105,-2.3255,-2.3314,-2.3339,-2.336,-2.321,0.0,0.0,0.0,0.0,0.0,0.0,0.0,0.0,0.0,0.0,-1.8874,-1.9666,-2.1707,-2.5064,-2.9031,-3.2396,-3.5021,-3.8994,-4.1028,-4.1113,-4.0673,-3.9225,-3.6617,-3.2793,-2.8531,0.0,0.0,0.0,0.0,0.0,0.0,0.0,0.0,0.0,0.0,0.0,0.0,0.0,0.0,0.0,0.0,0.0,0.0,0.0,0.0,0.0,0.0,0.0,-1.7972,-1.6489,-1.6324,-1.6215,-1.5792,-1.5648,0.0,-1.6571,0.0,0.0,0.0,0.0,0.0,0.0,0.0,0.0,0.0,0.0,-2.5964,-2.6856,-2.6776,-2.6575,-2.6415,-2.5111,-2.4277,-2.4805,-2.4337,-2.369,0.0,0.0,0.0,0.0,0.0,0.0,0.0,0.0,0.0,0.0,0.0,0.0,0.0,0.0,0.0,0.0,0.0,0.0,-2.8578,-2.8442,-2.7248,-2.6444,-2.5975,-2.4671,-2.3618,-2.2787,-2.2742,-2.2192,-2.1343,-2.1761,-2.1683,-2.125,-2.1502,-2.1659,-2.1791,-2.197,-2.1994,-2.1925,-2.2279,0.0,0.0,0.0,0.0,0.0,0.0,0.0,0.0,0.0,0.0,-1.7763,-1.903,-2.0658,-2.264,-2.71,-3.0397,-3.2544,-3.6625,-3.9029,-3.9517,-3.942,-3.8596,-3.7035,-3.3484,-2.9487,0.0,0.0,0.0,0.0,0.0,0.0,0.0,0.0,0.0,0.0,0.0,0.0,0.0,0.0,0.0,0.0,0.0,0.0,0.0,0.0,0.0,0.0,0.0,0.0,-1.6514,-1.6475,-1.6053,-1.4641,-1.5105,-1.5467,-1.5351,0.0,0.0,0.0,0.0,0.0,0.0,0.0,0.0,0.0,0.0,-2.4993,-2.4347,-2.5926,-2.6746,-2.5588,-2.475,-2.403,-2.3365,-2.3754,-2.3526,-2.19,-2.2244,-2.2635,0.0,0.0,0.0,0.0,0.0,0.0,0.0,0.0,0.0,0.0,0.0,0.0,0.0,0.0,0.0,-2.8058,-2.7827,-2.6925,-2.624,-2.5685,-2.4603,-2.3532,-2.2635,-2.2238,-2.1593,-2.0864,-2.1124,-2.1074,-2.07,-2.0955,-2.1115,-2.1201,-2.1564,-2.1864,-2.2313,-2.3649,0.0,0.0,0.0,0.0,0.0,0.0,0.0,0.0,0.0,0.0,-1.7294,-1.7995,-1.949,-2.1907,-2.562,-2.8814,-3.1308,-3.4799,-3.6787,-3.7288,-3.7365,-3.6831,-3.5652,-3.3159,-2.9865,-2.5815,0.0,0.0,0.0,0.0,0.0,0.0,0.0,0.0,0.0,0.0,0.0,0.0,0.0,0.0,0.0,0.0,0.0,0.0,0.0,0.0,0.0,0.0,0.0,0.0,-1.7206,-1.6957,-1.5974,-1.5941,-1.5808,-1.5298,-1.5792,0.0,0.0,0.0,0.0,0.0,0.0,0.0,-2.1211,0.0,-2.4736,-2.5462,-2.6221,-2.6398,-2.5765,-2.5191,-2.4537,-2.376,-2.3311,-2.2857,-2.2391,-2.1858,-2.1695,-2.2317,0.0,0.0,0.0,0.0,0.0,0.0,0.0,0.0,0.0,0.0,0.0,0.0,0.0,0.0,-2.7499,-2.6981,-2.6616,-2.6143,-2.5574,-2.4768,-2.3736,-2.2595,-2.1991,-2.1207,-2.0353,-2.0434,-2.0335,-2.0042,-2.0369,-2.0599,-2.0676,-2.1074,-2.1815,-2.2986,-2.4898,-2.5515,0.0,0.0,0.0,0.0,0.0,0.0,0.0,0.0,0.0,-1.6614,-1.6981,-1.8303,-2.0594,-2.4066,-2.6982,-2.9352,-3.2629,-3.4428,-3.4648,-3.5099,-3.492,-3.3993,-3.2247,-2.9761,-2.6335,0.0,0.0,0.0,0.0,-1.4946,0.0,0.0,0.0,0.0,0.0,0.0,0.0,0.0,0.0,0.0,0.0,0.0,0.0,0.0,0.0,0.0,0.0,0.0,0.0,0.0,-1.7581,-1.6783,-1.6196,-1.5661,-1.5108,-1.5269,-1.5752,-1.6636,0.0,0.0,0.0,0.0,0.0,0.0,-2.29,-2.4323,-2.5697,-2.6076,-2.6071,-2.5693,-2.5271,-2.4699,-2.3889,-2.3386,-2.2958,-2.2587,-2.1943,-2.1655,-2.235,-2.268,-2.3067,-2.3652,-2.4668,-2.5492,-2.5523,0.0,0.0,0.0,0.0,0.0,0.0,0.0,0.0,-2.6909,-2.6076,-2.6302,-2.6076,-2.5529,-2.5095,-2.4063,-2.2754,-2.2156,-2.1154,-1.9658,-1.9701,-1.9514,-1.9193,-1.9588,-1.9865,-2.0072,-2.0274,-2.1607,-2.3771,-2.5662,-2.6476,-2.6214,-2.6349,-2.5373,-2.3371,-2.1289,-1.9126,-1.7083,-1.6658,-1.6247,-1.5615,-1.6096,-1.7096,-1.852,-2.2306,-2.4872,-2.6121,-3.01,-3.1987,-3.1665,-3.2679,-3.2903,-3.2196,-3.0806,-2.8917,-2.6539,0.0,0.0,0.0,0.0,-1.5213,0.0,0.0,0.0,0.0,0.0,0.0,0.0,0.0,0.0,0.0,0.0,0.0,0.0,0.0,0.0,0.0,0.0,0.0,0.0,0.0,-1.7698,-1.6503,-1.5522,-1.4811,-1.4488,-1.4929,-1.5167,0.0,0.0,0.0,0.0,0.0,-1.9133,-2.0394,-2.2264,-2.3683,-2.4216,-2.5246,-2.5752,-2.5183,-2.4927,-2.4447,-2.3425,-2.4038,-2.4099,-2.2345,-2.2607,0.0,0.0,0.0,0.0,0.0,0.0,0.0,0.0,0.0,0.0,0.0,0.0,0.0,0.0,0.0,0.0,-2.7104,-2.6344,-2.6432,-2.6387,-2.6145,-2.5313,-2.4935,-2.4787,-2.3639,-2.2388,-2.128,-2.0863,-2.0171,-1.9205,-1.9147,-1.9515,-2.0142,-2.1212,-2.303,-2.5351,-2.6798,-2.7643,-2.7985,-2.8036,-2.7227,-2.5645,-2.3927,-2.1364,-1.8307,-1.834,-1.7394,-1.5567,-1.6,-1.6778,-1.769,-2.0937,-2.3338,-2.484,-2.7654,-2.9262,-2.9476,-2.9684,-2.9859,-2.9977,-2.8824,-2.6971,-2.4296,-2.1314,0.0,0.0,-1.6168,-1.5702,0.0,0.0,0.0,0.0,0.0,0.0,0.0,0.0,0.0,0.0,0.0,0.0,0.0,0.0,0.0,0.0,0.0,0.0,0.0,0.0,-1.6365,-1.56,-1.5474,-1.5206,-1.4658,-1.4996,-1.5301,-1.5463,-1.6461,-1.7216,-1.7452,-1.8653,-1.9986,-2.1277,-2.2459,-2.3447,-2.4149,-2.4613,-2.4806,-2.4529,-2.4639,-2.4578,-2.4184,-2.3798,-2.3501,-2.3454,-2.2849,-2.2614,-2.3251,-2.4153,-2.4796,-2.4793,-2.5667,-2.61,-2.5422,-2.5817,-2.6326,-2.6575,-2.6869,-2.6874,-2.6159,-2.5987,-2.5921,-2.7543,-2.6669,-2.6866,-2.6927,-2.6826,-2.6289,-2.611,-2.5991,-2.484,-2.383,-2.293,-2.2221,-2.1257,-2.0273,-2.0216,-2.048,-2.1129,-2.2681,-2.4526,-2.642,-2.7588,-2.8449,-2.903,-2.8859,-2.8149,-2.711,-2.6181,-2.3983,-2.0805,-1.9998,-1.8471,-1.6142,-1.643,-1.7025,-1.7916,-2.0379,-2.2452,-2.397,-2.6011,-2.7152,-2.726,-2.7279,-2.7434,-2.7653,-2.7073,-2.5598,-2.3237,-2.1926,-2.0461,0.0,-1.7116,0.0,0.0,0.0,0.0,0.0,0.0,0.0,0.0,0.0,0.0,0.0,0.0,0.0,0.0,0.0,0.0,0.0,0.0,0.0,0.0,-1.5718,-1.5429,-1.5262,-1.5405,-1.5379,-1.4929,-1.549,-1.5979,-1.623,-1.7366,-1.8102,-1.7918,-1.9156,-2.0457,-2.1572,-2.2315,-2.2994,-2.3677,-2.4018,-2.4204,-2.4171,-2.4468,-2.4639,-2.4453,-2.4119,-2.394,-2.4125,-2.3717,-2.3642,-2.4554,-2.5524,-2.6146,-2.5998,-2.6593,-2.6811,-2.5934,-2.6331,-2.6922,-2.7111,-2.748,-2.754,-2.6821,-2.6698,-2.6647,-2.822,-2.6945,-2.7538,-2.7668,-2.7498,-2.7844,-2.7332,-2.6389,-2.5873,-2.5369,-2.4651,-2.3634,-2.2778,-2.2255,-2.2345,-2.2532,-2.2876,-2.4515,-2.59,-2.6955,-2.7958,-2.8801,-2.9257,-2.8634,-2.8092,-2.7687,-2.7712,-2.6499,-2.4071,-2.1588,-1.9399,-1.7632,-1.7441,-1.7831,-1.8921,-2.0587,-2.2113,-2.357,-2.5161,-2.5654,-2.5066,-2.5481,-2.5567,-2.5359,-2.5538,-2.4908,-2.3441,-2.2882,-2.1656,-1.9583,-1.7911,0.0,0.0,0.0,0.0,0.0,0.0,0.0,0.0,0.0,0.0,0.0,0.0,0.0,0.0,0.0,0.0,0.0,0.0,0.0,-1.4624,-1.4763,-1.496,-1.5318,-1.5351,-1.5351,-1.5355,-1.6277,-1.6991,-1.703,-1.8575,-1.9431,-1.889,-1.9694,-2.0548,-2.1322,-2.1904,-2.238,-2.2639,-2.3403,-2.3962,-2.4018,-2.4394,-2.4521,-2.4177,-2.4943,-2.5268,-2.4278,-2.4991,-2.5761,-2.6046,-2.643,-2.6857,-2.7285,-2.7158,-2.6883,-2.6757,-2.7334,-2.7926,-2.8037,-2.8589,-2.8789,-2.8239,-2.8153,-2.8082,-2.944,-2.8013,-2.8239,-2.8446,-2.8634,-2.8235,-2.8709,-2.9732,-2.8748,-2.7751,-2.6844,-2.6025,-2.4569,-2.2868,-2.2684,-2.312,-2.3888,-2.4509,-2.559,-2.7135,-2.751,-2.7939,-2.8462,-2.8183,-2.7773,-2.7239,-2.6739,-2.6081,-2.5304,-2.398,-2.1706,-1.8504,-1.8965,-1.9005,-1.8806,-2.0786,-2.2217,-2.2888,-2.4207,-2.482,-2.4582,-2.4307,-2.3946,-2.3479,-2.3989,-2.392,-2.3217,-2.3096,-2.2476,-2.1135,-1.8974,0.0,-1.6424,0.0,0.0,0.0,0.0,-1.3591,-1.3734,-1.3359,0.0,0.0,0.0,-1.1949,0.0,0.0,0.0,0.0,-1.2301,-1.2457,-1.2716,-1.4068,-1.4866,-1.4696,-1.5538,-1.6134,-1.6351,-1.684,-1.7384,-1.7895,-1.8656,-1.937,-1.9768,-2.0796,-2.1441,-2.1315,-2.1923,-2.2233,-2.1808,-2.2334,-2.2793,-2.2985,-2.3339,-2.3673,-2.4066,-2.4363,-2.4558,-2.4519,-2.5013,-2.5471,-2.5715,-2.6535,-2.7243,-2.7307,-2.7806,-2.8168,-2.8199,-2.8318,-2.8599,-2.9032,-2.9844,-3.0125,-2.9211,-2.9413,-2.9655,-3.0071,-2.9038,-2.899,-2.9137,-2.9397,-2.9223,-2.9744,-3.081,-3.0209,-2.9568,-2.8938,-2.8201,-2.6846,-2.4966,-2.4137,-2.4222,-2.4957,-2.5061,-2.5737,-2.6959,-2.69,-2.6957,-2.7277,-2.7246,-2.6994,-2.6603,-2.6036,-2.5743,-2.5644,-2.4898,-2.3272,-2.0739,-2.1133,-2.1091,-2.0571,-2.1851,-2.2709,-2.3121,-2.3821,-2.394,-2.3447,-2.3077,-2.2723,-2.2316,-2.3073,-2.3341,-2.285,-2.3046,-2.2783,-2.1887,-1.9556,-1.776,0.0,-1.4745,-1.3357,-1.2773,-1.2394,-1.2192,-1.2197,-1.2212,0.0,0.0,-1.1226,-1.0969,-1.1051,0.0,0.0,-1.1159,-1.146,-1.1876,-1.241,-1.3689,-1.4635,-1.488,-1.5922,-1.683,-1.7424,-1.7972,-1.8545,-1.912,-1.9523,-1.9926,-2.0442,-2.1392,-2.1961,-2.1783,-2.2094,-2.222,-2.1799,-2.2066,-2.2359,-2.258,-2.295,-2.3424,-2.4076,-2.4328,-2.4669,-2.5317,-2.5657,-2.6027,-2.6417,-2.7228,-2.7837,-2.7958,-2.8222,-2.869,-2.9401,-2.9292,-2.9187,-2.9636,-3.0418,-3.0779,-3.0194,-3.0576,-3.0979,-3.0111,-2.9871,-2.9716,-2.9687,-2.9851,-3.051,-3.0563,-3.0296,-3.0587,-3.081,-3.0727,-3.0031,-2.9108,-2.79,-2.6209,-2.5645,-2.5929,-2.5974,-2.6174,-2.6571,-2.6266,-2.605,-2.5939,-2.5923,-2.5839,-2.5741,-2.5509,-2.5341,-2.5321,-2.4775,-2.4216,-2.3687,-2.3611,-2.3648,-2.3687,-2.343,-2.3498,-2.3976,-2.3838,-2.3196,-2.2105,-2.2004,-2.1856,-2.161,-2.2559,-2.2821,-2.2359,-2.2595,-2.2499,-2.1851,-1.9689,-1.7916,-1.678,-1.4887,-1.3358,-1.2395,-1.1701,-1.1101,-1.0653,-1.157,-1.1734,-1.0916,-1.0371,-1.0194,-1.0242,-0.9881,-0.9969,-1.0743,-1.1477,-1.234,-1.3255,-1.3719,-1.4456,-1.567,-1.6497,-1.7372,-1.8425,-1.9272,-1.9987,-2.0409,-2.0659,-2.0875,-2.0938,-2.1612,-2.2164,-2.2391,-2.2394,-2.2309,-2.2252,-2.229,-2.2432,-2.2537,-2.3005,-2.3539,-2.4015,-2.4538,-2.5217,-2.6206,-2.6709,-2.6986,-2.7615,-2.8168,-2.8604,-2.8756,-2.85,-2.8705,-3.0377,-3.044,-3.0252,-3.0484,-3.0933,-3.1325,-3.1597,-3.2011,-3.2486,-2.9449,-2.9435,-2.9428,-2.9862,-3.0633,-3.0502,-3.0745,-3.1102,-3.123,-3.1093,-3.0828,-3.0112,-2.8877,-2.7282,-2.6359,-2.5977,-2.6061,-2.6083,-2.6122,-2.6189,-2.6128,-2.5797,-2.526,-2.5243,-2.4912,-2.4371,-2.4281,-2.4551,-2.5003,-2.4906,-2.4947,-2.5235,-2.5241,-2.4561,-2.3276,-2.363,-2.3912,-2.4053,-2.4148,-2.3705,-2.2698,-2.2042,-2.156,-2.1296,-2.1218,-2.1336,-2.1621,-2.1637,-2.1454,-2.1021,-1.98,-1.8508,-1.7225,-1.5229,-1.3669,-1.2658,-1.1825,-1.1212,-1.0758,-1.0895,-1.0942,-1.0744,-1.0686,-1.057,-1.0432,-1.0187,-1.0229,-1.0717,-1.2168,-1.3231,-1.3654,-1.4767,-1.5788,-1.6534,-1.7165,-1.7937,-1.8999,-1.9374,-1.9751,-2.0204,-2.0331,-2.0602,-2.126,-2.169,-2.2158,-2.2625,-2.268,-2.244,-2.1756,-2.2095,-2.2391,-2.2349,-2.2684,-2.2939,-2.3326,-2.3956,-2.4983,-2.6329,-2.6599,-2.6881,-2.7721,-2.8441,-2.8872,-2.8762,-2.8701,-2.9357,-3.1056,-3.2959,-3.4048,-3.3608,-3.3297,-3.3326,-3.3727,-3.4517,-3.5068,-2.8861,-2.8997,-2.908,-2.9665,-3.0673,-3.0478,-3.0685,-3.1202,-3.1313,-3.1093,-3.0591,-2.9687,-2.8672,-2.7497,-2.6845,-2.6477,-2.6327,-2.6022,-2.59,-2.59,-2.59,-2.5666,-2.5241,-2.5194,-2.4928,-2.4563,-2.4284,-2.4496,-2.5043,-2.4681,-2.4907,-2.5757,-2.5375,-2.4755,-2.4018,-2.4227,-2.4349,-2.4349,-2.3861,-2.3408,-2.2978,-2.2062,-2.1459,-2.1292,-2.1105,-2.0987,-2.1021,-2.1083,-2.0813,-2.0289,-1.9234,-1.8163,-1.6984,-1.5288,-1.3933,-1.2968,-1.2361,-1.1806,-1.1341,-1.167,-1.1814,-1.159,-1.1109,-1.0942,-1.1131,-1.0963,-1.1155,-1.1828,-1.3025,-1.3995,-1.4634,-1.555,-1.6401,-1.7034,-1.7505,-1.8222,-1.9339,-1.9557,-1.9939,-2.0643,-2.0721,-2.1051,-2.1816,-2.217,-2.2449,-2.2874,-2.3075,-2.2914,-2.2248,-2.2593,-2.2878,-2.2677,-2.3189,-2.3716,-2.3887,-2.4674,-2.5574,-2.6438,-2.7031,-2.7614,-2.8316,-2.8969,-2.9424,-2.9459,-2.9505,-3.0259,-3.2479,-3.441,-3.5805,-3.6277,-3.6057,-3.5812,-3.5652,-3.6167,-3.667,-2.8302,-2.8624,-2.8692,-2.9345,-3.0241,-3.0316,-3.049,-3.0879,-3.1065,-3.0747,-2.9996,-2.901,-2.8331,-2.786,-2.7244,-2.6829,-2.6449,-2.5855,-2.5549,-2.5549,-2.5501,-2.5473,-2.5473,-2.5386,-2.5307,-2.5292,-2.4704,-2.476,-2.5331,-2.4569,-2.4682,-2.5726,-2.5018,-2.4847,-2.5221,-2.4907,-2.4713,-2.4642,-2.3453,-2.2957,-2.3133,-2.2165,-2.1543,-2.1448,-2.1342,-2.108,-2.062,-2.0556,-2.0264,-1.9573,-1.8565,-1.7535,-1.6498,-1.5384,-1.431,-1.3417,-1.3099,-1.2692,-1.2139,-1.2951,-1.3307,-1.2885,-1.1899,-1.1543,-1.2081,-1.2059,-1.2473,-1.353,-1.4122,-1.4875,-1.5914,-1.6328,-1.68,-1.7406,-1.7737,-1.8356,-1.9428,-1.9745,-2.0262,-2.1298,-2.138,-2.1708,-2.2527,-2.2798,-2.2959,-2.3306,-2.3604,-2.3633,-2.331,-2.3428,-2.3571,-2.3341,-2.4198,-2.476,-2.5136,-2.5887,-2.6532,-2.6854,-2.7797,-2.8712,-2.9251,-2.9978,-3.0521,-3.0658,-3.0935,-3.1925,-3.426,-3.5475,-3.6741,-3.8158,-3.8482,-3.8321,-3.7558,-3.7571,-3.8129,-2.7967,-2.8253,-2.8332,-2.8793,-2.9504,-2.9809,-3.0148,-3.0473,-3.0216,-2.9492,-2.8526,-2.8068,-2.7518,-2.6871,-2.6488,-2.6088,-2.5794,-2.5672,-2.5488,-2.5165,-2.5121,-2.5098,-2.5076,-2.5002,-2.4992,-2.4877,-2.4791,-2.4902,-2.5232,-2.5436,-2.5604,-2.5748,-2.5866,-2.5813,-2.5586,-2.5261,-2.4858,-2.4361,-2.3894,-2.3678,-2.3523,-2.2626,-2.1996,-2.1628,-2.0473,-2.0086,-2.0555,-1.9728,-1.9085,-1.8764,-1.8649,-1.7921,-1.6335,-1.6043,-1.5392,-1.4316,-1.3818,-1.3444,-1.3007,-1.3193,-1.3505,-1.3955,-1.3625,-1.3262,-1.294,-1.364,-1.4316,-1.4824,-1.5904,-1.6765,-1.7223,-1.7705,-1.7928,-1.7747,-1.8218,-1.8725,-1.9231,-1.9517,-2.0104,-2.1239,-2.139,-2.1887,-2.3113,-2.3362,-2.3577,-2.4089,-2.4255,-2.4464,-2.486,-2.4223,-2.3861,-2.408,-2.4828,-2.5192,-2.5418,-2.6171,-2.7135,-2.7734,-2.8736,-2.9697,-3.0426,-3.1656,-3.2374,-3.2136,-3.3056,-3.4154,-3.5406,-3.7419,-3.8851,-3.8856,-3.9817,-4.0381,-3.9517,-3.9626,-3.9965,-2.7555,-2.7909,-2.7745,-2.8126,-2.8826,-2.8787,-2.8878,-2.909,-2.9416,-2.8828,-2.7604,-2.7108,-2.6678,-2.6327,-2.6022,-2.5778,-2.561,-2.5426,-2.5242,-2.5087,-2.5222,-2.5261,-2.5241,-2.5175,-2.5162,-2.5104,-2.5086,-2.5255,-2.5534,-2.5726,-2.5895,-2.6018,-2.6018,-2.5929,-2.5697,-2.5238,-2.477,-2.4355,-2.3947,-2.3697,-2.3592,-2.2608,-2.2027,-2.1905,-2.0773,-2.0302,-2.0705,-1.9674,-1.8941,-1.8617,-1.8178,-1.7351,-1.6211,-1.5947,-1.5502,-1.4807,-1.4677,-1.4534,-1.4364,-1.4617,-1.4903,-1.527,-1.5363,-1.4958,-1.3976,-1.4737,-1.5498,-1.5992,-1.6861,-1.7592,-1.7983,-1.8257,-1.8344,-1.811,-1.8209,-1.8615,-1.932,-1.9344,-1.9904,-2.1472,-2.1676,-2.2127,-2.3647,-2.3745,-2.399,-2.4716,-2.4684,-2.4904,-2.5631,-2.5252,-2.5134,-2.6242,-2.6756,-2.7025,-2.7183,-2.7964,-2.8625,-2.9236,-3.0218,-3.118,-3.1776,-3.2886,-3.3563,-3.3303,-3.4262,-3.5604,-3.6932,-3.8546,-3.9919,-4.0655,-4.1613,-4.2242,-4.1915,-4.191,-4.2125,-2.7153,-2.75,-2.728,-2.7627,-2.8256,-2.7851,-2.7635,-2.752,-2.8482,-2.8232,-2.707,-2.6444,-2.6205,-2.6128,-2.5839,-2.5672,-2.5672,-2.541,-2.5288,-2.5272,-2.5337,-2.5397,-2.5407,-2.5232,-2.5162,-2.5218,-2.5287,-2.553,-2.5905,-2.5957,-2.6109,-2.6341,-2.6093,-2.586,-2.5679,-2.5183,-2.4743,-2.449,-2.3878,-2.3568,-2.3552,-2.2565,-2.2085,-2.2164,-2.1331,-2.0876,-2.0871,-1.9842,-1.9141,-1.8723,-1.7673,-1.6831,-1.6236,-1.5879,-1.5545,-1.5314,-1.5582,-1.571,-1.5643,-1.6091,-1.6383,-1.6354,-1.6662,-1.6385,-1.5153,-1.5868,-1.6527,-1.6917,-1.7463,-1.8035,-1.8468,-1.8459,-1.8414,-1.8425,-1.8254,-1.8676,-1.9698,-1.9478,-2.0032,-2.1905,-2.2153,-2.2586,-2.4045,-2.4367,-2.4549,-2.5245,-2.5319,-2.5422,-2.6263,-2.6388,-2.6773,-2.8048,-2.8511,-2.8917,-2.9098,-2.9971,-3.0758,-3.0609,-3.2001,-3.3206,-3.3617,-3.4331,-3.4758,-3.4722,-3.5603,-3.6986,-3.8399,-3.9556,-4.0687,-4.2346,-4.3278,-4.3865,-4.4003,-4.4009,-4.41,-2.6626,-2.7273,-2.7197,-2.7632,-2.8246,-2.7883,-2.721,-2.6479,-2.709,-2.7103,-2.6655,-2.6587,-2.651,-2.651,-2.6205,-2.6022,-2.6022,-2.6006,-2.5945,-2.5912,-2.5314,-2.5076,-2.5027,-2.439,-2.4284,-2.4541,-2.4811,-2.5247,-2.5791,-2.643,-2.6715,-2.6675,-2.6882,-2.6516,-2.5769,-2.5331,-2.5022,-2.4832,-2.4234,-2.3912,-2.3901,-2.2976,-2.2349,-2.2081,-2.1227,-2.0723,-2.0614,-1.9837,-1.9231,-1.8893,-1.8023,-1.7279,-1.6754,-1.6574,-1.6417,-1.6188,-1.6363,-1.6441,-1.6188,-1.6506,-1.6658,-1.6645,-1.6978,-1.6968,-1.6592,-1.7507,-1.7948,-1.7606,-1.8218,-1.8632,-1.8549,-1.8459,-1.8466,-1.8505,-1.8998,-1.9499,-1.994,-2.0216,-2.0996,-2.2579,-2.2982,-2.345,-2.4549,-2.5487,-2.6082,-2.6345,-2.6479,-2.6608,-2.7262,-2.758,-2.7937,-2.8399,-2.8892,-2.9328,-2.9882,-3.0986,-3.1861,-3.205,-3.4042,-3.5452,-3.5555,-3.6667,-3.7367,-3.7277,-3.8028,-3.9015,-3.982,-4.1005,-4.1899,-4.2651,-4.3776,-4.4725,-4.4694,-4.5222,-4.5599,-2.6269,-2.6661,-2.6811,-2.7007,-2.7064,-2.6713,-2.6197,-2.5668,-2.5899,-2.5941,-2.5778,-2.5778,-2.5785,-2.5726,-2.5545,-2.549,-2.5489,-2.531,-2.525,-2.5201,-2.4711,-2.4482,-2.4433,-2.4055,-2.3977,-2.4178,-2.4494,-2.4691,-2.4839,-2.5673,-2.594,-2.574,-2.6295,-2.6371,-2.5916,-2.5789,-2.5602,-2.5332,-2.426,-2.3847,-2.3964,-2.2899,-2.226,-2.2103,-2.1235,-2.0716,-2.0638,-1.9695,-1.9181,-1.9205,-1.8171,-1.7503,-1.7252,-1.6924,-1.6567,-1.6308,-1.6408,-1.6358,-1.6083,-1.6496,-1.6951,-1.7371,-1.7752,-1.7838,-1.7728,-1.8072,-1.8164,-1.7922,-1.8495,-1.8836,-1.8737,-1.8921,-1.9147,-1.9324,-1.9654,-2.01,-2.0733,-2.0996,-2.1682,-2.299,-2.3523,-2.4079,-2.4907,-2.5841,-2.664,-2.6955,-2.7745,-2.8604,-2.9117,-2.9543,-2.9732,-2.9653,-3.0492,-3.1209,-3.1376,-3.2572,-3.3517,-3.3831,-3.527,-3.6414,-3.6786,-3.7858,-3.8444,-3.8736,-3.9377,-4.0254,-4.1154,-4.1868,-4.2531,-4.3345,-4.4027,-4.4803,-4.5208,-4.586,-4.6177,-2.5775,-2.6019,-2.6228,-2.611,-2.5742,-2.5549,-2.5265,-2.4885,-2.4931,-2.4944,-2.4897,-2.5024,-2.5128,-2.5129,-2.5032,-2.5093,-2.5084,-2.4792,-2.4643,-2.461,-2.4169,-2.4064,-2.4073,-2.3917,-2.3865,-2.401,-2.4398,-2.4471,-2.4384,-2.5128,-2.5341,-2.5162,-2.5734,-2.6026,-2.6063,-2.6008,-2.5898,-2.5624,-2.4462,-2.3934,-2.4114,-2.2803,-2.2111,-2.2154,-2.1437,-2.0884,-2.0658,-1.9794,-1.943,-1.9497,-1.8507,-1.7913,-1.7964,-1.7411,-1.7001,-1.6802,-1.6696,-1.6607,-1.6392,-1.673,-1.7288,-1.8003,-1.8415,-1.8574,-1.8562,-1.8573,-1.8459,-1.8544,-1.8988,-1.9212,-1.9259,-1.9641,-1.997,-2.0189,-2.0366,-2.0875,-2.1711,-2.1938,-2.2426,-2.3632,-2.4241,-2.48,-2.5441,-2.6326,-2.7228,-2.8054,-2.9207,-3.0272,-3.0712,-3.1135,-3.1249,-3.1229,-3.204,-3.2749,-3.2879,-3.3929,-3.4873,-3.5321,-3.6309,-3.7181,-3.7774,-3.8432,-3.9159,-3.9769,-4.0166,-4.0958,-4.2201,-4.2413,-4.2736,-4.3539,-4.4174,-4.4776,-4.5701,-4.6025,-4.635,-2.4757,-2.5524,-2.5375,-2.503,-2.4805,-2.5014,-2.4797,-2.4311,-2.4506,-2.4452,-2.4261,-2.4817,-2.5194,-2.5452,-2.5173,-2.5174,-2.5407,-2.5142,-2.4919,-2.4811,-2.4268,-2.4146,-2.4285,-2.3804,-2.3809,-2.4306,-2.4664,-2.4895,-2.5088,-2.5479,-2.5789,-2.5952,-2.5844,-2.5844,-2.6008,-2.5844,-2.5734,-2.5679,-2.5017,-2.4704,-2.4637,-2.3027,-2.2216,-2.2577,-2.192,-2.1234,-2.0788,-2.0669,-2.0475,-2.0073,-1.9294,-1.8876,-1.9055,-1.8527,-1.8213,-1.816,-1.7964,-1.7845,-1.7804,-1.7626,-1.7753,-1.8318,-1.8672,-1.8851,-1.8848,-1.9334,-1.964,-1.9682,-1.9969,-2.0101,-2.0119,-2.0317,-2.0518,-2.0596,-2.132,-2.2047,-2.245,-2.3067,-2.3845,-2.4669,-2.5334,-2.6004,-2.6367,-2.7622,-2.8877,-2.9347,-3.0003,-3.0601,-3.0856,-3.1537,-3.2217,-3.2225,-3.2568,-3.3019,-3.3646,-3.4662,-3.5569,-3.6184,-3.7362,-3.8165,-3.871,-3.9516,-4.0492,-4.0551,-4.1039,-4.1498,-4.2109,-4.2459,-4.2583,-4.329,-4.3981,-4.4772,-4.6052,-4.6204,-4.6065,-2.4916,-2.5292,-2.5182,-2.492,-2.4604,-2.458,-2.4361,-2.4141,-2.4014,-2.3901,-2.3747,-2.3714,-2.4014,-2.4596,-2.4274,-2.4214,-2.4293,-2.3802,-2.355,-2.355,-2.3121,-2.2944,-2.3042,-2.3198,-2.336,-2.3585,-2.4069,-2.4305,-2.4305,-2.453,-2.4894,-2.5293,-2.5569,-2.5844,-2.6063,-2.619,-2.6245,-2.619,-2.5459,-2.5141,-2.513,-2.3755,-2.2855,-2.2788,-2.22,-2.1795,-2.1517,-2.1388,-2.1113,-2.0728,-2.0184,-1.9805,-1.9546,-1.8945,-1.8579,-1.8408,-1.7981,-1.7967,-1.8447,-1.8091,-1.8152,-1.8878,-1.8882,-1.8902,-1.8926,-1.9783,-2.0373,-2.0479,-2.0515,-2.0475,-2.0499,-2.093,-2.1274,-2.1554,-2.2283,-2.292,-2.317,-2.4066,-2.4756,-2.4971,-2.5868,-2.658,-2.6919,-2.8104,-2.935,-3.012,-3.0676,-3.1061,-3.1669,-3.2475,-3.3146,-3.3685,-3.3755,-3.3887,-3.4468,-3.5253,-3.6064,-3.6795,-3.7501,-3.8165,-3.898,-3.9631,-4.0335,-4.0916,-4.1254,-4.1587,-4.2013,-4.2429,-4.265,-4.3174,-4.386,-4.4677,-4.5282,-4.5535,-4.5727,-2.4853,-2.4929,-2.4811,-2.4501,-2.4184,-2.404,-2.3913,-2.3789,-2.3673,-2.347,-2.3259,-2.279,-2.2902,-2.3378,-2.321,-2.3174,-2.3181,-2.273,-2.2456,-2.2456,-2.2286,-2.2286,-2.24,-2.2965,-2.3304,-2.3416,-2.3865,-2.3921,-2.3753,-2.3921,-2.4368,-2.4889,-2.5514,-2.5953,-2.6227,-2.6627,-2.6809,-2.6755,-2.5898,-2.5624,-2.5752,-2.4787,-2.3907,-2.3416,-2.2988,-2.2663,-2.2425,-2.2267,-2.2041,-2.1736,-2.1299,-2.0851,-2.0446,-1.9821,-1.9294,-1.8878,-1.8419,-1.8428,-1.902,-1.8677,-1.8751,-1.9413,-1.9411,-1.9345,-1.9574,-2.0481,-2.1152,-2.124,-2.1346,-2.1417,-2.1154,-2.1626,-2.2062,-2.235,-2.2987,-2.3587,-2.4115,-2.4952,-2.5411,-2.546,-2.6352,-2.7119,-2.7431,-2.8373,-2.9417,-3.026,-3.0892,-3.1605,-3.2599,-3.328,-3.3989,-3.4908,-3.492,-3.4971,-3.5265,-3.5585,-3.6338,-3.6968,-3.7471,-3.7938,-3.8797,-3.9415,-3.9985,-4.0578,-4.1156,-4.1588,-4.1818,-4.2174,-4.2682,-4.3023,-4.3595,-4.4337,-4.4874,-4.5241,-4.5677,-2.4251,-2.4496,-2.391,-2.3535,-2.323,-2.349,-2.3429,-2.3229,-2.3372,-2.3158,-2.2694,-2.2591,-2.2462,-2.2234,-2.2221,-2.2372,-2.2543,-2.2295,-2.2116,-2.2173,-2.24,-2.2683,-2.3006,-2.3585,-2.3977,-2.4144,-2.4217,-2.4273,-2.4273,-2.4368,-2.4646,-2.5165,-2.5734,-2.6227,-2.6573,-2.7008,-2.7333,-2.7189,-2.6464,-2.619,-2.6464,-2.6013,-2.5228,-2.4418,-2.4348,-2.4007,-2.344,-2.3541,-2.3507,-2.3272,-2.256,-2.2166,-2.2084,-2.148,-2.0755,-2.0101,-1.9761,-1.9606,-1.9687,-1.9657,-1.9761,-2.0074,-2.0279,-2.0494,-2.0514,-2.1579,-2.2127,-2.2005,-2.2765,-2.3003,-2.2355,-2.2482,-2.2707,-2.2922,-2.3388,-2.4115,-2.5099,-2.5441,-2.5897,-2.6304,-2.688,-2.7568,-2.8228,-2.8768,-2.9529,-3.0285,-3.0783,-3.1591,-3.2816,-3.3696,-3.4525,-3.5314,-3.5742,-3.5998,-3.6136,-3.5927,-3.6138,-3.6822,-3.7433,-3.7749,-3.8501,-3.9199,-3.9768,-4.0397,-4.1208,-4.1645,-4.1685,-4.2012,-4.2557,-4.2934,-4.3146,-4.3731,-4.4586,-4.5148,-4.5664,-2.432,-2.4248,-2.401,-2.3855,-2.3683,-2.3399,-2.3215,-2.3078,-2.2759,-2.2451,-2.2302,-2.2116,-2.1945,-2.1847,-2.1623,-2.1725,-2.1997,-2.1892,-2.1831,-2.1888,-2.2116,-2.2343,-2.2456,-2.3006,-2.3624,-2.4016,-2.4089,-2.4089,-2.4089,-2.4312,-2.4479,-2.4812,-2.5459,-2.6006,-2.6462,-2.6902,-2.7283,-2.7453,-2.6756,-2.6628,-2.6903,-2.6668,-2.6289,-2.5845,-2.5501,-2.5003,-2.4334,-2.4531,-2.4422,-2.3888,-2.3702,-2.3393,-2.2673,-2.1995,-2.1482,-2.1231,-2.0778,-2.0643,-2.0971,-2.0726,-2.0607,-2.0877,-2.0885,-2.0994,-2.1363,-2.2198,-2.2715,-2.2699,-2.3334,-2.3565,-2.327,-2.3248,-2.3497,-2.3673,-2.4134,-2.4726,-2.546,-2.6091,-2.6476,-2.6592,-2.7071,-2.7936,-2.907,-2.9791,-3.0464,-3.1298,-3.2017,-3.2726,-3.3498,-3.4285,-3.5137,-3.5989,-3.621,-3.6303,-3.6833,-3.6142,-3.5991,-3.6744,-3.7327,-3.7634,-3.8202,-3.9209,-3.9845,-4.0736,-4.1503,-4.2399,-4.2699,-4.2909,-4.3267,-4.3329,-4.3483,-4.3797,-4.4403,-4.513,-4.5824,-2.3995,-2.364,-2.3595,-2.3604,-2.3444,-2.3005,-2.2778,-2.2718,-2.2303,-2.2059,-2.1945,-2.1774,-2.1675,-2.1675,-2.1504,-2.1546,-2.1789,-2.1603,-2.1618,-2.1732,-2.2002,-2.2173,-2.2343,-2.2909,-2.34,-2.3848,-2.4016,-2.4033,-2.4089,-2.4256,-2.444,-2.4607,-2.5421,-2.5968,-2.6331,-2.6958,-2.7453,-2.7566,-2.7123,-2.7013,-2.7399,-2.7182,-2.6957,-2.6859,-2.6614,-2.6025,-2.5255,-2.539,-2.5253,-2.4757,-2.4612,-2.4115,-2.3208,-2.2739,-2.2519,-2.236,-2.2051,-2.1914,-2.2152,-2.1764,-2.1545,-2.1638,-2.176,-2.1879,-2.2172,-2.2999,-2.3352,-2.3511,-2.3826,-2.4132,-2.3935,-2.4053,-2.4301,-2.4282,-2.4529,-2.5118,-2.5849,-2.6524,-2.6907,-2.7214,-2.7736,-2.8657,-2.9689,-3.039,-3.1156,-3.2112,-3.284,-3.3492,-3.4135,-3.481,-3.5621,-3.6522,-3.6582,-3.6752,-3.6978,-3.6493,-3.6048,-3.6647,-3.7084,-3.7404,-3.8102,-3.9098,-4.0092,-4.1037,-4.2067,-4.3172,-4.3754,-4.3938,-4.4041,-4.4043,-4.4106,-4.4265,-4.481,-4.5287,-4.6027,-2.33,-2.2772,-2.2637,-2.2703,-2.2527,-2.2348,-2.2169,-2.2182,-2.2097,-2.1945,-2.1717,-2.1675,-2.1675,-2.1675,-2.1675,-2.1831,-2.1945,-2.1603,-2.1504,-2.1789,-2.2059,-2.2343,-2.2626,-2.3135,-2.3528,-2.3865,-2.4256,-2.4384,-2.4368,-2.444,-2.4552,-2.4902,-2.5604,-2.6043,-2.6153,-2.7308,-2.7918,-2.7863,-2.7456,-2.753,-2.8012,-2.7573,-2.7221,-2.7214,-2.7413,-2.7062,-2.6099,-2.6009,-2.5951,-2.5733,-2.5216,-2.4422,-2.4017,-2.4014,-2.4025,-2.36,-2.36,-2.3425,-2.3151,-2.2859,-2.2467,-2.2434,-2.2856,-2.321,-2.3448,-2.4078,-2.4489,-2.4508,-2.4602,-2.4629,-2.461,-2.4892,-2.502,-2.4627,-2.4726,-2.5265,-2.6255,-2.6784,-2.7289,-2.8207,-2.8768,-2.9291,-2.9902,-3.0691,-3.1576,-3.2606,-3.3288,-3.3918,-3.4753,-3.5441,-3.608,-3.6722,-3.7056,-3.7254,-3.7107,-3.6887,-3.6607,-3.6506,-3.6777,-3.7162,-3.8122,-3.9062,-4.0229,-4.1234,-4.3107,-4.4193,-4.4785,-4.4939,-4.4818,-4.4788,-4.4789,-4.4821,-4.5243,-4.573,-4.6318,-2.4035,-2.3627,-2.3657,-2.3594,-2.3448,-2.2991,-2.2678,-2.2415,-2.2039,-2.166,-2.1447,-2.1618,-2.1675,-2.1732,-2.1888,-2.2002,-2.2059,-2.1888,-2.2002,-2.2302,-2.257,-2.274,-2.2909,-2.3078,-2.3304,-2.3753,-2.4573,-2.4757,-2.4479,-2.4607,-2.4877,-2.5216,-2.5655,-2.6109,-2.665,-2.7381,-2.7846,-2.8108,-2.7977,-2.7938,-2.7972,-2.7809,-2.7456,-2.6951,-2.7223,-2.7004,-2.6172,-2.6499,-2.6493,-2.6162,-2.6323,-2.6077,-2.5434,-2.5145,-2.4936,-2.4713,-2.428,-2.4175,-2.4261,-2.3859,-2.3632,-2.3664,-2.3909,-2.428,-2.4704,-2.5058,-2.5236,-2.5313,-2.5371,-2.533,-2.5161,-2.5362,-2.5509,-2.5343,-2.5509,-2.5945,-2.6907,-2.7594,-2.8395,-2.9185,-2.9416,-2.9937,-3.1108,-3.1855,-3.2606,-3.4006,-3.4722,-3.5288,-3.5784,-3.6299,-3.6806,-3.7083,-3.7391,-3.7561,-3.735,-3.716,-3.6956,-3.6689,-3.6804,-3.7282,-3.8193,-3.9208,-4.0323,-4.1881,-4.3778,-4.4957,-4.5556,-4.581,-4.569,-4.5503,-4.544,-4.5571,-4.5766,-4.6192,-4.6717,-2.404,-2.3729,-2.359,-2.3461,-2.3309,-2.2859,-2.2609,-2.2406,-2.2036,-2.1774,-2.1774,-2.1774,-2.2017,-2.2173,-2.2286,-2.242,-2.2554,-2.2518,-2.2632,-2.2881,-2.2828,-2.2965,-2.3191,-2.3416,-2.3585,-2.3921,-2.4629,-2.4851,-2.4552,-2.4855,-2.5194,-2.5574,-2.5709,-2.6109,-2.6831,-2.7197,-2.7537,-2.7852,-2.7888,-2.7961,-2.8031,-2.7966,-2.7597,-2.7074,-2.7182,-2.6893,-2.6208,-2.6609,-2.6641,-2.6358,-2.6855,-2.7026,-2.6598,-2.6532,-2.647,-2.6177,-2.5974,-2.5853,-2.5878,-2.5533,-2.5139,-2.5219,-2.5311,-2.5537,-2.5998,-2.609,-2.6135,-2.606,-2.5969,-2.5831,-2.5732,-2.5965,-2.6139,-2.6284,-2.6332,-2.686,-2.7668,-2.8488,-2.9342,-3.0147,-3.0468,-3.1229,-3.23,-3.3031,-3.3767,-3.5208,-3.5883,-3.631,-3.664,-3.6989,-3.7155,-3.7387,-3.7652,-3.7674,-3.7537,-3.7401,-3.7311,-3.7081,-3.6907,-3.7572,-3.8359,-3.9436,-4.0583,-4.2655,-4.4576,-4.5379,-4.5989,-4.6509,-4.6592,-4.6413,-4.6125,-4.6254,-4.6414,-4.6549,-4.6945,-2.3504,-2.3152,-2.2861,-2.2671,-2.242,-2.2374,-2.2374,-2.2245,-2.223,-2.2343,-2.2513,-2.2343,-2.2544,-2.2884,-2.2931,-2.3162,-2.3467,-2.3365,-2.3438,-2.3476,-2.3203,-2.3142,-2.3488,-2.3977,-2.429,-2.4452,-2.4735,-2.4902,-2.4932,-2.5285,-2.5622,-2.5935,-2.6007,-2.6232,-2.68,-2.6906,-2.7188,-2.7364,-2.7434,-2.7748,-2.8122,-2.7961,-2.7535,-2.7104,-2.7122,-2.6834,-2.6207,-2.6445,-2.6479,-2.6199,-2.7072,-2.7566,-2.7589,-2.8164,-2.8093,-2.7617,-2.8027,-2.7824,-2.7662,-2.7292,-2.7014,-2.6737,-2.693,-2.7265,-2.6998,-2.7083,-2.6981,-2.6628,-2.647,-2.6379,-2.6278,-2.6544,-2.6976,-2.7309,-2.7241,-2.762,-2.8585,-2.9393,-3.0194,-3.1182,-3.1852,-3.2505,-3.3482,-3.4052,-3.4817,-3.5685,-3.6216,-3.6593,-3.6922,-3.7155,-3.7387,-3.7572,-3.7802,-3.7787,-3.7581,-3.7721,-3.7617,-3.759,-3.7508,-3.8256,-3.9209,-4.0367,-4.1424,-4.3457,-4.4972,-4.5759,-4.6416,-4.6913,-4.7168,-4.7024,-4.6896,-4.6959,-4.6931,-4.697,-4.6971,-2.4369,-2.3878,-2.3943,-2.3677,-2.3239,-2.336,-2.3304,-2.3135,-2.3135,-2.3022,-2.2965,-2.3078,-2.3319,-2.3714,-2.3902,-2.4228,-2.4456,-2.444,-2.4672,-2.4821,-2.4294,-2.3756,-2.369,-2.4105,-2.4575,-2.48,-2.5005,-2.5228,-2.5544,-2.5852,-2.614,-2.6289,-2.6469,-2.6679,-2.6906,-2.7088,-2.714,-2.7075,-2.7362,-2.7103,-2.68,-2.7165,-2.6754,-2.5898,-2.632,-2.6367,-2.5951,-2.65,-2.706,-2.7431,-2.7974,-2.8212,-2.8058,-2.8428,-2.8528,-2.8192,-2.8239,-2.8265,-2.812,-2.8125,-2.8061,-2.7915,-2.8025,-2.7965,-2.7863,-2.7731,-2.7461,-2.7072,-2.6933,-2.6832,-2.6762,-2.7023,-2.7547,-2.8233,-2.8326,-2.8585,-2.9325,-2.9897,-3.065,-3.1938,-3.233,-3.3044,-3.3976,-3.4553,-3.5149,-3.6018,-3.6499,-3.6734,-3.7062,-3.7397,-3.7655,-3.7624,-3.773,-3.7696,-3.7748,-3.7891,-3.7994,-3.8044,-3.8421,-3.9212,-4.0506,-4.1964,-4.3072,-4.4439,-4.5384,-4.6212,-4.6771,-4.7293,-4.7384,-4.7529,-4.7445,-4.7318,-4.7093,-4.7066,-4.7032,-2.5081,-2.4752,-2.4708,-2.4456,-2.4138,-2.4258,-2.4192,-2.3933,-2.3875,-2.3753,-2.3641,-2.3641,-2.395,-2.4359,-2.4449,-2.4804,-2.5175,-2.506,-2.5194,-2.5453,-2.5251,-2.4685,-2.4238,-2.4502,-2.4947,-2.5082,-2.525,-2.5453,-2.5848,-2.6338,-2.6566,-2.6637,-2.6795,-2.6988,-2.7088,-2.6789,-2.6883,-2.6905,-2.7054,-2.6796,-2.6444,-2.6927,-2.67,-2.6005,-2.6276,-2.642,-2.6262,-2.7141,-2.791,-2.8218,-2.8654,-2.8873,-2.8914,-2.9149,-2.9116,-2.8926,-2.8958,-2.8958,-2.8935,-2.9062,-2.9116,-2.9065,-2.8983,-2.8829,-2.8523,-2.8238,-2.7834,-2.7063,-2.7061,-2.6968,-2.6906,-2.7309,-2.8066,-2.8746,-2.9301,-2.9715,-3.0102,-3.0673,-3.1592,-3.2544,-3.3204,-3.3683,-3.4841,-3.5081,-3.5561,-3.6257,-3.6709,-3.6968,-3.7273,-3.7614,-3.7852,-3.7814,-3.8017,-3.8195,-3.8417,-3.8575,-3.9087,-3.9087,-3.9847,-4.0558,-4.1451,-4.3056,-4.3923,-4.4855,-4.5788,-4.6531,-4.7038,-4.7506,-4.7796,-4.7854,-4.7755,-4.7637,-4.7373,-4.7184,-4.7117,-2.5648,-2.5598,-2.5251,-2.5144,-2.5086,-2.5091,-2.5036,-2.4708,-2.4699,-2.4619,-2.4547,-2.4217,-2.4541,-2.5064,-2.4976,-2.5103,-2.5768,-2.5594,-2.5577,-2.5864,-2.5973,-2.5737,-2.4969,-2.5167,-2.5486,-2.5646,-2.5577,-2.5752,-2.6114,-2.6789,-2.6959,-2.684,-2.686,-2.7105,-2.7164,-2.6568,-2.641,-2.6779,-2.6704,-2.667,-2.6703,-2.6978,-2.6873,-2.6481,-2.6703,-2.6906,-2.716,-2.7994,-2.8812,-2.8866,-2.9073,-2.9404,-2.9858,-2.9994,-2.9973,-2.9953,-2.99,-2.9921,-2.9973,-2.9859,-3.0005,-2.9922,-2.9849,-2.9621,-2.8942,-2.8391,-2.7753,-2.6912,-2.6981,-2.6956,-2.6982,-2.7736,-2.8535,-2.9185,-3.0011,-3.0625,-3.0966,-3.1612,-3.2568,-3.3557,-3.4115,-3.4817,-3.5376,-3.5764,-3.593,-3.6424,-3.6849,-3.7108,-3.7495,-3.7961,-3.8043,-3.7946,-3.8332,-3.8851,-3.9104,-3.9382,-4.0011,-4.0494,-4.148,-4.2165,-4.2282,-4.34,-4.4296,-4.5221,-4.607,-4.6699,-4.7185,-4.7579,-4.7959,-4.8036,-4.7878,-4.775,-4.7622,-4.7377,-4.7284,-2.5803,-2.5615,-2.5991,-2.6024,-2.5885,-2.6244,-2.6281,-2.5926,-2.5895,-2.5825,-2.5716,-2.5211,-2.553,-2.6451,-2.5902,-2.5999,-2.667,-2.6602,-2.6688,-2.6745,-2.7302,-2.7076,-2.6346,-2.6079,-2.6122,-2.6406,-2.6228,-2.6328,-2.6721,-2.7155,-2.7254,-2.6601,-2.7004,-2.7317,-2.7282,-2.6906,-2.6796,-2.6987,-2.6738,-2.6491,-2.6415,-2.6713,-2.6756,-2.6568,-2.696,-2.7443,-2.7977,-2.8858,-2.9584,-2.9919,-2.9782,-2.9748,-3.0013,-3.0151,-3.0235,-3.0235,-3.0235,-3.0183,-3.0078,-3.0109,-3.0287,-3.012,-2.9653,-2.9249,-2.8785,-2.7984,-2.7409,-2.6903,-2.6947,-2.7071,-2.7425,-2.816,-2.8885,-2.9553,-3.0537,-3.1456,-3.1958,-3.2415,-3.3189,-3.4019,-3.4746,-3.531,-3.6093,-3.6168,-3.6358,-3.6687,-3.6922,-3.7201,-3.7692,-3.821,-3.8298,-3.8254,-3.8751,-3.9297,-3.9659,-4.0094,-4.079,-4.1428,-4.2433,-4.3176,-4.329,-4.382,-4.4748,-4.5532,-4.6281,-4.6823,-4.7278,-4.7544,-4.7869,-4.7909,-4.7951,-4.7835,-4.7717,-4.7536,-4.7444,-2.6876,-2.6765,-2.7046,-2.7103,-2.7029,-2.7204,-2.7075,-2.6661,-2.6504,-2.6415,-2.6267,-2.5831,-2.6228,-2.6988,-2.6789,-2.6939,-2.7237,-2.7478,-2.7572,-2.773,-2.8051,-2.7967,-2.7687,-2.7178,-2.7022,-2.7152,-2.6792,-2.6765,-2.7035,-2.7343,-2.7178,-2.6445,-2.7018,-2.7289,-2.7289,-2.7027,-2.6953,-2.7155,-2.6919,-2.6696,-2.6534,-2.6833,-2.7115,-2.7193,-2.7566,-2.8031,-2.8257,-2.9203,-2.9733,-2.9964,-2.9963,-3.0025,-3.0187,-3.0098,-3.0078,-3.0183,-3.0183,-2.9953,-2.9694,-2.9611,-2.9591,-2.9559,-2.9024,-2.8787,-2.8387,-2.7769,-2.7272,-2.6975,-2.6948,-2.7187,-2.7925,-2.8653,-2.9347,-3.0125,-3.1271,-3.2237,-3.2786,-3.3444,-3.4089,-3.4761,-3.5465,-3.5934,-3.6304,-3.6427,-3.6666,-3.6926,-3.7019,-3.7278,-3.7769,-3.8288,-3.8543,-3.8715,-3.9259,-3.9743,-4.0208,-4.0754,-4.1537,-4.2134,-4.2806,-4.3377,-4.3659,-4.4372,-4.5166,-4.5771,-4.6321,-4.684,-4.7282,-4.7565,-4.766,-4.7582,-4.7624,-4.7751,-4.7737,-4.7547,-4.7596,-2.796,-2.802,-2.808,-2.808,-2.8086,-2.8061,-2.7665,-2.71,-2.7019,-2.6986,-2.6634,-2.6616,-2.7025,-2.7399,-2.7552,-2.7647,-2.7734,-2.784,-2.8044,-2.8301,-2.8361,-2.8403,-2.8259,-2.812,-2.784,-2.7646,-2.7142,-2.6982,-2.7013,-2.7227,-2.7071,-2.648,-2.7047,-2.7452,-2.7347,-2.7146,-2.7168,-2.7458,-2.7309,-2.7096,-2.7138,-2.7382,-2.767,-2.7961,-2.8269,-2.855,-2.876,-2.9429,-2.9968,-2.9805,-2.9984,-3.0279,-3.0404,-3.0125,-2.9816,-3.0078,-3.0047,-2.9715,-2.9363,-2.9044,-2.8829,-2.8522,-2.8269,-2.8145,-2.8003,-2.7705,-2.7316,-2.7215,-2.7214,-2.7689,-2.8488,-2.9163,-2.9943,-3.0832,-3.2115,-3.2991,-3.3646,-3.4615,-3.5273,-3.5344,-3.5949,-3.6561,-3.6543,-3.6546,-3.6879,-3.7143,-3.7236,-3.7433,-3.7976,-3.8475,-3.8908,-3.9185,-3.9651,-4.018,-4.0622,-4.1379,-4.2145,-4.2445,-4.3095,-4.3456,-4.3796,-4.4247,-4.4851,-4.5702,-4.6285,-4.6731,-4.7075,-4.7261,-4.7302,-4.726,-4.7318,-4.734,-4.7394,-4.7478,-4.7536,-2.7762,-2.802,-2.8277,-2.8397,-2.8439,-2.8664,-2.8327,-2.7836,-2.8136,-2.8234,-2.7843,-2.7957,-2.8268,-2.8649,-2.8422,-2.8296,-2.8307,-2.8259,-2.8277,-2.8517,-2.8517,-2.8517,-2.854,-2.8646,-2.855,-2.821,-2.7683,-2.7208,-2.7164,-2.7419,-2.7061,-2.6415,-2.7065,-2.7654,-2.7682,-2.7658,-2.7696,-2.7831,-2.78,-2.7681,-2.7519,-2.7811,-2.8104,-2.8354,-2.8701,-2.9043,-2.9517,-3.0023,-3.0548,-3.0894,-3.0638,-3.059,-3.0595,-3.0216,-3.0193,-3.0349,-3.0025,-2.962,-2.9444,-2.8918,-2.8672,-2.8478,-2.802,-2.7746,-2.7623,-2.7385,-2.7263,-2.7514,-2.7998,-2.8653,-2.9255,-2.9806,-3.0628,-3.1707,-3.2798,-3.3857,-3.4715,-3.5608,-3.6142,-3.5848,-3.6455,-3.6968,-3.6854,-3.6908,-3.7275,-3.7642,-3.7844,-3.8144,-3.8596,-3.9177,-3.9663,-3.9864,-4.0039,-4.054,-4.1037,-4.1925,-4.2641,-4.2614,-4.3012,-4.33,-4.3614,-4.3879,-4.4443,-4.5184,-4.5795,-4.6255,-4.6569,-4.6828,-4.667,-4.6435,-4.6665,-4.6916,-4.6865,-4.6804,-4.6857,-2.8361,-2.8576,-2.8696,-2.8755,-2.8815,-2.8934,-2.8645,-2.8226,-2.8568,-2.8723,-2.8631,-2.8727,-2.9008,-2.9303,-2.9303,-2.9164,-2.8979,-2.8838,-2.8797,-2.8815,-2.8755,-2.8755,-2.8755,-2.8934,-2.8934,-2.8651,-2.8272,-2.7788,-2.7481,-2.7676,-2.7239,-2.6709,-2.7197,-2.7661,-2.7854,-2.8034,-2.8102,-2.8128,-2.8157,-2.808,-2.7822,-2.8259,-2.8558,-2.8737,-2.8934,-2.9213,-2.9627,-2.9981,-3.0333,-3.0626,-3.0435,-3.0449,-3.0437,-3.036,-3.0203,-3.038,-2.992,-2.9495,-2.9298,-2.8661,-2.8111,-2.8125,-2.7615,-2.7467,-2.7544,-2.7524,-2.7499,-2.7951,-2.8606,-2.9347,-2.9806,-3.0397,-3.1286,-3.2325,-3.3518,-3.4516,-3.5479,-3.6497,-3.6569,-3.6421,-3.6882,-3.718,-3.7092,-3.7271,-3.7646,-3.8071,-3.8449,-3.8833,-3.9217,-3.9748,-4.0236,-4.0409,-4.0533,-4.0961,-4.1387,-4.2016,-4.2631,-4.2658,-4.2803,-4.3067,-4.3307,-4.3546,-4.3926,-4.449,-4.5087,-4.556,-4.5785,-4.5905,-4.5728,-4.5627,-4.5819,-4.599,-4.6085,-4.6128,-4.6113,-2.8916,-2.8975,-2.8975,-2.8975,-2.8975,-2.8975,-2.8755,-2.852,-2.887,-2.9025,-2.895,-2.9373,-2.9658,-2.9728,-2.9844,-2.9844,-2.9627,-2.9509,-2.9272,-2.9094,-2.8975,-2.8975,-2.8975,-2.8975,-2.8916,-2.876,-2.8935,-2.86,-2.8046,-2.8056,-2.7596,-2.7337,-2.7404,-2.7776,-2.8079,-2.8602,-2.8446,-2.845,-2.8498,-2.8498,-2.8439,-2.8677,-2.8975,-2.9035,-2.9094,-2.9272,-2.9627,-3.0039,-3.0333,-3.0509,-3.0458,-3.0294,-3.0409,-3.0257,-3.0224,-3.0328,-2.9817,-2.9557,-2.9286,-2.8661,-2.8209,-2.8289,-2.7648,-2.7668,-2.7908,-2.8116,-2.8207,-2.8768,-2.9301,-2.9988,-3.0556,-3.1166,-3.2082,-3.315,-3.4234,-3.5214,-3.6045,-3.678,-3.7103,-3.7171,-3.7413,-3.7346,-3.7211,-3.7664,-3.8067,-3.8556,-3.8962,-3.9355,-3.9788,-4.0166,-4.0601,-4.0801,-4.1028,-4.1386,-4.1713,-4.1955,-4.2289,-4.2338,-4.2484,-4.2776,-4.2943,-4.3184,-4.3471,-4.3662,-4.4087,-4.4571,-4.48,-4.492,-4.4756,-4.4732,-4.4896,-4.5131,-4.5405,-4.5333,-4.5218,-2.8755,-2.8975,-2.8975,-2.8975,-2.8975,-2.8975,-2.8755,-2.8538,-2.9343,-2.956,-2.9296,-3.02,-3.0626,-3.0567,-3.0392,-3.0157,-2.9863,-2.9627,-2.945,-2.9272,-2.9094,-2.8975,-2.8975,-2.8975,-2.8916,-2.8856,-2.9198,-2.8975,-2.8578,-2.8605,-2.8307,-2.8008,-2.8492,-2.9037,-2.8665,-2.9194,-2.9571,-2.9313,-2.9253,-2.9153,-2.8916,-2.8975,-2.9035,-2.9094,-2.9331,-2.9568,-2.9863,-3.0333,-3.0801,-3.1052,-3.0886,-3.0831,-3.0813,-3.0523,-3.0548,-3.0545,-3.0321,-3.0104,-3.012,-2.9302,-2.8812,-2.8779,-2.8507,-2.8553,-2.8553,-2.8808,-2.9163,-2.9943,-3.0306,-3.0759,-3.1416,-3.2171,-3.3171,-3.4069,-3.5002,-3.5948,-3.6734,-3.7016,-3.7361,-3.7479,-3.7644,-3.7511,-3.733,-3.7934,-3.8493,-3.901,-3.9478,-3.987,-4.0205,-4.0534,-4.0761,-4.0937,-4.1212,-4.1594,-4.1796,-4.2043,-4.2092,-4.2092,-4.2239,-4.2409,-4.2457,-4.2528,-4.2452,-4.2695,-4.3156,-4.3305,-4.3296,-4.3401,-4.3582,-4.3671,-4.3691,-4.4223,-4.4876,-4.4695,-4.4399,-2.9035,-2.8975,-2.8975,-2.8975,-2.8975,-2.8975,-2.8902,-2.8969,-2.9552,-2.9827,-2.9811,-3.0548,-3.0898,-3.082,-3.0762,-3.0411,-2.9981,-2.9804,-2.9509,-2.9272,-2.9094,-2.8975,-2.8975,-2.9035,-2.8916,-2.9094,-2.9331,-2.9493,-2.921,-2.8928,-2.8646,-2.8724,-2.8948,-2.91,-2.9141,-2.9655,-2.963,-2.9431,-2.9313,-2.9272,-2.9272,-2.9272,-2.9272,-2.9272,-2.9568,-2.9863,-3.0216,-3.0606,-3.1034,-3.1283,-3.1236,-3.1289,-3.1285,-3.1141,-3.1105,-3.1168,-3.1094,-3.096,-3.0788,-2.9802,-2.9505,-2.9332,-2.9085,-2.8746,-2.8978,-2.9484,-2.9851,-3.0125,-3.0847,-3.1526,-3.2257,-3.2836,-3.3945,-3.4972,-3.5846,-3.6509,-3.715,-3.7381,-3.7644,-3.7736,-3.7808,-3.7852,-3.7924,-3.8324,-3.8936,-3.9401,-3.9792,-4.008,-4.0361,-4.064,-4.0843,-4.0945,-4.1295,-4.167,-4.1796,-4.1944,-4.1993,-4.1993,-4.2043,-4.2115,-4.1944,-4.1918,-4.1815,-4.1785,-4.2123,-4.2113,-4.1886,-4.1846,-4.1996,-4.2221,-4.2444,-4.3073,-4.3663,-4.3914,-4.3867,-2.9213,-2.9053,-2.9153,-2.9231,-2.9231,-2.9231,-2.9213,-2.9272,-2.9804,-3.0039,-3.0157,-3.0645,-3.0898,-3.0898,-3.082,-3.0528,-2.9922,-2.9981,-2.9627,-2.9272,-2.9094,-2.9172,-2.9153,-2.9153,-2.9213,-2.939,-2.945,-2.953,-2.9456,-2.9247,-2.9021,-2.9429,-2.9291,-2.9312,-2.9601,-2.9966,-3.0098,-2.9726,-2.9568,-2.9509,-2.9568,-2.9568,-2.9627,-2.9686,-2.9863,-3.0157,-3.0392,-3.0801,-3.115,-3.1419,-3.1515,-3.1569,-3.1614,-3.155,-3.1434,-3.1497,-3.1521,-3.1665,-3.1295,-3.0696,-3.0166,-3.0092,-3.0068,-3.0072,-3.012,-3.0491,-3.0927,-3.118,-3.1884,-3.2616,-3.3216,-3.3841,-3.4987,-3.5958,-3.6698,-3.7243,-3.7738,-3.7956,-3.81,-3.8147,-3.8344,-3.8594,-3.8726,-3.8962,-3.9404,-3.9891,-4.0155,-4.0313,-4.0491,-4.072,-4.0823,-4.0925,-4.1257,-4.1535,-4.161,-4.1708,-4.1805,-4.1796,-4.1796,-4.1647,-4.1398,-4.1272,-4.1169,-4.1214,-4.1179,-4.0834,-4.0468,-4.0474,-4.0473,-4.1085,-4.1624,-4.1823,-4.2236,-4.2705,-4.3507,-2.9035,-2.9035,-2.9627,-2.9804,-2.9804,-2.9863,-2.9804,-2.9804,-3.0157,-3.0333,-3.0392,-3.0762,-3.0898,-3.0918,-3.0859,-3.0547,-2.9941,-3.0216,-2.9863,-2.9568,-2.945,-2.939,-2.939,-2.9331,-2.9331,-2.9213,-2.939,-2.9509,-2.9431,-2.9216,-2.9356,-2.9766,-2.9653,-2.9944,-3.0256,-3.0451,-3.045,-3.0197,-3.0098,-2.9981,-2.9922,-2.9863,-2.9863,-2.9981,-3.0157,-3.0392,-3.045,-3.0918,-3.1383,-3.1672,-3.171,-3.1902,-3.2043,-3.1994,-3.19,-3.1945,-3.2045,-3.2243,-3.2104,-3.18,-3.1833,-3.2042,-3.2035,-3.1716,-3.1669,-3.209,-3.2511,-3.2763,-3.3168,-3.3888,-3.466,-3.5466,-3.6248,-3.7099,-3.7727,-3.8157,-3.848,-3.8569,-3.8689,-3.8684,-3.8836,-3.916,-3.9501,-3.9715,-3.991,-4.0374,-4.0514,-4.0722,-4.0543,-4.0644,-4.0773,-4.0901,-4.1157,-4.1312,-4.1286,-4.1338,-4.1412,-4.1203,-4.0997,-4.0846,-4.0643,-4.0541,-4.0285,-4.0233,-4.0076,-3.9605,-3.9351,-3.9734,-4.0103,-4.0467,-4.0815,-4.1013,-4.161,-4.2267,-4.3315,-2.9686,-2.9922,-3.0352,-3.0176,-2.9686,-2.9627,-2.9745,-2.9922,-3.0274,-3.0509,-3.0704,-3.084,-3.1035,-3.1093,-3.0742,-3.0565,-3.0303,-3.0135,-2.9724,-2.945,-2.9331,-2.9331,-2.9331,-2.939,-2.945,-2.9331,-2.945,-2.9509,-2.9509,-2.9172,-2.9272,-2.9568,-2.9764,-3.0098,-3.0392,-3.0704,-3.0645,-3.045,-3.0392,-3.0216,-3.0039,-3.0157,-3.0216,-3.0216,-3.0528,-3.0704,-3.0762,-3.1112,-3.1441,-3.1747,-3.1872,-3.221,-3.2523,-3.2482,-3.2441,-3.2448,-3.2637,-3.2826,-3.3093,-3.2655,-3.2325,-3.2413,-3.2488,-3.2583,-3.2748,-3.2794,-3.3143,-3.3536,-3.4188,-3.4869,-3.5962,-3.6539,-3.7176,-3.8183,-3.8795,-3.9103,-3.9277,-3.9294,-3.9333,-3.928,-3.948,-3.9754,-4.0101,-4.0473,-4.0618,-4.0809,-4.0949,-4.1029,-4.0747,-4.0594,-4.0746,-4.082,-4.105,-4.1078,-4.1027,-4.1028,-4.108,-4.067,-4.0287,-4.0134,-4.0006,-3.9398,-3.9171,-3.9095,-3.9196,-3.9089,-3.912,-3.9406,-3.9607,-3.9635,-3.9848,-4.0198,-4.092,-4.1918,-4.3006,-3.0039,-3.0274,-3.0528,-3.0352,-2.9981,-3.0039,-3.0098,-3.0216,-3.0567,-3.0762,-3.0898,-3.1016,-3.1171,-3.1189,-3.0876,-3.0541,-3.0417,-3.0071,-2.9624,-2.945,-2.939,-2.9272,-2.9213,-2.9213,-2.9272,-2.9331,-2.935,-2.935,-2.9554,-2.9168,-2.9264,-2.948,-2.9624,-2.9882,-3.0392,-3.0587,-3.0587,-3.0333,-3.035,-3.0351,-3.0155,-3.0428,-3.0527,-3.0567,-3.0762,-3.084,-3.0898,-3.1054,-3.1383,-3.173,-3.2055,-3.242,-3.2773,-3.3001,-3.3104,-3.3126,-3.3268,-3.3471,-3.3697,-3.365,-3.3203,-3.3402,-3.3434,-3.3434,-3.3434,-3.367,-3.4146,-3.4764,-3.523,-3.5898,-3.7188,-3.7771,-3.8342,-3.928,-3.9485,-3.9767,-3.9875,-3.9972,-3.9987,-3.9952,-4.0106,-4.0158,-4.0601,-4.0972,-4.1248,-4.1331,-4.1284,-4.1209,-4.0771,-4.0693,-4.0714,-4.0839,-4.0885,-4.0841,-4.0743,-4.0891,-4.0913,-4.013,-3.9775,-3.962,-3.934,-3.8736,-3.8586,-3.8888,-3.8993,-3.8818,-3.8963,-3.9352,-3.9076,-3.8588,-3.915,-3.9885,-4.0763,-4.1747,-4.2666,-2.9922,-2.9922,-2.9981,-3.0294,-3.0801,-3.1112,-3.1054,-3.0762,-3.0976,-3.1054,-3.0937,-3.123,-3.1286,-3.1086,-3.0851,-3.0632,-3.0509,-3.0127,-2.9724,-2.9468,-2.9543,-2.9309,-2.9131,-2.9071,-2.9186,-2.9053,-2.9126,-2.937,-2.9549,-2.9172,-2.9269,-2.9384,-2.9393,-2.9565,-3.0294,-3.0392,-3.0216,-3.0038,-3.0319,-3.0403,-3.0445,-3.0736,-3.0856,-3.0957,-3.0859,-3.0898,-3.1074,-3.1015,-3.1344,-3.173,-3.1903,-3.2305,-3.2742,-3.3084,-3.3135,-3.3108,-3.3748,-3.4133,-3.4283,-3.4565,-3.4594,-3.4584,-3.4552,-3.4799,-3.4993,-3.5235,-3.5453,-3.6036,-3.6571,-3.7333,-3.8225,-3.8943,-3.9472,-3.9881,-4.0086,-4.0239,-4.0346,-4.0447,-4.0389,-4.0458,-4.0458,-4.0537,-4.1002,-4.1448,-4.1773,-4.1879,-4.1724,-4.1466,-4.1077,-4.0967,-4.1011,-4.0877,-4.0921,-4.0818,-4.0796,-4.0885,-4.0653,-3.986,-3.936,-3.933,-3.9102,-3.865,-3.8625,-3.8827,-3.8658,-3.844,-3.8843,-3.9348,-3.9046,-3.8903,-3.9203,-3.9887,-4.074,-4.1471,-4.2297,-3.0352,-3.0528,-3.0587,-3.0878,-3.123,-3.1171,-3.0897,-3.0665,-3.0684,-3.0762,-3.084,-3.0878,-3.1107,-3.1082,-3.0651,-3.0452,-3.0569,-3.0389,-3.0024,-2.9309,-2.9573,-2.9278,-2.9021,-2.9015,-2.9034,-2.8883,-2.9015,-2.9355,-2.9623,-2.9234,-2.9131,-2.9186,-2.9331,-2.9531,-2.9836,-3.0052,-3.0338,-3.0118,-3.0351,-3.0452,-3.0536,-3.083,-3.1107,-3.1289,-3.1055,-3.1035,-3.1211,-3.1172,-3.1384,-3.1808,-3.1903,-3.2383,-3.2841,-3.3146,-3.3346,-3.3519,-3.4109,-3.4486,-3.4949,-3.5352,-3.5427,-3.5478,-3.5527,-3.5711,-3.5707,-3.6131,-3.6651,-3.7171,-3.7418,-3.8114,-3.9086,-3.9287,-3.9743,-4.018,-4.0411,-4.0537,-4.0639,-4.0739,-4.0761,-4.0961,-4.101,-4.1298,-4.1688,-4.2056,-4.2398,-4.2499,-4.242,-4.2134,-4.1766,-4.1572,-4.1534,-4.1164,-4.1026,-4.0918,-4.0884,-4.1007,-4.0735,-4.0021,-3.9572,-3.934,-3.8985,-3.8533,-3.8331,-3.8355,-3.8218,-3.8103,-3.884,-3.9449,-3.9389,-3.9407,-3.9596,-3.9907,-4.0649,-4.1191,-4.168,-3.1034,-3.117,-3.1054,-3.1211,-3.1388,-3.121,-3.0995,-3.0898,-3.0858,-3.0839,-3.0897,-3.0836,-3.0923,-3.1009,-3.0657,-3.0287,-3.0624,-3.0293,-3.0002,-2.9264,-2.9517,-2.9258,-2.9016,-2.8871,-2.8853,-2.8799,-2.9137,-2.9433,-2.9635,-2.9433,-2.9205,-2.9144,-2.9415,-2.9489,-2.9646,-2.9925,-3.0148,-3.0083,-3.0158,-3.0396,-3.0562,-3.0822,-3.12,-3.1306,-3.1309,-3.123,-3.1407,-3.1545,-3.158,-3.1868,-3.2153,-3.2555,-3.2898,-3.3203,-3.3374,-3.3677,-3.435,-3.4875,-3.5557,-3.5879,-3.5885,-3.5858,-3.6057,-3.6105,-3.6207,-3.6442,-3.7117,-3.7642,-3.7941,-3.8768,-3.9573,-3.97,-4.0031,-4.0542,-4.0695,-4.0847,-4.0898,-4.0974,-4.1206,-4.1383,-4.1771,-4.2109,-4.2344,-4.2736,-4.3047,-4.3117,-4.3131,-4.2741,-4.2353,-4.2131,-4.1932,-4.1584,-4.132,-4.132,-4.1205,-4.1164,-4.0769,-4.0207,-3.9804,-3.9447,-3.8887,-3.8437,-3.8157,-3.7983,-3.8077,-3.842,-3.9063,-3.95,-3.9598,-3.9664,-3.9722,-4.0101,-4.0653,-4.1066,-4.1511,-3.1808,-3.173,-3.1441,-3.1286,-3.1326,-3.1367,-3.1604,-3.1939,-3.1563,-3.1246,-3.1007,-3.1293,-3.1119,-3.0747,-3.0605,-3.0581,-3.0599,-3.0002,-2.9675,-2.9449,-2.9404,-2.9179,-2.885,-2.8579,-2.8737,-2.8967,-2.9225,-2.9458,-2.9689,-2.952,-2.9208,-2.9038,-2.9395,-2.9413,-2.9534,-2.9831,-3.0063,-3.0113,-3.0242,-3.0488,-3.0719,-3.0978,-3.1386,-3.1535,-3.16,-3.1582,-3.1701,-3.1821,-3.1837,-3.2027,-3.2174,-3.2461,-3.2747,-3.3054,-3.3167,-3.3523,-3.4379,-3.5168,-3.5859,-3.6031,-3.6217,-3.6156,-3.6308,-3.6395,-3.6501,-3.6771,-3.7351,-3.7905,-3.8259,-3.9144,-3.9956,-4.0211,-4.0466,-4.0747,-4.0924,-4.1052,-4.1105,-4.1311,-4.1621,-4.1931,-4.2398,-4.271,-4.2918,-4.3229,-4.3484,-4.3396,-4.3329,-4.3005,-4.2641,-4.2381,-4.2178,-4.2118,-4.1853,-4.1778,-4.1687,-4.1533,-4.1127,-4.0641,-3.9937,-3.9506,-3.8892,-3.8417,-3.8176,-3.8108,-3.8291,-3.8582,-3.9055,-3.952,-3.9854,-3.993,-3.9872,-4.0291,-4.0803,-4.1223,-4.1673,-3.1672,-3.1441,-3.1325,-3.1328,-3.1505,-3.1852,-3.2088,-3.2033,-3.126,-3.0847,-3.0947,-3.0679,-3.0536,-3.0272,-3.0259,-3.0334,-3.0401,-3.0266,-2.98,-2.9526,-2.9353,-2.8949,-2.8677,-2.8517,-2.8729,-2.903,-2.9305,-2.9517,-2.9833,-2.9725,-2.9217,-2.8933,-2.9436,-2.9438,-2.9681,-3.0119,-3.0325,-3.0468,-3.0534,-3.0692,-3.1028,-3.137,-3.1703,-3.1896,-3.201,-3.2012,-3.2074,-3.2197,-3.2173,-3.1966,-3.269,-3.3021,-3.2747,-3.3111,-3.3351,-3.3544,-3.4233,-3.4958,-3.5543,-3.584,-3.6004,-3.6223,-3.6447,-3.6607,-3.675,-3.7049,-3.7517,-3.7955,-3.842,-3.9161,-3.9749,-4.0081,-4.0413,-4.0669,-4.0875,-4.0952,-4.108,-4.1518,-4.1853,-4.2683,-4.3177,-4.3333,-4.3516,-4.3695,-4.3896,-4.3727,-4.3504,-4.3174,-4.2902,-4.2615,-4.2509,-4.2393,-4.2338,-4.2263,-4.2165,-4.2009,-4.1576,-4.1096,-4.0343,-3.9672,-3.9169,-3.8747,-3.8355,-3.821,-3.8315,-3.8526,-3.8841,-3.9258,-3.962,-3.9955,-4.0007,-4.0487,-4.0913,-4.1209,-4.158,-3.1787,-3.1498,-3.1325,-3.1191,-3.1189,-3.1619,-3.1831,-3.1703,-3.1089,-3.099,-3.1062,-3.04,-3.0119,-3.0145,-3.0032,-3.0062,-3.032,-3.0145,-2.9806,-2.9379,-2.9404,-2.8977,-2.8664,-2.8598,-2.9025,-2.9246,-2.9467,-2.9643,-2.9846,-2.9491,-2.8978,-2.9103,-2.9515,-2.963,-2.9885,-3.0283,-3.061,-3.0747,-3.0819,-3.1017,-3.1269,-3.1584,-3.1941,-3.2214,-3.2316,-3.238,-3.2405,-3.2495,-3.2374,-3.2168,-3.3015,-3.3161,-3.283,-3.2975,-3.3346,-3.3523,-3.403,-3.4646,-3.5179,-3.5533,-3.5753,-3.595,-3.6223,-3.6286,-3.6665,-3.6949,-3.7506,-3.8007,-3.8477,-3.897,-3.9407,-3.9792,-4.0172,-4.045,-4.0635,-4.0767,-4.1179,-4.1592,-4.2421,-4.3306,-4.375,-4.3932,-4.4087,-4.4264,-4.4203,-4.3878,-4.3577,-4.3275,-4.3053,-4.2891,-4.2785,-4.2755,-4.2805,-4.2749,-4.2569,-4.2213,-4.1798,-4.1292,-4.0587,-3.9965,-3.9466,-3.8849,-3.8253,-3.8157,-3.8315,-3.8473,-3.8684,-3.8893,-3.9206,-3.9569,-3.9826,-4.0134,-4.0464,-4.0815,-4.1217,-3.2018,-3.1672,-3.1383,-3.0976,-3.0565,-3.0971,-3.121,-3.121,-3.1167,-3.1232,-3.1108,-3.045,-3.0174,-3.0104,-3.0013,-3.0058,-3.0149,-3.0076,-2.9831,-2.9177,-2.9305,-2.9049,-2.8806,-2.8835,-2.9148,-2.9579,-2.9719,-2.9595,-2.9532,-2.9275,-2.9107,-2.9282,-2.9332,-2.9503,-2.9907,-3.0154,-3.0366,-3.0524,-3.0683,-3.081,-3.1172,-3.1514,-3.1853,-3.2205,-3.2416,-3.2626,-3.2676,-3.2749,-3.2815,-3.2731,-3.2804,-3.3012,-3.2901,-3.2871,-3.3194,-3.343,-3.3805,-3.4311,-3.4758,-3.5146,-3.5368,-3.5533,-3.5643,-3.5863,-3.6246,-3.682,-3.7358,-3.7761,-3.8185,-3.8631,-3.9019,-3.9578,-4.0009,-4.029,-4.0526,-4.0963,-4.1582,-4.2128,-4.2911,-4.3668,-4.4033,-4.4188,-4.4106,-4.4203,-4.4039,-4.3819,-4.3598,-4.3295,-4.3129,-4.3042,-4.293,-4.2905,-4.2457,-4.227,-4.2215,-4.191,-4.1872,-4.1415,-4.0678,-4.0037,-3.9485,-3.8749,-3.8051,-3.808,-3.821,-3.8315,-3.8473,-3.8684,-3.8841,-3.905,-3.931,-3.9594,-3.9904,-4.0313,-4.0818,-3.173,-3.1383,-3.0859,-3.0683,-3.0832,-3.0823,-3.0971,-3.1252,-3.1021,-3.1076,-3.1132,-3.0573,-3.0131,-3.0012,-3.0067,-3.0193,-3.028,-3.0121,-2.9978,-2.96,-2.9421,-2.9136,-2.8857,-2.8879,-2.9181,-2.9501,-2.9622,-2.9444,-2.9405,-2.9275,-2.9196,-2.9282,-2.9275,-2.9492,-2.9626,-2.9839,-2.9952,-3.013,-3.0254,-3.0406,-3.0617,-3.091,-3.1313,-3.1615,-3.1896,-3.2125,-3.2224,-3.2324,-3.2088,-3.1938,-3.2415,-3.2732,-3.2857,-3.3107,-3.3095,-3.3038,-3.3466,-3.3918,-3.4311,-3.4813,-3.5091,-3.5312,-3.5478,-3.5643,-3.5972,-3.6549,-3.7089,-3.7441,-3.7814,-3.8238,-3.8704,-3.9287,-3.9795,-4.0078,-4.0439,-4.1157,-4.1878,-4.2664,-4.3401,-4.3844,-4.4206,-4.4203,-4.4148,-4.3984,-4.3819,-4.3628,-4.3517,-4.3295,-4.3129,-4.2986,-4.2762,-4.2526,-4.1583,-4.1348,-4.1583,-4.1706,-4.1717,-4.1328,-4.0616,-3.9992,-3.9474,-3.8929,-3.8359,-3.807,-3.808,-3.835,-3.8529,-3.8445,-3.8603,-3.8729,-3.8841,-3.9102,-3.931,-3.9698,-4.0262,-3.1383,-3.1054,-3.045,-3.0386,-3.0686,-3.0573,-3.0673,-3.1025,-3.1038,-3.1175,-3.1183,-3.052,-3.0056,-2.9999,-3.0137,-3.0263,-3.0384,-3.0337,-3.0012,-2.9758,-2.9597,-2.9193,-2.9017,-2.8939,-2.9158,-2.9478,-2.943,-2.9299,-2.9299,-2.9299,-2.9299,-2.925,-2.925,-2.9185,-2.925,-2.9299,-2.9299,-2.9561,-2.9709,-2.9839,-3.0035,-3.049,-3.0944,-3.1249,-3.1515,-3.1787,-3.191,-3.2079,-3.1973,-3.1816,-3.2137,-3.2552,-3.27,-3.283,-3.2839,-3.2903,-3.3239,-3.3692,-3.3974,-3.4367,-3.4813,-3.5035,-3.5312,-3.5478,-3.5643,-3.6223,-3.682,-3.7197,-3.7761,-3.8185,-3.8315,-3.877,-3.9247,-3.9603,-4.0067,-4.0711,-4.1638,-4.2656,-4.331,-4.3859,-4.4064,-4.4064,-4.401,-4.401,-4.3764,-4.3572,-4.3406,-4.3295,-4.3073,-4.2905,-4.2706,-4.2326,-4.1569,-4.1384,-4.1766,-4.1822,-4.1636,-4.1118,-4.0498,-4.0113,-3.9681,-3.92,-3.8719,-3.8623,-3.8623,-3.8737,-3.8797,-3.864,-3.8466,-3.8508,-3.8558,-3.8684,-3.8841,-3.9099,-3.9492,-3.1151,-3.0898,-3.0311,-3.0303,-3.06,-3.0525,-3.0604,-3.0935,-3.1322,-3.1423,-3.1322,-3.0437,-3.0223,-3.0194,-3.0059,-3.0183,-3.0266,-3.0188,-2.9981,-2.9906,-2.973,-2.9336,-2.9141,-2.9145,-2.9313,-2.9299,-2.925,-2.925,-2.9299,-2.9299,-2.9316,-2.925,-2.9053,-2.8856,-2.8922,-2.8725,-2.8527,-2.8922,-2.9119,-2.9119,-2.9578,-3.0165,-3.049,-3.0926,-3.1313,-3.168,-3.1825,-3.1917,-3.2018,-3.2005,-3.1879,-3.2154,-3.2426,-3.2479,-3.251,-3.2596,-3.2991,-3.3332,-3.3692,-3.4121,-3.4401,-3.4646,-3.5091,-3.5312,-3.5478,-3.5808,-3.6386,-3.7036,-3.7572,-3.7945,-3.8075,-3.8253,-3.8728,-3.9428,-3.9947,-4.0517,-4.1601,-4.2591,-4.314,-4.3713,-4.3844,-4.3844,-4.3844,-4.3789,-4.3653,-4.3462,-4.3351,-4.3184,-4.3073,-4.2874,-4.2706,-4.2481,-4.2026,-4.1938,-4.185,-4.1492,-4.1216,-4.1015,-4.0475,-4.0178,-3.9913,-3.9496,-3.9272,-3.9393,-3.9417,-3.9314,-3.9108,-3.8947,-3.8742,-3.8513,-3.8443,-3.85,-3.8534,-3.8721,-3.8761,-3.1152,-3.1347,-3.0951,-3.1022,-3.1401,-3.1475,-3.1408,-3.1288,-3.1596,-3.1653,-3.1295,-3.0954,-3.0649,-3.0378,-3.0325,-3.0343,-3.0242,-3.0136,-3.0172,-3.0242,-2.9722,-2.9426,-2.9148,-2.9034,-2.9216,-2.9185,-2.8988,-2.9053,-2.9185,-2.925,-2.9316,-2.9285,-2.8659,-2.8461,-2.8411,-2.8196,-2.8048,-2.8395,-2.879,-2.8922,-2.9185,-2.9578,-2.9691,-3.0083,-3.0408,-3.0797,-3.1083,-3.1368,-3.1492,-3.1621,-3.1783,-3.186,-3.1997,-3.221,-3.2284,-3.2313,-3.2711,-3.2991,-3.3332,-3.3784,-3.4065,-3.4367,-3.4702,-3.4924,-3.5035,-3.5202,-3.5918,-3.675,-3.7268,-3.7643,-3.7827,-3.7987,-3.8466,-3.9582,-4.0373,-4.1082,-4.1968,-4.2338,-4.276,-4.3229,-4.3598,-4.3543,-4.3406,-4.3406,-4.3376,-4.324,-4.3295,-4.3184,-4.3042,-4.2874,-4.2706,-4.2425,-4.2224,-4.1509,-4.0902,-4.0684,-4.0427,-4.0435,-4.0523,-4.0459,-4.0242,-3.9801,-3.9729,-3.9946,-3.9826,-3.9681,-3.9474,-3.9332,-3.9006,-3.8785,-3.8476,-3.8377,-3.8341,-3.8364,-3.8335]},{"header":{"parameterUnit":"m.s-1","parameterCategory":1,"la1":31.0,"la2":29.5877,"lo1":-88.7671,"lo2":-86.6584,"dy":0.0162,"dx":0.0185,"nx":115,"ny":88,"refTime":"2026-03-31T00:00:00:Z","depth":0,"parameterNumber":3,"parameterNumberName":"V-component_of_WINDS"},"data":[0.0,0.0,0.0,0.0,0.0,0.0,0.0,0.0,0.0,0.0,0.0,0.0,0.0,0.0,0.0,0.0,0.0,0.0,0.0,0.0,0.0,0.0,0.0,0.0,0.0,0.0,0.0,0.0,0.0,0.0,0.0,0.0,0.0,0.0,0.0,0.0,0.0,0.0,0.0,0.0,0.0,0.5732,0.6956,0.8088,0.8611,0.869,0.8398,0.0,0.0,0.0,0.0,0.0,0.0,0.0,0.0,0.0,0.0,0.0,0.0,0.0,0.0,0.0,0.0,0.0,0.0,0.0,0.0,0.0,0.0,0.0,0.0,0.0,0.0,0.0,0.0,0.0,0.0,0.0,0.0,0.0,0.0,0.0,0.0,0.0,0.0,0.0,0.0,0.0,0.0,0.0,0.0,0.0,0.0,0.0,0.0,0.0,0.0,0.0,0.0,0.0,0.0,0.0,0.0,0.0,0.0,0.0,0.0,0.0,0.0,0.0,0.0,0.0,0.0,0.0,0.0,0.0,0.0,0.0,0.0,0.0,0.0,0.0,0.0,0.0,0.0,0.0,0.0,0.0,0.0,0.0,0.0,0.0,0.0,0.0,0.0,0.0,0.0,0.0,0.0,0.0,0.0,0.0,0.0,0.0,0.0,0.0,0.0,0.0,0.0,0.0,0.0,0.0,0.0,0.0,0.0,0.0,0.0,0.72,0.8473,0.9051,0.9282,0.92,0.0,0.0,0.0,0.0,0.0,0.0,0.0,0.0,0.0,0.0,0.0,0.0,0.0,0.0,0.0,0.0,0.0,0.0,0.0,0.0,0.0,0.0,0.0,0.0,0.0,0.0,0.0,0.0,0.0,0.0,0.0,0.0,0.0,0.0,0.0,0.0,0.0,0.0,0.0,0.0,0.0,0.0,0.0,0.0,0.0,0.0,0.0,0.0,0.0,0.0,0.0,0.0,0.0,0.0,0.0,0.0,0.0,0.0,0.0,0.0,0.0,0.0,0.0,0.0,0.0,0.0,0.0,0.0,0.0,0.0,0.0,0.0,0.0,0.0,0.0,0.0,0.0,0.0,0.0,0.0,0.0,0.0,0.0,0.0,0.0,0.0,0.0,0.0,0.0,0.0,0.0,0.0,0.0,0.0,0.0,0.0,0.0,0.0,0.0,0.0,0.0,0.0,0.0,0.0,0.0,0.0,0.0,0.0,0.0,0.0,0.6663,0.755,0.867,0.913,0.8859,0.0,0.0,0.0,0.0,0.0,0.0,0.0,0.0,0.0,0.0,0.0,0.0,0.0,0.0,0.0,0.0,0.0,0.0,0.0,0.0,0.0,0.0,0.0,0.0,0.0,0.0,0.0,0.0,0.0,0.0,0.0,0.0,0.0,0.0,0.0,0.0,0.0,0.0,0.0,0.0,0.0,0.0,0.0,0.0,0.0,0.0,0.0,0.0,0.0,0.0,0.0,0.0,0.0,0.0,0.0,0.0,0.0,0.0,0.0,0.0,0.0,0.0,0.0,0.0,0.0,0.0,0.0,0.0,0.0,0.0,0.0,0.0,0.0,0.0,0.0,0.0,0.0,0.0,0.0,0.0,0.0,0.0,0.0,0.0,0.0,0.0,0.0,0.0,0.0,0.0,0.0,0.0,0.0,0.0,0.0,0.0,0.0,0.0,0.0,0.0,0.0,0.0,0.0,0.0,0.0,0.0,0.0,0.0,0.0,0.0,0.6371,0.7279,0.8456,0.9186,0.93,0.9432,0.0,0.0,0.0,0.0,0.0,0.0,0.0,0.0,0.0,0.0,0.0,0.0,0.0,0.0,0.0,0.0,0.0,0.0,0.0,0.0,0.0,0.0,0.0,0.0,0.0,0.0,0.0,0.0,0.0,0.0,0.0,0.0,0.0,0.0,0.0,0.0,0.0,0.0,0.0,0.0,0.0,0.0,0.0,0.0,0.0,0.0,0.0,0.0,0.0,0.0,0.0,0.0,0.0,0.0,0.0,0.0,0.0,0.0,0.0,0.0,0.0,0.0,0.0,0.0,0.0,0.0,0.0,0.0,0.0,0.0,0.0,0.0,0.0,0.0,0.0,0.0,0.0,0.0,0.0,0.0,0.0,0.0,0.0,0.0,0.0,0.0,0.0,0.0,0.0,0.0,0.0,0.0,0.0,0.0,0.0,0.0,0.0,0.0,0.0,0.0,0.0,0.0,0.0,0.0,0.0,0.0,0.0,0.0,0.0,0.6166,0.72,0.8381,0.9316,0.9838,0.9997,0.0,0.0,0.0,0.0,0.0,0.0,0.0,0.0,0.0,0.0,0.0,0.0,0.0,0.0,0.0,0.0,0.0,0.0,0.0,0.0,0.0,0.0,0.0,0.0,0.0,0.0,0.0,0.0,0.0,0.0,0.0,0.0,0.0,0.0,0.0,0.0,0.0,0.0,0.0,0.0,0.0,0.0,0.0,0.0,0.0,0.0,0.0,0.0,0.0,0.0,0.0,0.0,0.0,0.0,0.0,0.0,0.0,0.0,0.0,0.0,0.0,0.0,0.0,0.0,0.0,0.0,0.0,0.0,0.0,0.0,0.0,0.0,0.0,0.0,0.0,0.0,0.0,0.0,0.0,0.0,0.0,0.0,0.0,0.0,0.0,0.0,0.0,0.0,0.0,0.0,0.0,0.0,0.0,0.0,0.0,0.0,0.0,0.0,0.0,0.0,0.0,0.0,0.0,0.0,0.0,0.0,0.0,0.0,0.0,0.5646,0.6246,0.8154,0.9206,0.9195,1.0357,0.0,0.0,0.0,0.0,0.0,0.0,0.0,0.0,0.0,0.0,0.0,0.0,0.0,0.0,0.0,0.0,0.0,0.0,0.0,0.0,0.0,0.0,0.0,0.0,0.0,0.0,0.0,0.0,0.0,0.0,0.0,0.0,0.0,0.0,0.0,0.0,0.0,0.0,0.0,0.0,0.0,0.0,0.0,0.0,0.0,0.0,0.0,0.0,0.0,0.0,0.0,0.0,0.0,0.0,0.0,0.0,0.0,0.0,0.0,0.0,0.0,0.0,0.0,0.0,0.0,0.0,0.0,0.0,0.0,0.0,0.0,0.0,0.0,0.0,0.0,0.0,0.0,0.0,0.0,0.0,0.0,0.0,0.0,0.0,0.0,0.0,0.0,0.0,0.0,0.0,0.0,0.0,0.0,0.0,0.0,0.0,0.0,0.0,0.0,0.0,0.0,0.0,0.0,0.0,0.0,0.0,0.0,0.0,0.0,0.5552,0.6016,0.7795,0.903,0.9553,1.049,0.0,0.0,0.0,0.0,0.0,0.0,0.0,0.0,0.0,0.0,0.0,0.0,0.0,0.0,0.0,0.0,0.0,0.0,0.0,0.0,0.0,0.0,0.0,0.0,0.0,0.0,0.0,0.0,0.0,0.0,0.0,0.0,0.0,0.0,0.0,0.0,0.0,0.0,0.0,0.0,0.0,0.0,0.0,0.0,0.0,0.0,0.0,0.0,0.0,0.0,0.0,0.0,0.0,0.0,0.0,0.0,0.0,0.0,0.0,0.0,0.0,0.0,0.0,0.0,0.0,0.0,0.0,0.0,0.0,0.0,0.0,0.0,0.0,0.0,0.0,0.0,0.0,0.0,0.0,0.0,0.0,0.0,0.0,0.0,0.0,0.0,0.0,0.0,0.0,0.0,0.0,0.0,0.0,0.0,0.0,0.0,0.0,0.0,0.0,0.0,0.0,0.0,0.0,0.0,0.0,0.0,0.0,0.0,0.5253,0.5603,0.599,0.7561,0.8997,1.0218,1.0788,0.0,0.0,0.0,0.0,0.0,0.0,0.0,0.0,0.0,0.0,0.0,0.0,0.0,0.0,0.0,0.0,0.0,0.0,0.0,0.0,0.0,0.0,0.0,0.0,0.0,0.0,0.0,0.0,0.0,0.0,0.0,0.0,0.0,0.0,0.0,0.0,0.0,0.0,0.0,0.0,0.0,0.0,0.0,0.0,0.0,0.0,0.0,0.0,0.0,0.0,0.0,0.0,0.0,0.0,0.0,0.0,0.0,0.0,0.0,0.0,0.0,0.0,0.0,0.0,0.0,0.0,0.0,0.0,0.0,0.0,0.0,0.0,0.0,0.0,0.0,0.0,0.0,0.0,0.0,0.0,0.0,0.0,0.0,0.0,0.0,0.0,0.0,0.0,0.0,0.0,0.0,0.0,0.0,0.0,0.0,0.0,0.0,0.0,0.0,0.0,0.0,0.0,0.0,0.0,0.0,0.0,0.0,0.5642,0.555,0.5701,0.6029,0.7951,0.9467,1.0531,1.1713,0.0,0.0,0.0,0.0,0.0,0.0,0.0,0.0,0.0,0.0,0.0,0.0,0.0,0.0,0.0,0.0,0.0,0.0,0.0,0.0,0.0,0.0,0.0,0.0,0.0,0.0,0.0,0.0,0.0,0.0,0.0,0.0,0.0,0.0,0.0,0.0,0.0,0.0,0.0,0.0,0.0,0.0,0.0,0.0,0.0,0.0,0.0,0.0,0.0,0.0,0.0,0.0,0.0,0.0,0.0,0.0,0.0,0.0,0.0,0.0,0.0,0.0,0.0,0.0,0.0,0.0,0.0,0.0,0.0,0.0,0.0,0.0,0.0,0.0,0.0,0.0,0.0,0.0,0.0,0.0,0.0,0.0,0.0,0.0,0.0,0.0,0.0,0.0,0.0,0.0,0.0,0.0,0.0,0.0,0.0,0.0,0.0,0.0,0.0,0.0,0.0,0.0,0.0,0.0,0.0,0.0,0.7827,0.64,0.6038,0.6163,0.6743,0.8082,0.953,1.1174,1.2286,0.0,0.0,0.0,0.0,0.0,0.0,0.0,0.0,0.0,0.0,0.0,0.0,0.0,0.0,0.0,0.0,0.0,0.0,0.0,0.0,0.0,0.0,0.0,0.0,0.0,0.0,0.0,0.0,0.0,0.0,0.0,0.0,0.0,0.0,0.0,0.0,0.0,0.0,0.0,0.0,0.0,0.0,0.0,0.0,0.0,0.0,0.0,0.0,0.0,0.0,0.0,0.0,0.0,0.0,0.0,0.0,0.0,0.0,0.0,0.0,0.0,0.0,0.0,0.0,0.0,0.0,0.0,0.0,0.0,0.0,0.0,0.0,0.0,0.0,0.0,0.0,0.0,0.0,0.0,0.0,0.0,0.0,0.0,0.0,0.0,0.0,0.0,0.0,0.0,0.0,0.0,0.0,0.0,0.0,0.0,0.0,0.0,0.0,0.0,0.0,0.0,0.0,0.0,0.0,0.0,0.0,0.8517,0.7096,0.6473,0.6606,0.7343,0.7923,0.9308,1.1598,0.0,0.0,0.0,0.0,0.0,0.0,0.0,0.0,0.0,0.0,0.0,0.0,0.0,0.0,0.0,0.0,0.0,0.0,0.0,0.0,0.0,0.0,0.0,0.0,0.0,0.0,0.0,0.0,0.0,0.0,0.0,0.0,0.0,0.0,0.0,0.0,0.0,0.0,0.0,0.0,0.0,0.0,0.0,0.0,0.0,0.0,0.0,0.0,0.0,0.0,0.0,0.0,0.0,0.0,0.0,0.0,0.0,0.0,0.0,0.0,0.0,0.0,0.0,0.0,0.0,0.0,0.0,0.0,0.0,0.0,0.0,0.0,0.0,0.0,0.0,0.0,0.0,0.0,0.0,0.0,0.0,0.0,0.0,0.0,0.0,0.0,0.0,0.0,0.0,0.0,0.0,0.0,0.0,0.0,0.0,0.0,0.0,0.0,0.0,0.0,0.0,0.0,0.0,0.0,0.0,0.0,0.0,0.9051,0.739,0.6865,0.6865,0.7285,0.7328,0.863,1.1174,0.0,0.0,0.0,0.0,0.0,0.0,0.0,0.0,0.0,0.0,0.0,0.0,0.0,0.0,0.0,0.0,0.0,0.0,0.0,0.0,0.0,0.0,0.0,0.0,0.0,0.0,0.0,0.0,0.0,0.0,0.0,0.0,0.0,0.0,0.0,0.0,0.0,0.0,0.0,0.0,0.0,0.0,0.0,0.0,0.0,0.0,0.0,0.0,0.0,0.0,0.0,0.0,0.0,0.0,0.0,0.0,0.0,0.0,0.0,0.0,0.0,0.0,0.0,0.0,0.0,0.0,0.0,0.0,0.0,0.0,0.0,0.0,0.0,0.0,0.0,0.0,0.0,0.0,0.0,0.0,0.0,0.0,0.0,0.0,0.0,0.0,0.0,0.0,0.0,0.0,0.0,0.0,0.0,0.0,0.0,0.0,0.0,0.0,0.0,0.0,0.0,0.0,0.0,0.0,0.0,0.0,1.1329,0.9757,0.8366,0.7385,0.7017,0.7363,0.9067,1.0624,1.1917,0.0,0.0,0.0,0.0,0.0,0.0,0.0,0.0,0.0,0.0,0.0,0.0,0.0,0.0,0.0,0.0,0.0,0.0,0.0,0.0,0.0,0.0,0.0,0.0,0.0,0.0,0.0,0.0,0.0,0.0,0.0,0.0,0.0,0.0,0.0,0.0,0.0,0.0,0.0,0.0,0.0,0.0,0.0,0.0,0.0,0.0,0.0,0.0,0.0,0.0,0.0,0.0,0.0,0.0,0.0,0.0,0.0,0.0,0.0,0.0,0.0,0.0,0.0,0.0,0.0,0.0,0.0,0.0,0.0,0.0,0.0,0.0,0.0,0.0,0.0,0.0,0.0,0.0,0.0,0.0,0.0,0.0,0.0,0.0,0.0,0.0,0.0,0.0,0.0,0.0,0.0,0.0,0.0,0.0,0.0,0.0,0.0,0.0,0.0,0.0,0.0,0.0,0.0,0.0,0.0,1.3433,1.1981,1.0533,0.9108,0.7969,0.7423,0.7545,0.9593,1.1261,1.2347,0.0,0.0,0.0,0.0,0.0,0.0,0.0,0.0,0.0,0.0,0.0,0.0,0.0,0.0,0.0,0.0,0.0,0.0,0.0,0.0,0.0,0.0,0.0,0.0,0.0,0.0,0.0,0.0,0.0,0.0,0.0,0.0,0.0,0.0,0.0,0.0,0.0,0.0,0.0,0.0,0.0,0.0,0.0,0.0,0.0,0.0,0.0,0.0,0.0,0.0,0.0,0.0,0.0,0.0,0.0,0.0,0.0,0.0,0.0,0.0,0.0,0.0,0.0,0.0,0.0,0.0,0.0,0.0,0.0,0.0,0.0,0.0,0.0,0.0,0.0,0.0,0.0,0.0,0.0,0.0,0.0,0.0,0.0,0.0,0.0,0.0,0.0,0.0,0.0,0.0,0.0,0.0,0.0,0.0,0.0,0.0,0.0,0.0,0.0,0.0,0.0,0.0,0.0,0.0,0.0,0.0,1.281,1.1253,0.9284,0.8629,0.8102,0.7603,0.7824,0.9266,1.2057,0.0,0.0,0.0,0.0,0.0,0.0,0.0,0.0,0.0,0.0,0.0,0.0,0.0,0.0,0.0,0.0,0.0,0.0,0.0,0.0,0.0,0.0,0.0,0.0,0.0,0.0,0.0,0.0,0.0,0.0,0.0,0.0,0.0,0.0,0.0,0.0,0.0,0.0,0.0,0.0,0.0,0.0,0.0,0.0,0.0,0.0,0.0,0.0,0.0,0.0,0.0,0.0,0.0,0.0,0.0,0.0,0.0,0.0,0.0,0.0,0.0,0.0,0.0,0.0,0.0,0.0,0.0,0.0,0.0,0.0,0.0,0.0,0.0,0.0,0.0,0.0,0.0,0.0,0.0,0.0,0.0,0.0,0.0,0.0,0.0,0.0,0.0,0.0,0.0,0.0,0.0,0.0,0.0,0.0,0.0,0.0,0.0,0.0,0.0,0.0,0.0,0.0,0.0,0.0,0.0,0.0,1.3326,1.1753,1.0397,0.9228,0.8145,0.7279,0.9568,1.1149,1.1696,0.0,0.0,0.0,0.0,0.0,0.0,0.0,0.0,0.0,0.0,0.0,0.0,0.0,0.0,0.0,0.0,0.0,0.0,0.0,0.0,0.0,0.0,0.0,0.0,0.0,0.0,0.0,0.0,0.0,0.0,0.0,0.0,0.0,0.0,0.0,0.0,0.0,0.0,0.0,0.0,0.0,0.0,0.0,0.0,0.0,0.0,0.0,0.0,0.0,0.0,0.0,0.0,0.0,0.0,0.0,0.0,0.0,0.0,0.0,0.0,0.0,0.0,0.0,0.0,0.0,0.0,0.0,0.0,0.0,0.0,0.0,0.0,0.0,0.0,0.0,0.0,0.0,0.0,0.0,0.0,0.0,0.0,0.0,0.0,0.0,0.0,0.0,0.0,0.0,0.0,0.0,0.0,0.0,0.0,0.0,0.0,0.0,0.0,0.0,0.0,0.0,0.0,0.0,0.0,0.0,0.0,1.3867,1.2166,1.051,0.9097,0.8205,0.8023,1.0422,1.2045,0.0,0.0,0.0,0.0,0.0,0.0,0.0,0.0,0.0,0.0,0.0,0.0,0.0,0.0,0.0,0.0,0.0,0.0,0.0,0.0,0.0,0.0,0.0,0.0,0.0,0.0,0.0,0.0,0.0,0.0,0.0,0.0,0.0,0.0,0.0,0.0,0.0,0.0,0.0,0.0,0.0,0.0,0.0,0.0,0.0,0.0,0.0,0.0,0.0,0.0,0.0,0.0,0.0,0.0,0.0,0.0,0.0,0.0,0.0,0.0,0.0,0.0,0.0,0.0,0.0,0.0,0.0,0.0,0.0,0.0,0.0,0.0,0.0,0.0,0.0,0.0,0.0,0.0,0.0,0.0,0.0,0.0,0.0,0.0,0.0,0.0,0.0,0.0,0.0,0.0,0.0,0.0,0.0,0.0,0.0,0.0,0.0,0.0,0.0,0.0,0.0,0.0,0.0,0.0,0.0,0.0,0.0,1.4517,1.2491,0.957,0.8418,0.8524,0.9911,1.0108,1.1719,0.0,0.0,0.0,0.0,0.0,0.0,0.0,0.0,0.0,0.0,0.0,0.0,0.0,0.0,0.0,0.0,0.0,0.0,0.0,0.0,0.0,0.0,0.0,0.0,0.0,0.0,0.0,0.0,0.0,0.0,0.0,0.0,0.0,0.0,0.0,0.0,0.0,0.0,0.0,0.0,0.0,0.0,0.0,0.0,0.0,0.0,0.0,0.0,0.0,0.0,0.0,0.0,0.0,0.0,0.0,0.0,0.0,0.0,0.0,0.0,0.0,0.0,0.0,0.0,0.0,0.0,0.0,0.0,0.0,0.0,0.0,0.0,0.0,0.0,0.0,0.0,0.0,0.0,0.0,0.0,0.0,0.0,0.0,0.0,0.0,0.0,0.0,0.0,0.0,0.0,0.0,0.0,0.0,0.0,0.0,0.0,0.0,0.0,0.0,0.0,0.0,0.0,0.0,0.0,0.0,0.0,0.0,1.3532,1.1881,1.0169,1.0095,0.9681,0.8919,1.1464,1.3065,1.3398,0.0,0.0,0.0,0.0,0.0,0.0,0.0,0.0,0.0,0.0,0.0,0.0,0.0,0.0,0.0,0.0,0.0,0.0,0.0,0.0,0.0,0.0,0.0,0.0,0.0,0.0,0.0,0.0,0.0,0.0,0.0,0.0,0.0,0.0,0.0,0.0,0.0,0.0,0.0,0.0,0.0,0.0,0.0,0.0,0.0,0.0,0.0,0.0,0.0,0.0,0.0,0.0,0.0,0.0,0.0,0.0,0.0,0.0,0.0,0.0,0.0,0.0,0.0,0.0,0.0,0.0,0.0,0.0,0.0,0.0,0.0,0.0,0.0,0.0,0.0,0.0,0.0,0.0,0.0,0.0,0.0,0.0,0.0,0.0,0.0,0.0,0.0,0.0,0.0,0.0,0.0,0.0,0.0,0.0,0.0,0.0,0.0,0.0,0.0,0.0,0.0,0.0,0.0,0.0,0.0,0.0,1.3561,1.2149,1.0705,1.0396,0.9949,0.9281,1.2116,1.3712,1.4018,0.0,0.0,0.0,0.0,0.0,0.0,0.0,0.0,0.0,0.0,0.0,0.0,0.0,0.0,0.0,0.0,0.0,0.0,0.0,0.0,0.0,0.0,0.0,0.0,0.0,0.0,0.0,0.0,0.0,0.0,0.0,0.0,0.0,0.0,0.0,0.0,0.0,0.0,0.0,0.0,0.0,0.0,0.0,0.0,0.0,0.0,0.0,0.0,0.0,0.0,0.0,0.0,0.0,0.0,0.0,0.0,0.0,0.0,0.0,0.0,0.0,0.0,0.0,0.0,0.0,0.0,0.0,0.0,0.0,0.0,0.0,0.0,0.0,0.0,0.0,0.0,0.0,0.0,0.0,0.0,0.0,0.0,0.0,0.0,0.0,0.0,0.0,0.0,0.0,0.0,0.0,0.0,0.0,0.0,0.0,0.0,0.0,0.0,0.0,0.0,0.0,0.0,0.0,0.0,0.0,0.0,0.0,1.3147,1.1197,0.9747,0.9724,1.1018,1.2146,1.383,1.6087,0.0,0.0,0.0,0.0,0.0,0.0,0.0,0.0,0.0,0.0,0.0,0.0,0.0,0.0,0.0,0.0,0.0,0.0,0.0,0.0,0.0,0.0,0.0,0.0,0.0,0.0,0.0,0.0,0.0,0.0,0.0,0.0,0.0,0.0,0.0,0.0,0.0,0.0,0.0,0.0,0.0,0.0,0.0,0.0,0.0,0.0,0.0,0.0,0.0,0.0,0.0,0.0,0.0,0.0,0.0,0.0,0.0,0.0,0.0,0.0,0.0,0.0,0.0,0.0,0.0,0.0,0.0,0.0,0.0,0.0,0.0,0.0,0.0,0.0,0.0,0.0,0.0,0.0,0.0,0.0,0.0,0.0,0.0,0.0,0.0,0.0,0.0,0.0,0.0,0.0,0.0,0.0,0.0,0.0,0.0,0.0,0.0,0.0,0.0,0.0,0.0,0.0,0.0,0.0,0.0,0.0,1.5647,1.4565,1.3392,1.2864,1.2118,1.1173,1.2776,1.4329,1.5655,0.0,0.0,0.0,0.0,0.0,0.0,0.0,0.0,0.0,0.0,0.0,0.0,0.0,0.0,0.0,0.0,0.0,0.0,0.0,0.0,0.0,0.0,0.0,0.0,0.0,0.0,0.0,0.0,0.0,0.0,0.0,0.0,0.0,0.0,0.0,0.0,0.0,0.0,0.0,0.0,0.0,0.0,0.0,0.0,0.0,0.0,0.0,0.0,0.0,0.0,0.0,0.0,0.0,0.0,0.0,0.0,0.0,0.0,0.0,0.0,0.0,0.0,0.0,0.0,0.0,0.0,0.0,0.0,0.0,0.0,0.0,0.0,0.0,0.0,0.0,0.0,0.0,0.0,0.0,0.0,0.0,0.0,0.0,0.0,0.0,0.0,0.0,0.0,0.0,0.0,0.0,0.0,0.0,0.0,0.0,0.0,0.0,0.0,0.0,0.0,0.0,0.0,0.0,0.0,0.0,0.0,1.7239,1.6252,1.5466,1.4976,1.422,1.3235,1.4154,1.5192,1.6213,0.0,0.0,0.0,0.0,0.0,0.0,0.0,0.0,0.0,0.0,0.0,0.0,0.0,0.0,0.0,0.0,0.0,0.0,0.0,0.0,0.0,0.0,0.0,0.0,0.0,0.0,0.0,0.0,0.0,0.0,0.0,0.0,0.0,0.0,0.0,0.0,0.0,0.0,0.0,0.0,0.0,0.0,0.0,0.0,0.0,0.0,0.0,0.0,0.3339,0.0,0.0,0.0,0.0,0.0,0.0,0.0,0.0,0.0,0.0,0.0,0.0,0.0,0.0,0.0,0.0,0.0,0.0,0.0,0.0,0.0,0.0,0.0,0.0,0.0,0.0,0.0,0.0,0.0,0.0,0.0,0.0,0.0,0.0,0.0,0.0,0.0,0.0,0.0,0.0,0.0,0.0,0.0,0.0,0.0,0.0,0.0,0.0,0.0,0.0,0.0,0.0,0.0,0.0,0.0,2.0546,2.0297,1.9313,1.833,1.7552,1.6583,1.6204,1.6379,1.5925,1.6203,1.7377,0.0,0.0,0.0,0.0,0.0,0.0,0.0,0.0,0.0,0.0,0.0,0.0,0.0,0.0,0.0,0.0,0.0,0.0,0.0,0.0,0.0,0.0,0.0,0.0,0.0,0.0,0.0,0.0,0.0,0.0,0.0,0.0,0.0,0.0,0.0,0.0,0.0,0.0,0.0,0.0,0.0,0.0,0.0,0.0,0.0,0.0,0.0,0.513,0.4185,0.0,0.0,0.0,0.0,0.0,0.0,0.0,0.0,0.0,0.0,0.0,0.0,0.0,0.0,0.0,0.0,0.0,0.0,0.0,0.0,0.0,0.0,0.0,0.0,0.0,0.0,0.0,2.3049,0.0,2.2402,0.0,0.0,0.0,0.0,0.0,0.0,0.0,0.0,0.0,0.0,0.0,0.0,0.0,0.0,0.0,0.0,0.0,0.0,0.0,0.0,0.0,0.0,0.0,0.0,2.3109,2.2811,2.3597,2.2314,2.1124,2.0266,1.9193,1.8556,1.836,1.7149,1.7123,1.8366,0.0,0.0,0.0,0.0,0.0,0.0,0.0,0.0,0.0,0.0,0.0,0.0,0.0,0.0,0.0,0.0,0.0,0.0,0.0,0.0,0.0,0.0,0.0,0.0,0.0,0.0,0.0,0.0,0.0,0.0,0.0,0.0,0.0,0.0,0.0,0.0,0.0,0.0,0.0,0.0,0.0,0.0,0.0,0.0,0.0,0.0,0.0,0.7035,0.0,0.0,0.0,0.0,0.0,0.0,0.0,0.0,0.0,0.0,0.0,0.0,0.0,0.0,0.0,0.0,0.0,0.0,0.0,0.0,0.0,0.0,0.0,0.0,0.0,0.0,0.0,0.0,2.4201,2.3598,2.313,0.0,0.0,0.0,0.0,0.0,0.0,0.0,0.0,0.0,0.0,0.0,0.0,0.0,0.0,0.0,0.0,0.0,0.0,0.0,0.0,0.0,0.0,0.0,2.4707,2.4318,2.4637,2.5681,2.4666,2.368,2.2833,2.0979,1.9751,1.9157,1.8412,1.836,1.9062,0.0,0.0,0.0,0.0,0.0,0.0,0.0,0.0,0.0,0.0,0.0,0.0,0.0,0.0,0.0,0.0,0.0,0.0,0.0,0.0,0.0,0.0,0.0,0.0,0.0,0.0,0.0,0.0,0.0,0.0,0.0,0.0,0.0,0.0,0.0,0.0,0.0,1.2554,1.2383,0.0,0.0,0.0,0.0,0.0,0.0,0.0,0.0,0.8164,0.7474,0.0,0.0,0.0,0.0,0.0,0.0,0.0,0.0,0.0,0.0,0.0,0.0,0.0,0.0,0.0,0.0,0.0,0.0,0.0,0.0,0.0,0.0,0.0,0.0,0.0,0.0,0.0,2.5488,2.4869,2.4053,0.0,0.0,0.0,0.0,0.0,0.0,0.0,0.0,0.0,0.0,0.0,0.0,0.0,0.0,0.0,0.0,0.0,0.0,0.0,0.0,0.0,0.0,0.0,2.4798,2.549,2.6453,2.7574,2.7064,2.6252,2.5236,2.2648,2.0698,1.9579,1.9497,1.951,1.9622,0.0,0.0,0.0,0.0,0.0,0.0,0.0,0.0,0.0,0.0,0.0,0.0,0.0,0.0,0.0,0.0,0.0,0.0,0.0,0.0,0.0,0.0,0.0,0.0,0.0,0.0,0.0,0.0,0.0,0.0,0.0,0.0,0.0,0.0,0.0,0.0,0.0,1.2551,1.3174,1.267,1.2114,0.0,0.0,0.0,0.0,0.0,0.0,0.0,0.8496,0.7868,0.7019,0.0,0.0,0.0,0.0,0.0,0.0,0.0,0.0,0.0,0.0,0.0,0.0,0.0,0.0,0.0,0.0,0.0,0.0,0.0,0.0,0.0,0.0,0.0,0.0,0.0,2.5883,2.543,2.5166,0.0,0.0,0.0,0.0,0.0,0.0,0.0,0.0,0.0,0.0,0.0,0.0,0.0,0.0,0.0,0.0,0.0,0.0,0.0,0.0,0.0,0.0,0.0,0.0,2.8061,2.879,3.0822,3.0288,2.9172,2.7317,2.4968,2.2778,2.0756,2.0141,2.0001,2.02,2.1072,0.0,0.0,0.0,0.0,0.0,0.0,0.0,0.0,0.0,0.0,0.0,0.0,0.0,0.0,0.0,0.0,0.0,0.0,0.0,0.0,0.0,0.0,0.0,0.0,0.0,0.0,0.0,0.0,0.0,0.0,0.0,0.0,0.0,0.0,0.0,0.0,1.3652,1.416,1.4045,1.3588,1.2709,0.0,0.0,0.0,0.0,0.0,1.127,0.9597,0.8475,0.8969,0.7491,0.0,0.0,0.0,0.0,0.0,0.0,0.0,0.0,0.0,0.0,0.0,0.0,0.0,0.0,0.0,0.0,0.0,0.0,0.0,0.0,0.0,0.0,0.0,0.0,2.7027,2.6412,2.5882,2.5101,2.4652,0.0,0.0,0.0,0.0,2.3203,0.0,0.0,0.0,0.0,0.0,0.0,0.0,0.0,0.0,0.0,0.0,0.0,0.0,0.0,0.0,0.0,0.0,2.9005,3.0188,3.2154,3.2157,3.1159,2.9193,2.699,2.4595,2.2009,2.1198,2.0759,2.0649,0.0,0.0,0.0,0.0,0.0,0.0,0.0,0.0,0.0,0.0,0.0,0.0,0.0,0.0,0.0,0.0,0.0,0.0,0.0,0.0,0.0,0.0,0.0,0.0,0.0,0.0,0.0,0.0,0.0,0.0,0.0,0.0,0.0,0.0,0.0,0.0,0.0,0.0,1.4712,1.4486,1.4223,1.4138,1.423,1.3917,1.2932,1.2454,1.2338,1.2543,1.0958,0.9834,1.0208,0.0,0.0,0.0,0.0,0.0,0.0,0.0,0.0,0.0,0.0,0.0,0.0,0.0,0.0,0.0,0.0,0.0,0.0,0.0,0.0,0.0,0.0,0.0,0.0,0.0,0.0,2.726,2.659,2.5962,2.5577,2.5384,0.0,0.0,0.0,2.4395,2.4585,0.0,0.0,0.0,0.0,0.0,0.0,0.0,0.0,0.0,0.0,0.0,0.0,0.0,0.0,0.0,0.0,2.9915,3.1575,3.3573,3.3866,3.3195,3.1482,2.9128,2.6508,2.3595,2.2445,2.1577,2.1024,0.0,0.0,0.0,0.0,0.0,0.0,0.0,0.0,0.0,0.0,0.0,0.0,0.0,0.0,0.0,0.0,0.0,0.0,0.0,0.0,0.0,0.0,0.0,0.0,0.0,0.0,0.0,0.0,0.0,0.0,0.0,0.0,0.0,0.0,0.0,0.0,0.0,0.0,0.0,1.4782,1.4715,1.5373,1.5319,1.4984,1.4292,1.3972,1.3789,1.3624,1.2502,1.16,0.0,0.0,0.0,0.0,0.0,0.0,0.0,0.0,0.0,0.0,0.0,0.0,0.0,0.0,0.0,0.0,0.0,0.0,0.0,0.0,0.0,0.0,3.2554,3.083,0.0,0.0,2.804,2.7538,2.754,2.6833,2.639,2.6203,2.6363,2.5834,0.0,2.5701,2.5749,2.5346,0.0,0.0,0.0,0.0,0.0,0.0,0.0,0.0,0.0,0.0,0.0,0.0,0.0,0.0,0.0,0.0,3.3596,3.5995,3.6293,3.5974,3.4981,3.2031,2.8939,2.5882,2.3891,2.2333,2.1328,0.0,0.0,0.0,0.0,0.0,0.0,0.0,0.0,0.0,0.0,0.0,0.0,0.0,0.0,0.0,0.0,0.0,0.0,0.0,0.0,0.0,0.0,0.0,0.0,0.0,1.5588,0.0,0.0,0.0,0.0,0.0,0.0,0.0,0.0,0.0,0.0,0.0,0.0,0.0,0.0,1.5568,1.5668,1.589,1.5883,1.5395,1.5351,1.5239,1.4938,1.4375,1.369,0.0,0.0,0.0,0.0,0.0,0.0,0.0,0.0,0.0,0.0,0.0,0.0,0.0,0.0,0.0,0.0,0.0,0.0,0.0,0.0,0.0,0.0,3.357,3.252,3.1539,3.0693,2.9559,2.9,2.8716,2.7782,2.7225,2.7093,2.6993,2.664,2.6148,2.6457,2.6535,2.6332,0.0,0.0,0.0,0.0,0.0,0.0,0.0,0.0,0.0,0.0,0.0,0.0,2.7693,2.9038,3.1283,3.2528,3.459,3.7422,3.8176,3.7986,3.695,3.5178,3.2457,2.865,2.6582,2.455,0.0,0.0,0.0,0.0,0.0,0.0,0.0,0.0,0.0,0.0,0.0,0.0,0.0,0.0,0.0,0.0,0.0,0.0,0.0,0.0,0.0,0.0,0.0,0.0,0.0,1.7096,1.7049,1.6723,0.0,0.0,0.0,0.0,0.0,0.0,0.0,0.0,0.0,0.0,0.0,0.0,0.0,1.6524,1.7048,1.7256,1.7191,1.6854,1.6597,1.6412,1.6337,1.5454,1.4626,0.0,0.0,0.0,0.0,0.0,0.0,0.0,0.0,0.0,0.0,0.0,0.0,0.0,0.0,0.0,0.0,0.0,0.0,3.5657,3.5629,3.5217,3.4877,3.4496,3.3562,3.2559,3.1514,3.0567,2.9912,2.9439,2.8425,2.8033,2.8021,2.77,2.7475,2.7348,2.7297,2.7327,2.7412,2.7539,0.0,0.0,0.0,0.0,0.0,0.0,0.0,0.0,0.0,0.0,2.727,2.7955,2.947,3.1723,3.325,3.5588,3.8639,3.9942,4.023,3.9357,3.8345,3.5943,3.2183,2.9722,2.7193,0.0,0.0,0.0,0.0,0.0,0.0,0.0,0.0,0.0,0.0,0.0,0.0,0.0,0.0,0.0,0.0,0.0,0.0,0.0,0.0,0.0,0.0,0.0,1.9613,1.8843,1.8573,1.8408,1.8207,1.8484,0.0,1.8979,0.0,0.0,0.0,0.0,0.0,0.0,0.0,0.0,0.0,0.0,1.739,1.8372,1.8489,1.8436,1.8324,1.787,1.7558,1.749,1.6727,1.5942,0.0,0.0,0.0,0.0,0.0,0.0,0.0,0.0,0.0,0.0,0.0,0.0,0.0,0.0,0.0,0.0,0.0,0.0,3.6414,3.6322,3.5271,3.4854,3.4864,3.2815,3.17,3.1149,3.0111,2.945,2.9108,2.8747,2.8708,2.8982,2.8795,2.8677,2.8528,2.8439,2.847,2.8573,2.8198,0.0,0.0,0.0,0.0,0.0,0.0,0.0,0.0,0.0,0.0,2.7029,2.8015,2.9502,3.1448,3.4146,3.6957,3.9743,4.1762,4.2967,4.3315,4.1268,3.9019,3.6713,3.3193,3.0007,0.0,0.0,0.0,0.0,0.0,0.0,0.0,0.0,0.0,0.0,0.0,0.0,0.0,0.0,0.0,0.0,0.0,0.0,0.0,0.0,0.0,0.0,0.0,0.0,1.99,1.9678,1.9216,1.8202,1.8529,1.8889,1.9084,0.0,0.0,0.0,0.0,0.0,0.0,0.0,0.0,0.0,0.0,1.8034,1.9151,1.9272,1.9343,1.959,1.9207,1.8732,1.8378,1.8642,1.8298,1.6503,1.6236,1.5959,0.0,0.0,0.0,0.0,0.0,0.0,0.0,0.0,0.0,0.0,0.0,0.0,0.0,0.0,0.0,3.7404,3.6844,3.6056,3.5543,3.503,3.3401,3.2538,3.2028,3.0678,3.0132,3.0215,2.9411,2.9206,2.9425,2.9243,2.9129,2.9114,2.9478,2.9887,3.0431,3.255,0.0,0.0,0.0,0.0,0.0,0.0,0.0,0.0,0.0,0.0,2.7147,2.8043,2.9587,3.1726,3.4544,3.7467,4.0526,4.2591,4.3938,4.4537,4.3653,4.1997,3.9596,3.6425,3.3242,3.0093,0.0,0.0,0.0,0.0,0.0,0.0,0.0,0.0,0.0,0.0,0.0,0.0,0.0,0.0,0.0,0.0,0.0,0.0,0.0,0.0,0.0,0.0,0.0,0.0,2.1201,2.08,2.0037,2.0312,2.0416,2.0118,2.0032,0.0,0.0,0.0,0.0,0.0,0.0,0.0,1.8766,0.0,2.0165,2.0943,2.1186,2.1092,2.0632,2.072,2.0407,1.9198,1.9131,1.8884,1.7971,1.7387,1.6836,1.6401,0.0,0.0,0.0,0.0,0.0,0.0,0.0,0.0,0.0,0.0,0.0,0.0,0.0,0.0,3.873,3.7565,3.7057,3.6483,3.5689,3.4248,3.3354,3.2723,3.1334,3.0785,3.0749,2.9942,2.9726,2.9924,2.9986,2.9971,3.0013,3.0735,3.1742,3.3212,3.6826,3.7917,0.0,0.0,0.0,0.0,0.0,0.0,0.0,0.0,0.0,2.7111,2.8122,2.9649,3.1712,3.4935,3.8091,4.1055,4.3497,4.5173,4.6084,4.5742,4.4595,4.2639,3.9733,3.6669,3.3556,0.0,0.0,0.0,0.0,2.4331,0.0,0.0,0.0,0.0,0.0,0.0,0.0,0.0,0.0,0.0,0.0,0.0,0.0,0.0,0.0,0.0,0.0,0.0,0.0,0.0,2.2053,2.1289,2.1299,2.1261,2.089,2.0967,2.1047,2.1008,0.0,0.0,0.0,0.0,0.0,0.0,2.0801,2.1614,2.224,2.2518,2.2464,2.1944,2.2016,2.166,2.0448,2.0195,1.9913,1.9206,1.8576,1.813,1.7898,1.7091,1.6227,1.5433,1.3428,1.1316,0.9702,0.0,0.0,0.0,0.0,0.0,0.0,0.0,0.0,4.0463,3.8387,3.8091,3.7676,3.7058,3.5263,3.4127,3.3419,3.2313,3.1436,3.0271,3.0336,3.041,3.0567,3.1196,3.1483,3.1583,3.2288,3.4079,3.6868,4.0573,4.1861,4.1148,4.1062,3.9924,3.7584,3.2705,2.9312,2.774,2.7587,2.7514,2.6979,2.8234,2.9687,3.1207,3.5439,3.8854,4.13,4.4625,4.698,4.8182,4.7548,4.6773,4.5981,4.3089,4.0261,3.7639,0.0,0.0,0.0,0.0,2.6218,0.0,0.0,0.0,0.0,0.0,0.0,0.0,0.0,0.0,0.0,0.0,0.0,0.0,0.0,0.0,0.0,0.0,0.0,0.0,0.0,2.2806,2.1556,2.1121,2.1054,2.1278,2.1875,2.2328,0.0,0.0,0.0,0.0,0.0,2.1249,2.1304,2.1594,2.2085,2.283,2.2983,2.3239,2.3741,2.3042,2.2352,2.2132,2.222,2.1747,2.0076,1.9957,0.0,0.0,0.0,0.0,0.0,0.0,0.0,0.0,0.0,0.0,0.0,0.0,0.0,0.0,0.0,0.0,4.2341,4.0181,4.0029,4.0246,4.0357,3.8334,3.8581,4.0153,3.8015,3.6355,3.5155,3.4722,3.3406,3.1571,3.1788,3.2479,3.3605,3.5833,3.8615,4.1777,4.4599,4.6006,4.6118,4.6088,4.4979,4.2786,3.9625,3.5469,3.0925,3.1765,3.0821,2.8083,2.9316,3.0583,3.1506,3.5632,3.884,4.1036,4.3935,4.6154,4.7633,4.7504,4.7209,4.6717,4.4812,4.173,3.7412,3.3617,0.0,0.0,2.7516,2.6657,0.0,0.0,0.0,0.0,0.0,0.0,0.0,0.0,0.0,0.0,0.0,0.0,0.0,0.0,0.0,0.0,0.0,0.0,0.0,0.0,2.3922,2.3073,2.278,2.249,2.2199,2.2818,2.3505,2.4098,2.4753,2.4473,2.2847,2.3346,2.3871,2.3891,2.4296,2.4762,2.5226,2.5321,2.5133,2.4582,2.4693,2.4311,2.275,2.2534,2.2108,2.0887,2.0215,1.9832,1.951,1.8828,1.7974,1.696,1.6273,1.5107,1.2744,1.1158,1.0007,0.9443,0.8698,0.8024,0.7408,0.7298,0.7097,4.6066,4.3627,4.3414,4.3514,4.3668,4.2071,4.2504,4.4125,4.1856,4.0456,3.9715,3.9176,3.7477,3.5115,3.5732,3.657,3.7729,4.1022,4.3795,4.6225,4.8886,5.0283,5.0536,5.0365,4.9376,4.7674,4.6629,4.2935,3.7149,3.6078,3.3842,3.0438,3.1478,3.2445,3.3343,3.6671,3.9583,4.2046,4.4158,4.598,4.7454,4.7488,4.7398,4.7181,4.5618,4.2814,3.8673,3.6133,3.4052,0.0,2.9721,0.0,0.0,0.0,0.0,0.0,0.0,0.0,0.0,0.0,0.0,0.0,0.0,0.0,0.0,0.0,0.0,0.0,0.0,0.0,0.0,2.5461,2.4813,2.4365,2.4182,2.3967,2.3605,2.4729,2.5759,2.6292,2.7656,2.7741,2.5412,2.577,2.6301,2.6462,2.6301,2.6335,2.6879,2.6733,2.6299,2.5583,2.584,2.5514,2.3769,2.3496,2.3119,2.201,2.1355,2.0733,2.0017,1.9674,1.9171,1.8374,1.7644,1.643,1.4044,1.2208,1.0946,1.0577,0.9697,0.8782,0.82,0.8067,0.783,5.1439,4.8485,4.806,4.7443,4.6683,4.634,4.5827,4.525,4.3923,4.372,4.3905,4.3529,4.2393,4.0988,4.2358,4.3054,4.3712,4.7218,4.9227,4.9904,5.3,5.4454,5.4166,5.357,5.2973,5.2347,5.2952,5.0633,4.5511,4.0283,3.6581,3.4418,3.4603,3.5281,3.6347,3.8515,4.1154,4.4096,4.5275,4.652,4.7768,4.7548,4.7458,4.7569,4.5601,4.3579,4.1537,3.9833,3.7699,3.5057,3.2902,0.0,0.0,0.0,0.0,0.0,0.0,0.0,0.0,0.0,0.0,0.0,0.0,0.0,0.0,0.0,0.0,0.0,0.0,0.0,2.6863,2.6027,2.5461,2.543,2.5548,2.5548,2.5682,2.7496,2.8844,2.8912,3.0536,3.0648,2.8204,2.8126,2.8478,2.888,2.7599,2.6909,2.7709,2.7221,2.673,2.6733,2.639,2.5897,2.5145,2.5107,2.4723,2.3445,2.3203,2.2642,2.1092,2.0418,1.9919,1.9328,1.8275,1.7126,1.584,1.4154,1.2948,1.2704,1.1514,1.0443,0.9655,0.9046,0.8619,5.7161,5.1863,5.1741,5.185,5.1925,5.0806,5.166,5.3639,5.1862,5.0583,4.9698,4.9205,4.7322,4.464,4.5127,4.587,4.6882,4.8625,5.0223,5.1711,5.2705,5.3671,5.4676,5.3852,5.3493,5.346,5.2619,5.1464,4.9931,4.7317,4.2601,3.6122,3.7728,3.8014,3.7108,3.9823,4.2116,4.3617,4.4818,4.5952,4.7096,4.7194,4.7378,4.7611,4.6083,4.4751,4.3664,4.1775,3.9929,3.8128,3.5036,0.0,3.1216,0.0,0.0,0.0,0.0,2.6964,2.7547,2.7774,0.0,0.0,0.0,2.9298,0.0,0.0,0.0,0.0,2.7148,2.7334,2.7903,2.7685,2.8107,2.9556,2.9299,2.9332,2.9881,3.0459,3.0961,3.139,3.2395,3.2883,3.2417,3.1346,3.0479,3.009,2.9358,2.8779,2.8614,2.8204,2.7835,2.7575,2.7327,2.6935,2.6321,2.5562,2.4828,2.4148,2.3122,2.2142,2.1434,2.1107,2.0576,1.9433,1.8711,1.7945,1.6777,1.5136,1.3718,1.2775,1.2058,1.1226,0.9951,0.9592,0.935,6.1998,5.7454,5.5987,5.5381,5.5288,5.4672,5.5501,5.719,5.5783,5.4886,5.4425,5.3887,5.2125,4.9532,4.8811,4.9118,5.0192,5.1099,5.2334,5.3777,5.3806,5.4215,5.471,5.4201,5.3847,5.3649,5.2796,5.2201,5.1857,5.1049,4.7321,4.1033,4.1928,4.1731,4.0374,4.2087,4.3623,4.4773,4.5157,4.5624,4.6142,4.6285,4.646,4.6656,4.6025,4.5319,4.4605,4.3003,4.1635,4.0521,3.7072,3.4484,0.0,3.0315,2.8726,2.8606,2.7919,2.771,2.8219,2.8255,0.0,0.0,3.0125,3.0551,2.8603,0.0,0.0,2.9649,2.966,2.9958,3.0333,3.102,3.1836,3.2841,3.2827,3.2854,3.3118,3.3623,3.3891,3.3794,3.4419,3.4864,3.479,3.366,3.2635,3.2142,3.1118,3.0305,2.9935,2.9349,2.8682,2.8008,2.7655,2.7306,2.668,2.5918,2.5158,2.4449,2.3459,2.2575,2.2117,2.1804,2.1216,2.0266,1.9488,1.8721,1.7885,1.6447,1.4992,1.3623,1.2716,1.1815,1.0692,1.0305,0.9954,6.5693,6.3695,6.0258,5.8263,5.7344,5.7837,5.7632,5.6978,5.6777,5.719,5.7942,5.7382,5.6365,5.5053,5.3147,5.2727,5.3458,5.4303,5.503,5.5706,5.585,5.5391,5.4536,5.4501,5.4021,5.3071,5.3183,5.2831,5.2059,5.2235,5.077,4.7639,4.6716,4.6039,4.5624,4.5009,4.5502,4.7056,4.6161,4.5525,4.5196,4.5115,4.5187,4.5305,4.5495,4.5277,4.4722,4.3638,4.2763,4.2087,3.885,3.633,3.4885,3.2107,3.0269,2.9832,2.9145,2.8919,2.917,2.8819,2.8415,2.8069,3.0553,3.1846,3.0721,3.1821,3.2734,3.3187,3.3932,3.4251,3.3866,3.5278,3.6121,3.5824,3.6096,3.6117,3.5679,3.6824,3.7197,3.6072,3.6514,3.6616,3.5813,3.5181,3.479,3.4644,3.2813,3.1493,3.1341,3.0399,2.9366,2.8143,2.766,2.7258,2.6788,2.6256,2.5605,2.4706,2.4102,2.3614,2.312,2.2506,2.1949,2.1424,2.0517,1.9544,1.8982,1.7975,1.6812,1.5199,1.3692,1.2458,1.1971,1.1296,1.0751,6.5565,6.3123,6.222,6.1057,5.9798,5.9382,5.8904,5.8495,5.8427,5.8633,5.8905,5.8309,5.7447,5.6405,5.5418,5.508,5.5256,5.5462,5.5702,5.5844,5.5872,5.5164,5.3863,5.3828,5.312,5.1821,5.1777,5.1909,5.2126,5.2216,5.172,5.0752,5.0487,4.8861,4.6054,4.6881,4.757,4.798,4.7012,4.6274,4.5775,4.5444,4.5329,4.5411,4.4237,4.3746,4.4085,4.3161,4.2335,4.1591,3.9713,3.7737,3.5711,3.2939,3.1157,3.0653,3.002,3.0088,3.0916,3.153,3.1224,2.9719,3.468,3.6264,3.2713,3.5237,3.6727,3.618,3.7037,3.7624,3.7514,3.8097,3.8953,4.0041,3.9476,3.9132,3.9279,3.8965,3.8556,3.8099,3.7543,3.7262,3.7386,3.6548,3.5808,3.5515,3.3704,3.1974,3.0927,3.0203,2.9446,2.8541,2.8075,2.7765,2.7493,2.6841,2.6212,2.5761,2.4858,2.4204,2.4257,2.3654,2.2812,2.1871,2.1432,2.0796,1.9737,1.9318,1.8583,1.6986,1.5571,1.4361,1.3498,1.2863,1.2375,6.5399,6.4183,6.29,6.202,6.1353,6.014,5.9419,5.9149,5.9047,5.8942,5.8764,5.8263,5.7506,5.6691,5.6441,5.614,5.5822,5.5964,5.6021,5.6021,5.6021,5.5355,5.4131,5.3722,5.2854,5.1643,5.1344,5.1502,5.2064,5.189,5.1782,5.1801,5.1598,5.0336,4.8173,4.8592,4.8837,4.8837,4.7727,4.6949,4.6595,4.5738,4.5117,4.4765,4.4248,4.4001,4.4071,4.3955,4.3392,4.23,4.0898,3.9286,3.7377,3.5266,3.4057,3.3893,3.362,3.3571,3.3895,3.6049,3.6495,3.4388,3.7205,3.8474,3.728,3.8549,3.9226,3.8538,4.0085,4.108,4.0898,4.1728,4.2449,4.2831,4.226,4.1658,4.1237,4.0658,3.9992,3.9237,3.8665,3.8174,3.7787,3.7172,3.6455,3.5819,3.4616,3.3262,3.1774,3.1097,3.0498,2.962,2.9022,2.8389,2.7784,2.7403,2.689,2.6208,2.5539,2.5082,2.4942,2.4362,2.3562,2.2759,2.2183,2.1684,2.0991,2.0472,1.9847,1.8885,1.7586,1.6179,1.4676,1.4019,1.3574,6.509,6.5247,6.2777,6.187,6.2003,6.0309,5.952,5.9319,5.9045,5.8595,5.7929,5.7555,5.6978,5.6339,5.664,5.6405,5.5764,5.6085,5.6225,5.6225,5.6118,5.5573,5.4626,5.3674,5.276,5.1856,5.136,5.1333,5.1793,5.1511,5.1457,5.1598,5.1294,5.0943,5.0585,4.9955,4.9703,4.9695,4.8624,4.7995,4.7694,4.6469,4.5294,4.4343,4.487,4.4951,4.4347,4.5107,4.4854,4.3451,4.2318,4.1061,3.9464,3.8316,3.7771,3.789,3.8042,3.7933,3.7498,4.0766,4.2046,4.0254,3.9537,4.009,4.213,4.2055,4.1608,4.103,4.3302,4.4617,4.4174,4.5478,4.5847,4.4615,4.4317,4.364,4.2143,4.1866,4.1314,3.9951,3.9686,3.9061,3.7959,3.7569,3.7012,3.6146,3.5577,3.471,3.3367,3.2469,3.1638,3.0834,3.0015,2.899,2.8039,2.7882,2.7595,2.662,2.6206,2.6023,2.5653,2.5043,2.4441,2.3953,2.3206,2.251,2.2408,2.158,2.0893,2.0343,1.9291,1.7921,1.5991,1.5037,1.4684,6.4128,6.2719,6.2169,6.1396,6.0493,5.9951,5.965,5.9485,5.8826,5.788,5.6749,5.676,5.642,5.5865,5.6005,5.6106,5.6113,5.6169,5.6253,5.6355,5.5604,5.4756,5.3776,5.2862,5.1958,5.1146,5.097,5.0916,5.0885,5.1437,5.1354,5.0669,5.1178,5.1074,5.0488,5.039,5.0546,5.0788,5.0664,5.0204,4.9456,4.8799,4.7713,4.6118,4.5316,4.472,4.4334,4.4836,4.4689,4.3807,4.4068,4.3399,4.1469,4.1122,4.0493,3.9601,4.0273,4.077,4.0789,4.2164,4.3662,4.5117,4.4565,4.4063,4.4037,4.6233,4.7009,4.5456,4.7362,4.8347,4.7481,4.7511,4.701,4.5489,4.5091,4.4248,4.232,4.1973,4.1565,4.0909,4.0123,3.9587,3.9337,3.8689,3.7915,3.736,3.6645,3.5846,3.5095,3.334,3.1665,3.0409,2.9853,2.9237,2.8729,2.8312,2.8099,2.7674,2.7033,2.6681,2.6801,2.6386,2.5752,2.5107,2.474,2.4026,2.2938,2.2818,2.2318,2.0443,2.0288,1.9859,1.7749,1.6616,1.5995,6.4136,6.3428,6.2134,6.1361,6.0949,6.0016,5.9538,5.9478,5.8838,5.7821,5.6596,5.6358,5.6088,5.5822,5.5964,5.6077,5.6197,5.6281,5.6364,5.6347,5.5344,5.4638,5.4131,5.278,5.1876,5.147,5.1435,5.1352,5.1214,5.1598,5.1514,5.0926,5.0926,5.0752,5.0432,5.062,5.1068,5.1785,5.1501,5.1402,5.1322,5.0481,4.9329,4.7927,4.7491,4.6972,4.6368,4.6773,4.6442,4.5224,4.5276,4.4763,4.3358,4.3372,4.3326,4.3155,4.4024,4.44,4.4045,4.5154,4.6211,4.6995,4.7458,4.726,4.6255,4.8392,4.9342,4.8321,4.9141,4.9506,4.8908,4.8347,4.7478,4.627,4.5642,4.4802,4.3521,4.2569,4.1964,4.158,4.0767,4.0124,3.9747,3.9324,3.8579,3.7698,3.7205,3.6491,3.5359,3.3893,3.2461,3.1623,3.119,3.0749,3.019,2.9791,2.932,2.9045,2.8365,2.7952,2.7928,2.729,2.6578,2.5961,2.541,2.4815,2.4387,2.3969,2.328,2.2132,2.1662,2.1292,1.9824,1.8714,1.7827,6.3968,6.4202,6.1998,6.133,6.1645,6.0068,5.9264,5.9016,5.8558,5.7724,5.6594,5.6069,5.5879,5.5872,5.6049,5.6169,5.6169,5.6245,5.63,5.6265,5.5119,5.4618,5.4485,5.2752,5.1876,5.1849,5.1989,5.1913,5.1815,5.192,5.18,5.1419,5.08,5.048,5.0397,5.0647,5.1297,5.2369,5.2093,5.2319,5.3054,5.2207,5.1095,4.9781,5.0101,4.9784,4.8726,4.9112,4.8592,4.7078,4.6647,4.6085,4.522,4.5471,4.5958,4.6611,4.7428,4.7468,4.6584,4.7917,4.8437,4.7663,4.9085,4.9507,4.8427,4.9758,5.0489,5.0195,5.0007,4.9721,4.9395,4.8563,4.766,4.6775,4.6045,4.5369,4.4636,4.3494,4.2595,4.2191,4.1664,4.0852,3.9919,3.9861,3.9381,3.8051,3.7626,3.6989,3.5331,3.4158,3.3358,3.2912,3.2511,3.2256,3.1616,3.1171,3.0893,3.0211,2.9776,2.9378,2.8966,2.83,2.7586,2.7128,2.6225,2.5838,2.5779,2.5079,2.4206,2.3836,2.3193,2.241,2.17,2.0697,1.975,6.2536,6.1617,6.1266,6.0985,6.0746,5.9795,5.8686,5.7604,5.7276,5.6664,5.5883,5.5742,5.5735,5.5735,5.5879,5.5964,5.5964,5.5929,5.5957,5.5887,5.4441,5.3776,5.367,5.2157,5.1344,5.1308,5.1871,5.2052,5.1871,5.2294,5.2149,5.1379,5.1094,5.0801,5.0439,5.053,5.1162,5.2208,5.3176,5.3706,5.384,5.4792,5.4122,5.1862,5.2049,5.1452,4.9767,5.0039,4.9773,4.8899,4.9018,4.8457,4.6985,4.7628,4.7848,4.7348,4.8031,4.8087,4.7348,4.8106,4.855,4.8513,4.9307,4.9806,4.9768,5.1025,5.1576,5.095,5.0568,5.0167,4.9448,4.8563,4.764,4.6828,4.6292,4.5659,4.4785,4.4232,4.365,4.3029,4.2771,4.198,4.0756,4.0591,4.0258,3.9242,3.8348,3.7303,3.5851,3.4364,3.3516,3.3177,3.2801,3.2359,3.2115,3.1601,3.1446,3.1085,3.0786,3.0547,3.0367,2.9825,2.9325,2.9059,2.8332,2.7637,2.6607,2.6438,2.5676,2.4563,2.4078,2.3718,2.2589,2.1873,2.1263,6.2645,6.2054,6.1478,6.0837,6.0256,5.8957,5.7818,5.6815,5.6667,5.6432,5.6077,5.6077,5.5773,5.5327,5.5411,5.5135,5.4662,5.4745,5.4772,5.4666,5.3602,5.3105,5.2999,5.1882,5.1272,5.1264,5.1935,5.2058,5.1641,5.2061,5.1885,5.1067,5.0783,5.0524,5.032,5.0341,5.0656,5.1227,5.2174,5.3093,5.3982,5.4442,5.4074,5.287,5.3225,5.2758,5.1402,5.0809,5.0295,4.9867,4.9255,4.8584,4.7885,4.8292,4.8457,4.8215,4.8511,4.8363,4.7549,4.7738,4.8034,4.8382,4.9615,5.0372,5.0411,5.1035,5.1293,5.0964,5.0301,4.9715,4.9293,4.8343,4.7539,4.7087,4.6442,4.5952,4.5627,4.4645,4.3968,4.3696,4.31,4.2343,4.1452,4.1153,4.0827,4.0056,3.8987,3.7873,3.6934,3.5838,3.4812,3.4262,3.3939,3.3762,3.35,3.3218,3.2937,3.2671,3.2107,3.1584,3.1211,3.0589,3.0103,2.9791,2.9005,2.8186,2.7563,2.7189,2.6512,2.5852,2.5227,2.4643,2.3471,2.2615,2.1778,6.2807,6.2622,6.1602,6.059,5.9558,5.8236,5.708,5.6223,5.616,5.6026,5.5919,5.6204,5.5944,5.53,5.5087,5.4587,5.3946,5.3779,5.3762,5.3691,5.3034,5.2652,5.2519,5.1731,5.1324,5.1343,5.2024,5.2033,5.1556,5.1806,5.1528,5.0745,5.0369,5.0263,5.02,5.0228,5.0285,5.0425,5.0999,5.2067,5.353,5.372,5.3713,5.3484,5.3733,5.3531,5.2613,5.1398,5.0617,5.0299,4.9172,4.8393,4.8207,4.8326,4.8513,4.8624,4.8661,4.8402,4.7774,4.7408,4.7498,4.8151,4.9748,5.0688,5.0485,5.0855,5.1063,5.0949,5.0117,4.9404,4.905,4.8308,4.7623,4.7276,4.6561,4.6206,4.6295,4.5104,4.4251,4.4328,4.3507,4.274,4.2133,4.1725,4.1235,4.044,3.9471,3.8659,3.801,3.7105,3.6187,3.5531,3.5119,3.4889,3.4875,3.4678,3.4344,3.4109,3.3344,3.2607,3.1978,3.1122,3.0457,3.0241,2.9316,2.8679,2.8734,2.8139,2.7357,2.6812,2.6215,2.5333,2.4045,2.3073,2.2232,6.225,6.1812,6.1071,5.9691,5.8259,5.7872,5.6859,5.558,5.5366,5.492,5.4491,5.574,5.6257,5.6012,5.5237,5.4764,5.4485,5.3918,5.3591,5.3512,5.2945,5.2528,5.2378,5.1783,5.135,5.1247,5.1855,5.2048,5.1868,5.1808,5.1305,5.0389,5.0313,5.0313,5.0228,5.0313,5.0369,5.0397,5.0729,5.136,5.2386,5.3922,5.4303,5.3349,5.358,5.3393,5.2604,5.1642,5.0836,5.0156,4.9455,4.8696,4.7912,4.7951,4.8072,4.8092,4.8207,4.8209,4.8099,4.7457,4.7326,4.8032,4.961,5.0252,4.9585,5.0696,5.1499,5.1274,5.0533,4.9597,4.8872,4.8451,4.79,4.7228,4.6648,4.6352,4.6158,4.5765,4.5321,4.4966,4.4326,4.3709,4.2712,4.2332,4.1724,4.0578,3.9997,3.9344,3.8446,3.7584,3.6899,3.6424,3.5854,3.5332,3.5224,3.5272,3.5029,3.4563,3.4161,3.3617,3.2988,3.2142,3.1352,3.0696,3.0436,2.9874,2.9212,2.8841,2.8588,2.7579,2.6688,2.5654,2.4551,2.3669,2.2904,6.206,6.1823,6.0982,5.961,5.7963,5.6868,5.6027,5.5355,5.49,5.448,5.4291,5.503,5.49,5.4127,5.3886,5.3442,5.2848,5.2685,5.2585,5.2585,5.2391,5.2298,5.2212,5.18,5.1556,5.1454,5.1617,5.1679,5.1679,5.1573,5.1181,5.0592,5.0453,5.0313,5.02,5.0178,5.0149,5.0178,5.0509,5.0842,5.124,5.2278,5.272,5.2408,5.2618,5.2618,5.2268,5.1476,5.0659,4.9888,4.9183,4.841,4.7629,4.7788,4.7931,4.7955,4.7616,4.758,4.7899,4.7282,4.7133,4.7772,4.9029,4.9565,4.9305,5.0061,5.0583,5.0371,4.9681,4.8978,4.8587,4.7849,4.7226,4.6755,4.6326,4.597,4.5844,4.5381,4.5008,4.4934,4.4468,4.391,4.3289,4.2764,4.2013,4.1078,4.0616,4.0026,3.9195,3.8531,3.8214,3.8157,3.7571,3.6659,3.6005,3.5952,3.5751,3.5224,3.4817,3.4439,3.3513,3.2742,3.1869,3.1184,3.0736,3.0284,2.9623,2.9093,2.8768,2.7904,2.6812,2.5664,2.5229,2.4275,2.3488,6.1706,6.1507,6.0458,5.915,5.7673,5.6123,5.5327,5.504,5.4281,5.3816,5.3652,5.3853,5.3466,5.2661,5.2906,5.2666,5.2065,5.1965,5.1956,5.1956,5.2029,5.2029,5.198,5.1733,5.1582,5.1531,5.1324,5.1298,5.1376,5.1298,5.1088,5.0749,5.0481,5.0257,5.0114,4.9947,4.9894,4.9923,5.0285,5.0425,5.0404,5.1103,5.1563,5.1531,5.1937,5.2122,5.1884,5.1059,5.039,4.9841,4.8839,4.8097,4.759,4.7558,4.7606,4.7772,4.7365,4.7236,4.7674,4.7264,4.715,4.76,4.8654,4.9268,4.9219,4.9906,5.0135,4.9588,4.8946,4.8531,4.822,4.7453,4.6777,4.6337,4.598,4.5675,4.5354,4.4899,4.4686,4.4659,4.4184,4.3717,4.3476,4.2867,4.211,4.1459,4.1088,4.0543,3.9899,3.9486,3.9447,3.937,3.8783,3.7997,3.6918,3.6609,3.6417,3.5777,3.5249,3.4688,3.3725,3.3,3.2307,3.156,3.0802,3.0216,2.9897,2.9393,2.879,2.8207,2.7241,2.6247,2.6104,2.5142,2.4672,6.0979,6.0629,5.918,5.8068,5.7138,5.6016,5.5194,5.4558,5.3432,5.263,5.2193,5.2111,5.2124,5.2221,5.299,5.3351,5.3109,5.2365,5.2102,5.2078,5.198,5.1858,5.1672,5.1454,5.1272,5.1193,5.1202,5.1176,5.1176,5.1088,5.0954,5.0612,5.0369,5.0114,4.9976,4.9742,4.9564,4.9688,5.0034,5.0178,5.0166,5.1192,5.1583,5.1193,5.1918,5.2076,5.1434,5.0484,4.9983,5.0049,4.8657,4.7807,4.7629,4.7133,4.703,4.7356,4.7414,4.7478,4.7529,4.7457,4.7414,4.7579,4.8806,4.9478,4.892,5.0378,5.0736,4.9424,4.882,4.8363,4.7805,4.74,4.6945,4.61,4.5778,4.5354,4.4818,4.4625,4.4406,4.4212,4.3864,4.3482,4.3056,4.265,4.227,4.178,4.1317,4.0801,4.0075,4.0157,4.0068,3.9479,3.9092,3.8857,3.8246,3.7366,3.6615,3.5871,3.529,3.4895,3.4063,3.3258,3.2636,3.1918,3.1123,3.0536,3.0216,2.9691,2.9044,2.8484,2.8019,2.7392,2.7122,2.6794,2.6298,6.0194,5.9085,5.8507,5.7768,5.6825,5.5461,5.4691,5.4367,5.2974,5.2256,5.2065,5.2102,5.2174,5.2258,5.2689,5.2773,5.2618,5.2366,5.2222,5.2198,5.2102,5.2005,5.1956,5.1672,5.1393,5.1211,5.122,5.122,5.122,5.1114,5.1034,5.0873,5.0509,5.0493,5.0697,5.0066,4.9859,5.03,5.0188,5.0212,5.073,5.1778,5.2015,5.1276,5.171,5.1692,5.1017,5.0576,4.9934,4.8977,4.8329,4.7567,4.6745,4.6636,4.7003,4.7545,4.7361,4.7335,4.766,4.7384,4.7393,4.7872,4.8465,4.9013,4.9279,5.0151,5.0133,4.8679,4.8377,4.7917,4.68,4.6374,4.6116,4.5719,4.5389,4.5069,4.4659,4.4293,4.4064,4.4039,4.3747,4.3432,4.32,4.2944,4.2709,4.2685,4.2295,4.1699,4.1182,4.104,4.0778,4.05,4.0039,3.9531,3.8984,3.7755,3.6705,3.5951,3.5345,3.5018,3.4397,3.4084,3.3582,3.2621,3.1703,3.1159,3.088,3.0115,2.9459,2.9088,2.8645,2.8307,2.8084,2.7656,2.7262,5.9019,5.7603,5.7495,5.6984,5.6078,5.4694,5.4154,5.401,5.2702,5.2126,5.2174,5.2246,5.2329,5.2329,5.24,5.234,5.2282,5.2317,5.2353,5.2305,5.215,5.2078,5.2005,5.1758,5.1495,5.1289,5.1211,5.1246,5.122,5.1141,5.1096,5.1016,5.0572,5.0556,5.0853,5.0302,5.03,5.0639,5.0479,5.0671,5.1395,5.2216,5.22,5.1459,5.1674,5.1492,5.0655,5.0237,4.9562,4.8588,4.7916,4.7073,4.6044,4.6365,4.6949,4.7544,4.7558,4.7536,4.7641,4.7346,4.7275,4.7619,4.8164,4.871,4.9221,4.9745,4.9235,4.8205,4.7657,4.7108,4.5979,4.5476,4.5344,4.531,4.5177,4.4852,4.4435,4.4035,4.3802,4.3658,4.3328,4.3194,4.3299,4.3001,4.2981,4.32,4.2798,4.2389,4.1873,4.167,4.134,4.128,4.0808,4.002,3.9223,3.8122,3.7086,3.6328,3.5656,3.5263,3.4914,3.4743,3.4317,3.3305,3.2572,3.2019,3.1354,3.0552,3.0057,2.9707,2.9401,2.9091,2.8754,2.8367,2.8136,5.7489,5.6186,5.6029,5.5666,5.4893,5.3953,5.352,5.3387,5.2534,5.2174,5.2269,5.2329,5.2329,5.2329,5.2329,5.2222,5.2174,5.2317,5.24,5.2282,5.2126,5.2005,5.1882,5.1658,5.1479,5.1324,5.1141,5.1123,5.1088,5.1096,5.1043,5.0916,5.0523,5.043,5.0373,5.0557,5.0625,5.0788,5.0965,5.1369,5.1997,5.2408,5.2151,5.1316,5.183,5.1573,5.0269,4.9435,4.8935,4.8653,4.7424,4.6297,4.5892,4.6378,4.6899,4.7334,4.7987,4.8029,4.7467,4.7392,4.7104,4.6903,4.7784,4.8524,4.8886,4.9232,4.9116,4.81,4.7261,4.632,4.5444,4.5022,4.4906,4.5123,4.5069,4.4769,4.4241,4.3923,4.3565,4.3023,4.265,4.2719,4.3104,4.3027,4.2868,4.3074,4.2896,4.245,4.1972,4.1957,4.1873,4.1416,4.1065,4.0567,3.9532,3.8448,3.7578,3.6745,3.6141,3.5575,3.5239,3.5018,3.4817,3.399,3.3078,3.2478,3.1724,3.0958,3.0444,3.0139,2.9927,2.9737,2.9522,2.9273,2.9295,5.7143,5.5662,5.5564,5.5081,5.4251,5.3512,5.3264,5.329,5.2558,5.2293,5.2423,5.2353,5.2329,5.2305,5.2198,5.215,5.2126,5.2198,5.215,5.2065,5.1907,5.1833,5.1758,5.1683,5.1582,5.1376,5.0946,5.09,5.1034,5.1016,5.1146,5.1415,5.076,5.0967,5.1743,5.1227,5.102,5.1501,5.1661,5.1859,5.2196,5.2857,5.2602,5.1499,5.2018,5.1736,5.0275,4.9706,4.9177,4.869,4.798,4.7045,4.624,4.6797,4.7395,4.76,4.8041,4.8225,4.7744,4.7335,4.7012,4.6821,4.7178,4.791,4.8746,4.9048,4.8737,4.7859,4.7341,4.6653,4.5275,4.4714,4.4631,4.468,4.4631,4.4378,4.3802,4.3419,4.2899,4.2366,4.2206,4.2556,4.3113,4.305,4.3172,4.3624,4.3457,4.2999,4.274,4.2406,4.2434,4.2192,4.1709,4.1081,4.0053,3.9159,3.8436,3.7498,3.6724,3.6239,3.585,3.5614,3.5362,3.4678,3.3744,3.2889,3.2122,3.1484,3.1036,3.0404,3.0076,3.002,3.022,3.0141,3.0049,5.6293,5.5066,5.4743,5.4118,5.3289,5.2888,5.2783,5.2785,5.239,5.2246,5.2246,5.2246,5.2186,5.2078,5.2029,5.2184,5.2339,5.2099,5.205,5.2155,5.1879,5.1733,5.1632,5.1531,5.1454,5.1298,5.0919,5.0811,5.1043,5.1243,5.1513,5.1717,5.1563,5.18,5.266,5.2384,5.2339,5.2658,5.2727,5.2865,5.3138,5.3437,5.3013,5.2008,5.2216,5.1661,5.0345,4.9913,4.9452,4.8673,4.7953,4.7048,4.6302,4.7014,4.7631,4.7837,4.8214,4.8368,4.7911,4.752,4.7155,4.6935,4.7107,4.7651,4.8512,4.8684,4.826,4.7501,4.6971,4.6243,4.4908,4.4412,4.4265,4.4179,4.415,4.3831,4.3325,4.2837,4.2494,4.2167,4.2033,4.2493,4.3157,4.334,4.3414,4.3868,4.3723,4.3369,4.309,4.2739,4.2648,4.2444,4.2,4.1295,4.0519,3.9845,3.9231,3.8315,3.7393,3.7003,3.6641,3.6694,3.6541,3.5397,3.4436,3.3502,3.2728,3.219,3.1724,3.1012,3.0457,3.0687,3.094,3.0737,3.0632,5.5205,5.4378,5.3695,5.2927,5.2184,5.2077,5.2077,5.2089,5.2054,5.2005,5.1932,5.2005,5.2003,5.1855,5.1962,5.233,5.2707,5.2325,5.2335,5.2575,5.2269,5.1826,5.1541,5.1272,5.1211,5.1264,5.0997,5.0916,5.1119,5.1555,5.1955,5.2018,5.2593,5.3048,5.3026,5.3672,5.3793,5.3704,5.3843,5.4166,5.4456,5.4144,5.3177,5.2344,5.2379,5.1824,5.0477,4.9999,4.9539,4.8759,4.7607,4.6915,4.672,4.7105,4.7692,4.7834,4.8545,4.8436,4.8034,4.7751,4.7505,4.6898,4.7238,4.7946,4.7962,4.7869,4.7568,4.6826,4.6196,4.5346,4.45,4.4068,4.3805,4.3598,4.3595,4.3355,4.2679,4.2174,4.2038,4.214,4.2077,4.2266,4.3437,4.3389,4.3381,4.3482,4.3448,4.313,4.285,4.2648,4.2444,4.2281,4.2075,4.1509,4.0744,4.0187,3.964,3.9181,3.8335,3.7923,3.7617,3.7643,3.7299,3.6143,3.5136,3.417,3.3338,3.2773,3.2266,3.1644,3.1483,3.16,3.1432,3.1162,3.109,5.5383,5.4106,5.3778,5.287,5.1739,5.1556,5.1582,5.1658,5.1658,5.1708,5.1733,5.1683,5.1917,5.2339,5.2297,5.2706,5.3203,5.3167,5.306,5.3077,5.2546,5.1977,5.1534,5.1255,5.1378,5.1704,5.1127,5.1017,5.1514,5.171,5.2003,5.2584,5.2799,5.3218,5.3672,5.3887,5.3992,5.4156,5.458,5.436,5.39,5.4635,5.3661,5.1381,5.2218,5.1888,5.0522,4.9971,4.958,4.9108,4.8575,4.7894,4.7396,4.7903,4.8071,4.7861,4.8422,4.8588,4.7858,4.7628,4.7167,4.6344,4.6642,4.6541,4.6602,4.6727,4.6387,4.5845,4.5383,4.4989,4.4211,4.3776,4.3449,4.2959,4.2898,4.2679,4.2174,4.1818,4.1706,4.1717,4.1661,4.2294,4.3002,4.3342,4.3213,4.3307,4.321,4.301,4.2729,4.2643,4.2468,4.2339,4.2087,4.1592,4.1015,4.0456,4.0037,3.9828,3.9355,3.8956,3.8691,3.8621,3.7856,3.6796,3.5939,3.5061,3.3981,3.3115,3.2642,3.2361,3.1927,3.1766,3.1541,3.13,3.1351,5.5194,5.4313,5.3904,5.3203,5.236,5.1874,5.1732,5.1766,5.1492,5.1376,5.1428,5.1428,5.1802,5.2387,5.2431,5.3041,5.3989,5.3741,5.3722,5.3815,5.309,5.2191,5.1538,5.137,5.172,5.2001,5.1485,5.1472,5.1843,5.2253,5.2707,5.2846,5.316,5.3544,5.3887,5.3731,5.3772,5.411,5.4559,5.4338,5.3771,5.4753,5.3993,5.2158,5.2415,5.1993,5.0449,5.0381,5.0093,4.9246,4.8767,4.8411,4.7885,4.8154,4.8219,4.7786,4.8314,4.8314,4.7918,4.7658,4.7396,4.6969,4.6836,4.6701,4.666,4.665,4.6438,4.5488,4.5261,4.4771,4.4123,4.3598,4.3115,4.2618,4.2238,4.1948,4.1623,4.1641,4.1735,4.1842,4.2119,4.2536,4.3411,4.3419,4.3331,4.321,4.2981,4.2809,4.2596,4.2609,4.2502,4.2274,4.2407,4.2141,4.1833,4.1367,4.11,4.083,4.0637,4.0206,3.9681,3.9453,3.8604,3.7638,3.6748,3.5866,3.4806,3.3964,3.3623,3.3198,3.2515,3.2132,3.2104,3.1826,3.1855,5.4846,5.474,5.3997,5.3616,5.3341,5.2604,5.2197,5.2094,5.1492,5.1184,5.1175,5.1202,5.1741,5.24,5.2658,5.3376,5.479,5.4267,5.4232,5.4226,5.3697,5.2769,5.1622,5.1743,5.2109,5.2292,5.2151,5.1934,5.2234,5.3294,5.334,5.2962,5.3434,5.3922,5.3893,5.3579,5.3701,5.4303,5.4601,5.453,5.4297,5.4858,5.4343,5.2968,5.255,5.1963,5.0947,5.0895,5.0796,4.9005,4.8746,4.8456,4.8132,4.8001,4.7968,4.7934,4.7967,4.8,4.7968,4.7901,4.7902,4.7769,4.7769,4.7635,4.6999,4.6786,4.6304,4.5123,4.5127,4.4641,4.4031,4.3328,4.2806,4.2366,4.1784,4.1482,4.1375,4.1572,4.1873,4.2187,4.2792,4.3381,4.3783,4.3871,4.3684,4.3121,4.286,4.2688,4.2661,4.2719,4.2436,4.2051,4.2386,4.2865,4.2581,4.2324,4.2162,4.2024,4.1935,4.1526,4.0564,4.0118,3.9362,3.8537,3.7641,3.6732,3.5718,3.5126,3.4605,3.4027,3.3369,3.328,3.319,3.279,3.2649,5.5334,5.4775,5.4338,5.3802,5.3218,5.2781,5.2282,5.1717,5.1514,5.1374,5.1298,5.0982,5.1913,5.3637,5.3254,5.3901,5.5139,5.4998,5.4869,5.4233,5.461,5.3718,5.2555,5.2164,5.2536,5.2962,5.2177,5.1952,5.2585,5.3152,5.3058,5.2207,5.3142,5.3903,5.3833,5.3672,5.4338,5.5027,5.5279,5.4921,5.4611,5.5074,5.4706,5.3143,5.277,5.2299,5.1661,5.1398,5.0984,5.0289,4.9688,4.9024,4.8265,4.7902,4.7803,4.7803,4.7803,4.7836,4.7902,4.7836,4.777,4.7737,4.7339,4.6808,4.6177,4.589,4.528,4.4445,4.419,4.4068,4.3572,4.3054,4.2523,4.2205,4.2031,4.1838,4.1554,4.1397,4.1631,4.1917,4.2433,4.293,4.3397,4.3488,4.3329,4.305,4.285,4.2607,4.2696,4.2811,4.2627,4.2299,4.2849,4.3357,4.3185,4.2995,4.2984,4.2806,4.2805,4.2614,4.1714,4.1042,4.038,3.9493,3.8491,3.758,3.6689,3.5827,3.526,3.4808,3.4282,3.4041,3.3801,3.3517,3.3375,5.5256,5.4875,5.4694,5.436,5.3917,5.3391,5.2711,5.2045,5.1599,5.1425,5.1413,5.1109,5.2177,5.3981,5.3731,5.418,5.5079,5.5264,5.4999,5.457,5.4757,5.4448,5.3758,5.3053,5.3177,5.3723,5.2724,5.2387,5.2775,5.3232,5.3053,5.1761,5.274,5.3128,5.3128,5.3043,5.3474,5.4465,5.4887,5.4735,5.4553,5.5016,5.4834,5.3659,5.338,5.3138,5.2042,5.2413,5.189,5.1124,5.0489,4.9724,4.8663,4.8166,4.7902,4.7836,4.7836,4.7704,4.7636,4.7503,4.747,4.7535,4.6902,4.6406,4.5872,4.5427,4.4723,4.4127,4.3868,4.3721,4.3207,4.268,4.2206,4.1847,4.1781,4.1635,4.1403,4.1578,4.191,4.2168,4.2548,4.292,4.317,4.322,4.312,4.2949,4.2868,4.2695,4.2784,4.2898,4.3089,4.3092,4.3602,4.3849,4.3688,4.3608,4.3675,4.3536,4.337,4.3188,4.2624,4.2108,4.166,4.0584,3.9474,3.8612,3.7694,3.6829,3.5996,3.545,3.4999,3.4693,3.4445,3.4308,3.4107,5.5022,5.4992,5.4961,5.4961,5.4826,5.4048,5.3285,5.2478,5.1904,5.1701,5.1576,5.1541,5.2473,5.3774,5.3783,5.4261,5.4874,5.5083,5.4892,5.4803,5.4772,5.4707,5.4429,5.4017,5.3766,5.3823,5.2984,5.2671,5.2874,5.3291,5.2844,5.183,5.2374,5.2735,5.2394,5.2146,5.2751,5.4182,5.4475,5.4495,5.443,5.4919,5.46,5.4144,5.416,5.3836,5.2969,5.3092,5.3104,5.1623,5.1157,5.0392,4.9493,4.8563,4.8065,4.7902,4.7737,4.7438,4.7105,4.6935,4.693,4.7118,4.6357,4.5929,4.5696,4.51,4.4467,4.3979,4.3658,4.3358,4.2837,4.2333,4.1881,4.1572,4.1383,4.129,4.1364,4.2085,4.2505,4.2496,4.2652,4.2902,4.3071,4.317,4.2989,4.2917,4.2836,4.2872,4.3019,4.3202,4.3497,4.3615,4.4037,4.4138,4.3945,4.3987,4.4121,4.405,4.3854,4.3551,4.3321,4.2916,4.2284,4.1421,4.0413,3.9474,3.8633,3.7846,3.7039,3.6264,3.5737,3.5512,3.531,3.5132,3.4855,5.5079,5.4992,5.4904,5.4842,5.4776,5.4482,5.3556,5.249,5.264,5.241,5.1955,5.1894,5.2747,5.3739,5.3594,5.3925,5.4668,5.4869,5.4904,5.478,5.478,5.478,5.4679,5.4447,5.4409,5.4191,5.332,5.2686,5.2884,5.3237,5.2542,5.1425,5.2409,5.2982,5.2615,5.2848,5.3489,5.4474,5.4709,5.4769,5.4895,5.4878,5.4861,5.4468,5.4551,5.4193,5.3802,5.3611,5.3448,5.2842,5.1497,5.066,4.9926,4.8829,4.7968,4.7638,4.7243,4.6944,4.6778,4.6278,4.6109,4.5908,4.5502,4.5166,4.4967,4.4471,4.3949,4.3608,4.3113,4.268,4.227,4.1883,4.1771,4.1697,4.1792,4.1997,4.2206,4.253,4.2693,4.2533,4.2684,4.2809,4.296,4.3119,4.3164,4.3207,4.3343,4.3495,4.3721,4.399,4.4341,4.4371,4.4371,4.4338,4.4199,4.4276,4.4349,4.4321,4.4153,4.3871,4.3614,4.3403,4.2825,4.2043,4.1143,4.0209,3.9424,3.8688,3.7708,3.6688,3.6459,3.6326,3.588,3.551,3.531,5.4772,5.4749,5.4686,5.4655,5.4623,5.456,5.3873,5.2946,5.3029,5.2901,5.2595,5.2498,5.3012,5.383,5.383,5.3994,5.4359,5.4523,5.4589,5.4623,5.4655,5.4655,5.4655,5.456,5.456,5.4312,5.3452,5.2957,5.3073,5.2883,5.2186,5.1581,5.2384,5.2715,5.2524,5.3004,5.3983,5.4761,5.4965,5.4961,5.5048,5.4869,5.4714,5.462,5.456,5.4367,5.4143,5.3948,5.375,5.3179,5.1798,5.0927,5.0159,4.9061,4.7869,4.7572,4.7078,4.6746,4.6547,4.5978,4.5538,4.5896,4.5063,4.4604,4.4511,4.4155,4.3479,4.3143,4.2711,4.2206,4.1883,4.1456,4.133,4.1467,4.1669,4.1965,4.2282,4.2545,4.2534,4.2456,4.2522,4.2677,4.2858,4.3064,4.3307,4.3507,4.3747,4.4086,4.4424,4.4632,4.4982,4.4879,4.482,4.48,4.4674,4.4567,4.463,4.4658,4.4518,4.4209,4.3974,4.3737,4.3355,4.2776,4.1861,4.1112,3.9976,3.912,3.8116,3.7196,3.7021,3.6746,3.6249,3.5877,3.5705,5.4526,5.4494,5.4494,5.4494,5.4494,5.4494,5.408,5.3497,5.331,5.3181,5.3043,5.299,5.3367,5.3909,5.3979,5.3979,5.4143,5.4207,5.4335,5.4431,5.4494,5.4494,5.4494,5.4494,5.4526,5.452,5.3851,5.3366,5.3307,5.2904,5.2175,5.1958,5.2364,5.2654,5.267,5.3232,5.4067,5.4506,5.4745,5.4745,5.4776,5.4652,5.4494,5.4463,5.4431,5.4335,5.4143,5.3915,5.375,5.3111,5.1966,5.0793,5.0359,4.8895,4.7902,4.7605,4.7143,4.6845,4.6416,4.5425,4.4925,4.5381,4.4354,4.4065,4.3913,4.3502,4.3023,4.265,4.2238,4.1753,4.1388,4.1078,4.1063,4.1212,4.1437,4.1688,4.211,4.2404,4.2589,4.2478,4.2474,4.2585,4.2806,4.3137,4.3407,4.3965,4.4232,4.4875,4.517,4.5201,4.5389,4.5314,4.5267,4.5364,4.5223,4.4892,4.4954,4.4908,4.4769,4.449,4.4275,4.404,4.3757,4.3566,4.3136,4.2296,4.0961,3.9481,3.8479,3.7785,3.7589,3.7369,3.7097,3.6628,3.621,5.4655,5.4494,5.4494,5.4494,5.4494,5.4494,5.408,5.3532,5.3764,5.3466,5.2987,5.3242,5.3449,5.3617,5.3717,5.3849,5.4013,5.4143,5.4239,5.4335,5.4431,5.4494,5.4494,5.4494,5.4526,5.4557,5.4198,5.3785,5.3466,5.3097,5.2681,5.2398,5.3025,5.3619,5.2932,5.3489,5.404,5.4269,5.4301,5.4399,5.4526,5.4494,5.4463,5.4431,5.4303,5.4175,5.4013,5.375,5.3484,5.3112,5.1531,5.056,5.0159,4.8729,4.7836,4.7374,4.6914,4.6356,4.6159,4.5014,4.4261,4.4422,4.348,4.2935,4.2935,4.2811,4.2333,4.1785,4.1522,4.1286,4.1034,4.0993,4.1146,4.1421,4.1713,4.209,4.2444,4.2302,4.2415,4.2363,4.2269,4.2491,4.2754,4.316,4.3604,4.419,4.4819,4.5463,4.5845,4.5815,4.577,4.5665,4.547,4.5492,4.5413,4.5184,4.5138,4.5138,4.5,4.4787,4.4741,4.462,4.4638,4.4406,4.4012,4.2928,4.1086,3.977,3.8813,3.8299,3.798,3.8021,3.8159,3.7586,3.6844,5.4463,5.4494,5.4494,5.4494,5.4494,5.4494,5.4356,5.4055,5.4006,5.3809,5.3505,5.3448,5.3518,5.3517,5.3551,5.3751,5.3948,5.4045,5.4207,5.4335,5.4431,5.4494,5.4494,5.4463,5.4526,5.4431,5.4303,5.4038,5.3658,5.3278,5.2898,5.2766,5.3178,5.3318,5.3117,5.3637,5.4008,5.4205,5.4269,5.4335,5.4335,5.4335,5.4335,5.4335,5.4175,5.4013,5.3816,5.355,5.3349,5.2976,5.173,5.1058,5.0556,4.9356,4.8128,4.7994,4.7202,4.6776,4.6515,4.4919,4.4366,4.4106,4.3425,4.2618,4.246,4.2206,4.1947,4.1654,4.1122,4.09,4.0826,4.0913,4.1271,4.1586,4.1971,4.2277,4.2548,4.2345,4.2269,4.2187,4.2175,4.2502,4.296,4.3701,4.4203,4.4731,4.5375,4.6005,4.6226,4.6138,4.6063,4.6077,4.5763,4.5475,4.5413,4.5276,4.523,4.523,4.5184,4.5064,4.5276,4.5247,4.5235,4.5104,4.4681,4.323,4.1251,4.0059,3.9162,3.8688,3.8385,3.8444,3.8545,3.8258,3.7715,5.4367,5.4497,5.4399,5.4402,5.4402,5.4402,5.4367,5.4335,5.4045,5.3915,5.3849,5.3618,5.3518,5.3518,5.3517,5.3685,5.398,5.3948,5.4143,5.4335,5.4431,5.4434,5.4399,5.4399,5.4367,5.4271,5.4239,5.4106,5.3969,5.3727,5.345,5.3092,5.3391,5.3291,5.3265,5.3508,5.3882,5.4044,5.4175,5.4207,5.4175,5.4175,5.4143,5.411,5.4013,5.3849,5.3717,5.3484,5.3281,5.2941,5.2064,5.139,5.1087,4.9883,4.8752,4.8386,4.7623,4.7056,4.6505,4.5402,4.4723,4.4301,4.3749,4.2748,4.2618,4.2161,4.1891,4.1946,4.1365,4.1189,4.111,4.1053,4.142,4.1824,4.2216,4.2467,4.2655,4.2619,4.2594,4.2553,4.2586,4.2676,4.3293,4.4232,4.4832,4.5288,4.5888,4.6579,4.658,4.6432,4.6549,4.6563,4.6531,4.6231,4.6111,4.5917,4.5722,4.5413,4.5413,4.5549,4.5776,4.5837,4.5824,4.5573,4.5236,4.4174,4.2644,4.1007,3.9513,3.9159,3.8815,3.8831,3.8787,3.862,3.8661,5.4463,5.4463,5.4143,5.4045,5.4045,5.4013,5.4045,5.4045,5.3849,5.375,5.3717,5.3551,5.3518,5.3551,5.3585,5.3719,5.4014,5.3816,5.4013,5.4175,5.4239,5.4271,5.4271,5.4303,5.4303,5.4367,5.4271,5.4207,5.4205,5.4232,5.4068,5.3977,5.3772,5.3744,5.3614,5.3549,5.3684,5.3782,5.3882,5.3948,5.398,5.4013,5.4013,5.3948,5.3849,5.3717,5.3684,5.3416,5.3144,5.2972,5.2128,5.1552,5.128,5.0342,4.9475,4.884,4.8072,4.7467,4.6711,4.5734,4.5043,4.451,4.3791,4.2959,4.2896,4.2973,4.2754,4.2314,4.1698,4.157,4.149,4.1525,4.1883,4.2489,4.2925,4.3224,4.3303,4.3118,4.3063,4.2963,4.3037,4.3112,4.3488,4.4399,4.5011,4.5434,4.6197,4.6845,4.6742,4.6653,4.7007,4.7155,4.7346,4.7315,4.7286,4.7033,4.6602,4.6265,4.6135,4.6269,4.6447,4.6432,4.6241,4.6079,4.5698,4.4863,4.3992,4.2423,4.0988,3.9854,3.9328,3.9347,3.94,3.9329,3.9517,5.411,5.398,5.3784,5.3883,5.411,5.4143,5.4078,5.398,5.3783,5.3651,5.3584,5.3551,5.3754,5.3991,5.3788,5.4023,5.4528,5.4086,5.4179,5.4239,5.4303,5.4303,5.4303,5.4271,5.4239,5.4303,5.4239,5.4207,5.4207,5.4434,5.4335,5.4175,5.4112,5.3882,5.3717,5.3584,5.3618,5.3684,5.3717,5.3816,5.3915,5.3849,5.3816,5.3816,5.3685,5.3584,5.3551,5.3348,5.311,5.2836,5.2395,5.2051,5.1671,5.0864,5.0194,4.9491,4.8615,4.7874,4.7261,4.5992,4.4594,4.3804,4.331,4.3141,4.3163,4.2931,4.2613,4.2255,4.2031,4.1926,4.2386,4.2406,4.2578,4.3253,4.3754,4.4004,4.4006,4.3833,4.3588,4.353,4.356,4.3575,4.4051,4.4558,4.5111,4.5622,4.6386,4.6991,4.6978,4.7008,4.7392,4.7689,4.7852,4.7673,4.7614,4.751,4.7361,4.7096,4.6756,4.6887,4.6945,4.6642,4.6476,4.6386,4.6198,4.5365,4.451,4.3574,4.2381,4.0953,4.0198,3.9848,3.9949,4.004,4.0368,5.3915,5.3783,5.3685,5.3784,5.3948,5.3915,5.3882,5.3816,5.3617,5.3551,5.3518,5.3721,5.4127,5.4432,5.4296,5.4395,5.4733,5.4389,5.4278,5.4239,5.4271,5.4335,5.4367,5.4367,5.4335,5.4303,5.4338,5.4338,5.4716,5.4569,5.4606,5.4578,5.4278,5.4047,5.3717,5.3651,5.3651,5.375,5.4055,5.3919,5.3984,5.4056,5.382,5.3753,5.3551,5.3551,5.3518,5.3382,5.3144,5.2938,5.2696,5.2518,5.2068,5.1553,5.0975,5.0167,4.9321,4.8473,4.7791,4.6529,4.4871,4.4528,4.3769,4.3572,4.3376,4.3193,4.3216,4.3122,4.2642,4.2593,4.3445,4.3355,4.3529,4.4107,4.4239,4.4458,4.4676,4.4589,4.4313,4.4081,4.4153,4.4211,4.46,4.5107,4.5911,4.6308,4.6663,4.7197,4.7422,4.754,4.7882,4.8134,4.8402,4.803,4.7703,4.809,4.8328,4.7404,4.7193,4.7322,4.7302,4.6991,4.6912,4.6966,4.6574,4.5853,4.5319,4.4774,4.3398,4.1835,4.1256,4.0765,4.0941,4.1114,4.1292,5.398,5.398,5.3948,5.3817,5.3619,5.3348,5.3382,5.3551,5.3382,5.3382,5.3585,5.4093,5.4601,5.4805,5.4669,5.4837,5.5039,5.4492,5.4179,5.4274,5.4411,5.4404,5.45,5.4532,5.4603,5.4497,5.4635,5.4948,5.5428,5.5009,5.5046,5.5118,5.4847,5.431,5.3817,5.3717,5.3816,5.405,5.4698,5.4428,5.4225,5.4465,5.4262,5.389,5.3585,5.3518,5.3687,5.345,5.3212,5.2938,5.2834,5.2589,5.2272,5.2056,5.1514,5.0739,5.0034,4.9202,4.8286,4.6925,4.6222,4.579,4.5029,4.4541,4.4389,4.4297,4.4273,4.4204,4.4168,4.4295,4.446,4.4405,4.4615,4.488,4.5011,4.5084,4.5303,4.5317,4.5054,4.4835,4.4835,4.4922,4.5238,4.573,4.67,4.7128,4.7161,4.7388,4.7777,4.8179,4.8552,4.8716,4.8984,4.8969,4.8835,4.9268,4.9207,4.814,4.7641,4.7817,4.7752,4.7516,4.7486,4.7522,4.7105,4.6425,4.6292,4.6172,4.4523,4.2923,4.2224,4.1849,4.2004,4.2109,4.2113,5.3784,5.3685,5.3651,5.389,5.4228,5.4262,5.4059,5.3652,5.3551,5.3551,5.3551,5.389,5.4703,5.5077,5.4871,5.4937,5.572,5.5106,5.4727,5.4404,5.475,5.4775,5.4868,5.5003,5.5038,5.4897,5.5003,5.5354,5.5566,5.5418,5.5516,5.562,5.5455,5.4817,5.4384,5.4355,5.4732,5.4898,5.5037,5.4937,5.4666,5.477,5.4703,5.4194,5.3788,5.3754,5.4059,5.372,5.328,5.2937,5.2834,5.2587,5.2302,5.2155,5.1842,5.1124,5.045,4.948,4.8771,4.7995,4.755,4.6975,4.6299,4.5811,4.6012,4.573,4.5565,4.5293,4.5191,4.5221,4.5161,4.5194,4.5418,4.5918,4.6079,4.602,4.6035,4.5946,4.577,4.5591,4.5547,4.5866,4.6198,4.6708,4.7503,4.8248,4.837,4.8257,4.8472,4.8998,4.9388,4.9494,4.9659,4.9748,4.9928,5.0079,4.9747,4.8766,4.8326,4.8364,4.825,4.8012,4.7973,4.8004,4.7513,4.7054,4.6803,4.6394,4.5312,4.4151,4.3401,4.2796,4.2741,4.2654,4.2506,5.3349,5.3314,5.3382,5.3652,5.4092,5.4194,5.4093,5.3923,5.3991,5.3957,5.4059,5.4363,5.5077,5.5655,5.5449,5.5206,5.6402,5.5648,5.4828,5.4606,5.5223,5.5317,5.5444,5.5608,5.5574,5.5469,5.5822,5.624,5.6178,5.624,5.6403,5.6435,5.6206,5.5902,5.5464,5.5403,5.5238,5.5407,5.5544,5.5548,5.5278,5.5178,5.5145,5.4635,5.4228,5.4093,5.4261,5.3955,5.3345,5.3037,5.2727,5.248,5.2266,5.2119,5.201,5.1488,5.0806,4.9923,4.9392,4.9158,4.8718,4.8349,4.7418,4.6841,4.6762,4.633,4.6143,4.5969,4.5924,4.5896,4.5927,4.5973,4.6152,4.6639,4.6506,4.6372,4.6431,4.6312,4.6472,4.6366,4.6596,4.687,4.7131,4.7777,4.8442,4.9057,4.9616,4.9385,4.9153,4.9548,4.9972,5.011,5.0125,5.0125,5.0321,5.0607,5.0122,4.9321,4.9044,4.8931,4.8779,4.8538,4.851,4.8398,4.7976,4.7551,4.7177,4.6556,4.5855,4.5228,4.4603,4.4051,4.3595,4.3369,4.3268,5.2937,5.2938,5.311,5.3246,5.3314,5.3652,5.3921,5.4358,5.4532,5.4669,5.4805,5.5451,5.5996,5.6335,5.6368,5.647,5.6504,5.5983,5.5228,5.495,5.5593,5.5756,5.6015,5.6241,5.6248,5.6394,5.6744,5.7196,5.7032,5.7163,5.7324,5.7454,5.7228,5.6955,5.6584,5.6251,5.595,5.619,5.6431,5.6298,5.5994,5.603,5.5758,5.5314,5.4871,5.4702,5.4633,5.4291,5.3647,5.317,5.2761,5.2584,5.2407,5.226,5.2188,5.1868,5.121,5.0576,5.0041,4.9821,4.9734,4.9198,4.7964,4.711,4.6929,4.7065,4.6956,4.6913,4.6826,4.6753,4.668,4.6667,4.6653,4.6668,4.646,4.6503,4.6665,4.6796,4.7044,4.7291,4.7712,4.7957,4.7981,4.8541,4.915,4.9592,5.0065,5.0241,5.0037,4.9951,5.0377,5.0529,5.0547,5.0456,5.0683,5.1061,5.0788,5.0075,4.9539,4.9334,4.9224,4.8951,4.8644,4.8449,4.8355,4.8072,4.7588,4.7203,4.687,4.6239,4.5565,4.5142,4.4627,4.44,4.43,5.2972,5.311,5.3179,5.3584,5.4295,5.5448,5.5718,5.5343,5.5111,5.494,5.4839,5.5347,5.6094,5.6636,5.6022,5.6603,5.6877,5.6772,5.6046,5.5971,5.6238,5.6359,5.6586,5.6885,5.6997,5.7283,5.7669,5.8087,5.7925,5.8025,5.8282,5.851,5.8084,5.7776,5.7476,5.7248,5.7183,5.7151,5.7426,5.712,5.6849,5.6885,5.661,5.6232,5.5582,5.5446,5.5274,5.4523,5.3811,5.3069,5.3085,5.2973,5.2407,5.2732,5.2858,5.19,5.1355,5.0864,5.0409,5.0246,5.0129,4.9971,4.9031,4.8912,4.8658,4.8283,4.8019,4.7823,4.7551,4.74,4.7266,4.7241,4.7317,4.7303,4.7125,4.711,4.7258,4.7342,4.762,4.8033,4.8482,4.8657,4.8756,4.9172,4.9725,5.0081,5.0378,5.0662,5.079,5.0674,5.0661,5.0859,5.0906,5.0816,5.115,5.1531,5.1228,5.0863,5.0266,4.9652,4.9353,4.904,4.8653,4.8469,4.8385,4.8218,4.7964,4.7624,4.7322,4.6989,4.643,4.6065,4.5739,4.5367,4.508,5.2903,5.3076,5.3179,5.3619,5.4432,5.603,5.6404,5.5892,5.5655,5.5621,5.5894,5.599,5.6496,5.7146,5.6631,5.6836,5.7936,5.7146,5.6353,5.6136,5.7091,5.7178,5.7335,5.7674,5.7898,5.818,5.8462,5.8811,5.8577,5.8669,5.8924,5.9341,5.8875,5.8467,5.8337,5.8484,5.849,5.8286,5.8115,5.7877,5.7741,5.7569,5.7327,5.7084,5.6398,5.6225,5.5986,5.5028,5.4146,5.3404,5.3482,5.3069,5.2539,5.2771,5.2722,5.1868,5.1536,5.1124,5.0711,5.0512,5.0356,5.0168,4.9971,4.9829,4.955,4.9144,4.8769,4.8429,4.8157,4.791,4.7804,4.7739,4.7981,4.8207,4.8,4.7837,4.7896,4.7952,4.8265,4.8734,4.9018,4.9222,4.9503,4.9921,5.0183,5.0364,5.0573,5.078,5.0969,5.1003,5.099,5.1066,5.1126,5.1173,5.1526,5.1666,5.1501,5.1106,5.0571,5.0018,4.9616,4.9059,4.8633,4.851,4.8385,4.826,4.8091,4.7922,4.7666,4.7366,4.7149,4.6784,4.6344,4.5931,4.5676,5.2764,5.2972,5.3144,5.3518,5.4023,5.5587,5.6304,5.6304,5.6372,5.6782,5.7295,5.7117,5.7351,5.7829,5.7348,5.7588,5.807,5.7623,5.7002,5.6198,5.7669,5.8104,5.8094,5.8472,5.8622,5.8843,5.9122,5.9359,5.891,5.9039,5.9513,6.0036,5.9316,5.9012,5.9334,5.934,5.9276,5.9107,5.8628,5.8252,5.8015,5.7741,5.7465,5.7359,5.715,5.694,5.6596,5.5875,5.4883,5.4205,5.3795,5.3346,5.2909,5.2605,5.2356,5.1973,5.1684,5.135,5.1048,5.0781,5.0628,5.0512,5.0434,5.0278,5.0003,4.9533,4.9128,4.8769,4.8438,4.8133,4.797,4.8119,4.832,4.8443,4.8297,4.8388,4.8579,4.8676,4.8823,4.9249,4.9552,4.9727,4.9852,5.0183,5.0327,5.0519,5.071,5.0917,5.1058,5.1182,5.1276,5.1246,5.1162,5.1164,5.121,5.141,5.1592,5.1258,5.0798,5.0559,5.0199,4.9485,4.8593,4.8521,4.8469,4.8385,4.826,4.8091,4.7964,4.7794,4.7581,4.7396,4.7032,4.6579,4.6137,5.2938,5.3144,5.345,5.3956,5.4635,5.5893,5.6747,5.7261,5.7431,5.7534,5.7637,5.7803,5.8035,5.8272,5.8068,5.8311,5.8793,5.8172,5.7894,5.7781,5.8529,5.8759,5.8678,5.8885,5.9172,5.9494,5.9739,5.987,5.9628,5.9692,5.9861,6.0036,5.9692,5.9803,5.9911,5.9849,5.9748,5.9615,5.9377,5.9036,5.8971,5.8906,5.8737,5.8531,5.8289,5.7806,5.7393,5.6843,5.5718,5.4766,5.4893,5.4341,5.3487,5.3241,5.2834,5.2362,5.1904,5.161,5.135,5.101,5.082,5.0666,5.055,5.0434,5.02,4.9733,4.9331,4.9015,4.8728,4.8396,4.8225,4.8407,4.8598,4.8618,4.8623,4.894,4.925,4.9297,4.938,4.9666,5.0076,5.0183,5.0231,5.0375,5.0519,5.0632,5.0728,5.0917,5.1058,5.1229,5.1416,5.1359,5.1122,5.1061,5.1122,5.1274,5.1516,5.1378,5.0947,5.0844,5.0753,4.9939,4.9097,4.8727,4.8521,4.8756,4.8764,4.8332,4.8206,4.8255,4.7964,4.7752,4.7581,4.7206,4.6726,5.3144,5.3382,5.3684,5.4258,5.5075,5.6163,5.7086,5.7739,5.822,5.8324,5.8186,5.8317,5.8513,5.8718,5.8515,5.8758,5.9311,5.8588,5.8272,5.8403,5.8878,5.9036,5.9166,5.9334,5.9619,5.994,6.0008,6.0072,6.0072,6.0072,6.0072,6.0139,6.0139,6.0171,6.0139,6.0072,6.0072,5.9943,5.9914,5.9849,5.9751,5.952,5.9285,5.9081,5.8806,5.8393,5.8014,5.7429,5.6368,5.5108,5.4559,5.4176,5.3492,5.3183,5.281,5.2401,5.205,5.1758,5.1573,5.1312,5.101,5.0858,5.0666,5.055,5.0434,4.9971,4.9533,4.925,4.8769,4.8438,4.8385,4.8523,4.8791,4.8905,4.893,4.9058,4.9403,4.9614,4.9823,5.0121,5.0357,5.0357,5.0405,5.0405,5.0567,5.068,5.0822,5.0917,5.1105,5.1246,5.1463,5.1574,5.1334,5.1333,5.1577,5.1531,5.1531,5.1347,5.1141,5.0997,5.079,5.0174,4.9558,4.9435,4.9435,4.9693,4.9547,4.9124,4.9013,4.9178,4.8691,4.8091,4.7964,4.7855,4.7379,5.3416,5.3653,5.3987,5.4528,5.5346,5.6367,5.7256,5.7876,5.8599,5.8944,5.8909,5.8624,5.8998,5.9101,5.8994,5.9238,5.924,5.8929,5.8683,5.8853,5.9467,5.9488,5.9583,5.9756,5.9934,6.0072,6.0139,6.0139,6.0072,6.0072,6.0107,6.0139,6.0234,6.0329,6.0297,6.0392,6.0485,6.0297,6.0202,6.0202,5.9978,5.9685,5.952,5.925,5.9047,5.8806,5.8461,5.7877,5.6881,5.5855,5.4664,5.3913,5.3567,5.3261,5.2921,5.2547,5.2161,5.1944,5.1758,5.1429,5.1242,5.1124,5.082,5.0666,5.055,5.0317,4.9852,4.9372,4.8965,4.8676,4.8624,4.8633,4.8906,4.9347,4.933,4.937,4.9689,4.9978,5.0176,5.0508,5.0548,5.0548,5.0548,5.0596,5.0662,5.0775,5.087,5.1011,5.1105,5.1323,5.1463,5.1649,5.1667,5.1789,5.1911,5.1698,5.1469,5.1678,5.1458,5.1195,5.0857,5.0439,5.0266,5.042,5.0451,5.0432,5.0395,5.0074,5.0036,4.9965,4.9427,4.8837,4.8661,4.8462,4.8079,5.3822,5.4431,5.4567,5.5111,5.5928,5.6782,5.7398,5.7775,5.8497,5.8909,5.9012,5.9147,5.935,5.9621,5.9516,5.9551,5.9515,5.9306,5.9375,5.9515,5.9776,5.9835,5.9928,6.0027,6.0068,6.0171,6.0266,6.0234,6.0171,6.0139,6.0107,6.0209,6.0423,6.0516,6.0583,6.064,6.0666,6.0547,6.036,6.0297,6.0171,5.9978,5.9879,5.9683,5.9518,5.9318,5.908,5.884,5.8153,5.7192,5.5892,5.4631,5.3916,5.3606,5.3334,5.2859,5.2475,5.2161,5.1944,5.1651,5.1466,5.1312,5.1086,5.0934,5.0858,5.0743,5.0239,4.9779,4.9344,4.9058,4.8965,4.8841,4.9013,4.9873,5.0191,5.017,5.0349,5.0345,5.0398,5.0614,5.071,5.0757,5.0822,5.0822,5.0899,5.0964,5.0917,5.1011,5.1182,5.1323,5.1463,5.1695,5.191,5.1834,5.1768,5.1492,5.1396,5.1638,5.1867,5.1669,5.1392,5.0944,5.0851,5.1128,5.0974,5.079,5.0753,5.0913,5.072,5.0545,5.0142,4.9676,4.9407,4.8993,4.8519]}]]